<?xml version="1.0" encoding="UTF-8" standalone="no" ?>
<gpx xmlns="http://www.topografix.com/GPX/1/1" xmlns:xsi="http://www.w3.org/2001/XMLSchema-instance" xsi:schemaLocation="http://www.topografix.com/GPX/1/1 http://www.topografix.com/GPX/1/1/gpx.xsd" version="1.1" creator="VisuGPX - https://www.visugpx.com">
  <metadata>
    <name>GR20 Nord en 6 jours</name>
  </metadata>
  <trk>
    <name><![CDATA[GR20 Nord en 6 jours_1]]></name>
    <trkseg>
      <trkpt lat="42.12785" lon="9.1341">
        <ele>960.52</ele>
        <time>2018-08-30T13:46:01Z</time>
      </trkpt>
      <trkpt lat="42.12785" lon="9.1341">
        <ele>960.52</ele>
        <time>2018-08-30T13:46:01Z</time>
      </trkpt>
      <trkpt lat="42.12779" lon="9.13415">
        <ele>926.99</ele>
        <time>2018-08-30T13:45:36Z</time>
      </trkpt>
      <trkpt lat="42.12779" lon="9.13415">
        <ele>929.3</ele>
        <time>2018-08-30T13:45:34Z</time>
      </trkpt>
      <trkpt lat="42.1278" lon="9.13411">
        <ele>926.63</ele>
        <time>2018-08-30T13:45:14Z</time>
      </trkpt>
      <trkpt lat="42.12785" lon="9.13412">
        <ele>926.52</ele>
        <time>2018-08-30T13:44:55Z</time>
      </trkpt>
      <trkpt lat="42.12782" lon="9.1342">
        <ele>926.4</ele>
        <time>2018-08-30T13:44:36Z</time>
      </trkpt>
      <trkpt lat="42.12783" lon="9.13422">
        <ele>926.35</ele>
        <time>2018-08-30T13:44:31Z</time>
      </trkpt>
      <trkpt lat="42.12784" lon="9.13424">
        <ele>928.83</ele>
        <time>2018-08-30T13:44:26Z</time>
      </trkpt>
      <trkpt lat="42.12784" lon="9.13422">
        <ele>928.73</ele>
        <time>2018-08-30T13:44:02Z</time>
      </trkpt>
      <trkpt lat="42.12784" lon="9.13421">
        <ele>926.28</ele>
        <time>2018-08-30T13:44:00Z</time>
      </trkpt>
      <trkpt lat="42.12789" lon="9.13412">
        <ele>926.19</ele>
        <time>2018-08-30T13:43:42Z</time>
      </trkpt>
      <trkpt lat="42.12793" lon="9.13381">
        <ele>926.12</ele>
        <time>2018-08-30T13:43:25Z</time>
      </trkpt>
      <trkpt lat="42.12785" lon="9.13362">
        <ele>926.03</ele>
        <time>2018-08-30T13:43:13Z</time>
      </trkpt>
      <trkpt lat="42.12786" lon="9.13366">
        <ele>925.93</ele>
        <time>2018-08-30T13:42:57Z</time>
      </trkpt>
      <trkpt lat="42.12787" lon="9.13372">
        <ele>928.25</ele>
        <time>2018-08-30T13:42:47Z</time>
      </trkpt>
      <trkpt lat="42.12782" lon="9.13379">
        <ele>928.23</ele>
        <time>2018-08-30T13:42:40Z</time>
      </trkpt>
      <trkpt lat="42.1278" lon="9.13385">
        <ele>928.22</ele>
        <time>2018-08-30T13:42:38Z</time>
      </trkpt>
      <trkpt lat="42.12784" lon="9.13387">
        <ele>928.21</ele>
        <time>2018-08-30T13:42:35Z</time>
      </trkpt>
      <trkpt lat="42.12766" lon="9.134">
        <ele>928.09</ele>
        <time>2018-08-30T13:42:07Z</time>
      </trkpt>
      <trkpt lat="42.12766" lon="9.13407">
        <ele>928.06</ele>
        <time>2018-08-30T13:42:01Z</time>
      </trkpt>
      <trkpt lat="42.12768" lon="9.13407">
        <ele>928.06</ele>
        <time>2018-08-30T13:41:58Z</time>
      </trkpt>
      <trkpt lat="42.12778" lon="9.13389">
        <ele>927.98</ele>
        <time>2018-08-30T13:41:29Z</time>
      </trkpt>
      <trkpt lat="42.12785" lon="9.13383">
        <ele>927.75</ele>
        <time>2018-08-30T13:40:40Z</time>
      </trkpt>
      <trkpt lat="42.1279" lon="9.13381">
        <ele>927.72</ele>
        <time>2018-08-30T13:40:22Z</time>
      </trkpt>
      <trkpt lat="42.12792" lon="9.13382">
        <ele>925.08</ele>
        <time>2018-08-30T13:40:17Z</time>
      </trkpt>
      <trkpt lat="42.12795" lon="9.13384">
        <ele>924.99</ele>
        <time>2018-08-30T13:40:02Z</time>
      </trkpt>
      <trkpt lat="42.12796" lon="9.13389">
        <ele>924.86</ele>
        <time>2018-08-30T13:39:42Z</time>
      </trkpt>
      <trkpt lat="42.12796" lon="9.13401">
        <ele>924.77</ele>
        <time>2018-08-30T13:39:29Z</time>
      </trkpt>
      <trkpt lat="42.12795" lon="9.1341">
        <ele>924.6</ele>
        <time>2018-08-30T13:39:05Z</time>
      </trkpt>
      <trkpt lat="42.12795" lon="9.13409">
        <ele>924.31</ele>
        <time>2018-08-30T13:38:24Z</time>
      </trkpt>
      <trkpt lat="42.12794" lon="9.13409">
        <ele>924.16</ele>
        <time>2018-08-30T13:37:58Z</time>
      </trkpt>
      <trkpt lat="42.12795" lon="9.13408">
        <ele>924.08</ele>
        <time>2018-08-30T13:37:43Z</time>
      </trkpt>
      <trkpt lat="42.12795" lon="9.13408">
        <ele>923.83</ele>
        <time>2018-08-30T13:36:46Z</time>
      </trkpt>
      <trkpt lat="42.12795" lon="9.13406">
        <ele>923.72</ele>
        <time>2018-08-30T13:36:22Z</time>
      </trkpt>
      <trkpt lat="42.12793" lon="9.13402">
        <ele>926.27</ele>
        <time>2018-08-30T13:36:12Z</time>
      </trkpt>
      <trkpt lat="42.1279" lon="9.13379">
        <ele>926.28</ele>
        <time>2018-08-30T13:35:56Z</time>
      </trkpt>
      <trkpt lat="42.12771" lon="9.13385">
        <ele>926.31</ele>
        <time>2018-08-30T13:35:43Z</time>
      </trkpt>
      <trkpt lat="42.12788" lon="9.13388">
        <ele>926.31</ele>
        <time>2018-08-30T13:35:24Z</time>
      </trkpt>
      <trkpt lat="42.12783" lon="9.13391">
        <ele>926.51</ele>
        <time>2018-08-30T13:33:40Z</time>
      </trkpt>
      <trkpt lat="42.12787" lon="9.13389">
        <ele>926.54</ele>
        <time>2018-08-30T13:33:23Z</time>
      </trkpt>
      <trkpt lat="42.12791" lon="9.13383">
        <ele>926.59</ele>
        <time>2018-08-30T13:32:48Z</time>
      </trkpt>
      <trkpt lat="42.12795" lon="9.13382">
        <ele>926.62</ele>
        <time>2018-08-30T13:32:25Z</time>
      </trkpt>
      <trkpt lat="42.12797" lon="9.1338">
        <ele>924.42</ele>
        <time>2018-08-30T13:31:58Z</time>
      </trkpt>
      <trkpt lat="42.12798" lon="9.1338">
        <ele>924.46</ele>
        <time>2018-08-30T13:31:39Z</time>
      </trkpt>
      <trkpt lat="42.12797" lon="9.1338">
        <ele>924.51</ele>
        <time>2018-08-30T13:31:15Z</time>
      </trkpt>
      <trkpt lat="42.12792" lon="9.13378">
        <ele>925.39</ele>
        <time>2018-08-30T13:31:01Z</time>
      </trkpt>
      <trkpt lat="42.12781" lon="9.13371">
        <ele>925.38</ele>
        <time>2018-08-30T13:30:46Z</time>
      </trkpt>
      <trkpt lat="42.12781" lon="9.13365">
        <ele>925.4</ele>
        <time>2018-08-30T13:30:42Z</time>
      </trkpt>
      <trkpt lat="42.12779" lon="9.13357">
        <ele>925.43</ele>
        <time>2018-08-30T13:30:29Z</time>
      </trkpt>
      <trkpt lat="42.12777" lon="9.13355">
        <ele>925.46</ele>
        <time>2018-08-30T13:30:15Z</time>
      </trkpt>
      <trkpt lat="42.12777" lon="9.13343">
        <ele>926.38</ele>
        <time>2018-08-30T13:29:58Z</time>
      </trkpt>
      <trkpt lat="42.12777" lon="9.13343">
        <ele>927.32</ele>
        <time>2018-08-30T13:29:52Z</time>
      </trkpt>
      <trkpt lat="42.12787" lon="9.13323">
        <ele>928.23</ele>
        <time>2018-08-30T13:29:31Z</time>
      </trkpt>
      <trkpt lat="42.12786" lon="9.13312">
        <ele>929.16</ele>
        <time>2018-08-30T13:29:23Z</time>
      </trkpt>
      <trkpt lat="42.12779" lon="9.13319">
        <ele>930.02</ele>
        <time>2018-08-30T13:29:07Z</time>
      </trkpt>
      <trkpt lat="42.12775" lon="9.13324">
        <ele>931.41</ele>
        <time>2018-08-30T13:29:02Z</time>
      </trkpt>
      <trkpt lat="42.12766" lon="9.13329">
        <ele>931.43</ele>
        <time>2018-08-30T13:28:53Z</time>
      </trkpt>
      <trkpt lat="42.12763" lon="9.13325">
        <ele>933.08</ele>
        <time>2018-08-30T13:28:49Z</time>
      </trkpt>
      <trkpt lat="42.12759" lon="9.13299">
        <ele>934.05</ele>
        <time>2018-08-30T13:28:31Z</time>
      </trkpt>
      <trkpt lat="42.12755" lon="9.13284">
        <ele>934.92</ele>
        <time>2018-08-30T13:28:16Z</time>
      </trkpt>
      <trkpt lat="42.12753" lon="9.13284">
        <ele>934.82</ele>
        <time>2018-08-30T13:28:14Z</time>
      </trkpt>
      <trkpt lat="42.12753" lon="9.13283">
        <ele>934.82</ele>
        <time>2018-08-30T13:28:11Z</time>
      </trkpt>
      <trkpt lat="42.12752" lon="9.13277">
        <ele>935.75</ele>
        <time>2018-08-30T13:28:00Z</time>
      </trkpt>
      <trkpt lat="42.12744" lon="9.13251">
        <ele>937.37</ele>
        <time>2018-08-30T13:27:41Z</time>
      </trkpt>
      <trkpt lat="42.12736" lon="9.13225">
        <ele>939.12</ele>
        <time>2018-08-30T13:27:23Z</time>
      </trkpt>
      <trkpt lat="42.12731" lon="9.13239">
        <ele>940.92</ele>
        <time>2018-08-30T13:27:09Z</time>
      </trkpt>
      <trkpt lat="42.12724" lon="9.13262">
        <ele>941.61</ele>
        <time>2018-08-30T13:26:52Z</time>
      </trkpt>
      <trkpt lat="42.1271" lon="9.13285">
        <ele>942.38</ele>
        <time>2018-08-30T13:26:34Z</time>
      </trkpt>
      <trkpt lat="42.12706" lon="9.13285">
        <ele>944.17</ele>
        <time>2018-08-30T13:26:25Z</time>
      </trkpt>
      <trkpt lat="42.12701" lon="9.1326">
        <ele>944.93</ele>
        <time>2018-08-30T13:26:07Z</time>
      </trkpt>
      <trkpt lat="42.12699" lon="9.13256">
        <ele>944.95</ele>
        <time>2018-08-30T13:26:04Z</time>
      </trkpt>
      <trkpt lat="42.12697" lon="9.13252">
        <ele>944.99</ele>
        <time>2018-08-30T13:26:00Z</time>
      </trkpt>
      <trkpt lat="42.12695" lon="9.13246">
        <ele>945.01</ele>
        <time>2018-08-30T13:25:56Z</time>
      </trkpt>
      <trkpt lat="42.12693" lon="9.1324">
        <ele>946.21</ele>
        <time>2018-08-30T13:25:51Z</time>
      </trkpt>
      <trkpt lat="42.12689" lon="9.13225">
        <ele>947.34</ele>
        <time>2018-08-30T13:25:40Z</time>
      </trkpt>
      <trkpt lat="42.1269" lon="9.13221">
        <ele>947.34</ele>
        <time>2018-08-30T13:25:38Z</time>
      </trkpt>
      <trkpt lat="42.12689" lon="9.13196">
        <ele>947.33</ele>
        <time>2018-08-30T13:25:21Z</time>
      </trkpt>
      <trkpt lat="42.12683" lon="9.13169">
        <ele>948.22</ele>
        <time>2018-08-30T13:25:02Z</time>
      </trkpt>
      <trkpt lat="42.12679" lon="9.1316">
        <ele>948.14</ele>
        <time>2018-08-30T13:24:56Z</time>
      </trkpt>
      <trkpt lat="42.12669" lon="9.13146">
        <ele>950.6</ele>
        <time>2018-08-30T13:24:45Z</time>
      </trkpt>
      <trkpt lat="42.12656" lon="9.13131">
        <ele>950.57</ele>
        <time>2018-08-30T13:24:29Z</time>
      </trkpt>
      <trkpt lat="42.12639" lon="9.13118">
        <ele>950.52</ele>
        <time>2018-08-30T13:24:13Z</time>
      </trkpt>
      <trkpt lat="42.12628" lon="9.13112">
        <ele>950.49</ele>
        <time>2018-08-30T13:24:04Z</time>
      </trkpt>
      <trkpt lat="42.12621" lon="9.13113">
        <ele>948.26</ele>
        <time>2018-08-30T13:23:59Z</time>
      </trkpt>
      <trkpt lat="42.12604" lon="9.13114">
        <ele>948.14</ele>
        <time>2018-08-30T13:23:44Z</time>
      </trkpt>
      <trkpt lat="42.12589" lon="9.13113">
        <ele>949</ele>
        <time>2018-08-30T13:23:31Z</time>
      </trkpt>
      <trkpt lat="42.12586" lon="9.13112">
        <ele>948.98</ele>
        <time>2018-08-30T13:23:29Z</time>
      </trkpt>
      <trkpt lat="42.12577" lon="9.13111">
        <ele>949.87</ele>
        <time>2018-08-30T13:23:22Z</time>
      </trkpt>
      <trkpt lat="42.1257" lon="9.13112">
        <ele>949.85</ele>
        <time>2018-08-30T13:23:16Z</time>
      </trkpt>
      <trkpt lat="42.12568" lon="9.13105">
        <ele>951.26</ele>
        <time>2018-08-30T13:23:08Z</time>
      </trkpt>
      <trkpt lat="42.12567" lon="9.13104">
        <ele>951.25</ele>
        <time>2018-08-30T13:23:07Z</time>
      </trkpt>
      <trkpt lat="42.12564" lon="9.13091">
        <ele>952.34</ele>
        <time>2018-08-30T13:22:53Z</time>
      </trkpt>
      <trkpt lat="42.12564" lon="9.13079">
        <ele>953.92</ele>
        <time>2018-08-30T13:22:42Z</time>
      </trkpt>
      <trkpt lat="42.12574" lon="9.13072">
        <ele>953.99</ele>
        <time>2018-08-30T13:22:31Z</time>
      </trkpt>
      <trkpt lat="42.12575" lon="9.13071">
        <ele>954.01</ele>
        <time>2018-08-30T13:22:30Z</time>
      </trkpt>
      <trkpt lat="42.12587" lon="9.13068">
        <ele>952.24</ele>
        <time>2018-08-30T13:22:16Z</time>
      </trkpt>
      <trkpt lat="42.12599" lon="9.13064">
        <ele>951.27</ele>
        <time>2018-08-30T13:22:03Z</time>
      </trkpt>
      <trkpt lat="42.12608" lon="9.13056">
        <ele>949.03</ele>
        <time>2018-08-30T13:21:54Z</time>
      </trkpt>
      <trkpt lat="42.12622" lon="9.13045">
        <ele>949.01</ele>
        <time>2018-08-30T13:21:41Z</time>
      </trkpt>
      <trkpt lat="42.12637" lon="9.13038">
        <ele>948.89</ele>
        <time>2018-08-30T13:21:27Z</time>
      </trkpt>
      <trkpt lat="42.12639" lon="9.13035">
        <ele>950.47</ele>
        <time>2018-08-30T13:21:24Z</time>
      </trkpt>
      <trkpt lat="42.1265" lon="9.13024">
        <ele>952.84</ele>
        <time>2018-08-30T13:21:09Z</time>
      </trkpt>
      <trkpt lat="42.12654" lon="9.1301">
        <ele>952.79</ele>
        <time>2018-08-30T13:20:59Z</time>
      </trkpt>
      <trkpt lat="42.12652" lon="9.13003">
        <ele>952.7</ele>
        <time>2018-08-30T13:20:53Z</time>
      </trkpt>
      <trkpt lat="42.12651" lon="9.13002">
        <ele>952.79</ele>
        <time>2018-08-30T13:20:52Z</time>
      </trkpt>
      <trkpt lat="42.12651" lon="9.13001">
        <ele>952.79</ele>
        <time>2018-08-30T13:20:51Z</time>
      </trkpt>
      <trkpt lat="42.12641" lon="9.12984">
        <ele>949.46</ele>
        <time>2018-08-30T13:20:35Z</time>
      </trkpt>
      <trkpt lat="42.12631" lon="9.12973">
        <ele>949.37</ele>
        <time>2018-08-30T13:20:23Z</time>
      </trkpt>
      <trkpt lat="42.12629" lon="9.12966">
        <ele>949.38</ele>
        <time>2018-08-30T13:20:18Z</time>
      </trkpt>
      <trkpt lat="42.12628" lon="9.12963">
        <ele>949.38</ele>
        <time>2018-08-30T13:20:16Z</time>
      </trkpt>
      <trkpt lat="42.12629" lon="9.1295">
        <ele>949.24</ele>
        <time>2018-08-30T13:20:03Z</time>
      </trkpt>
      <trkpt lat="42.12629" lon="9.12947">
        <ele>949.27</ele>
        <time>2018-08-30T13:20:00Z</time>
      </trkpt>
      <trkpt lat="42.12623" lon="9.12938">
        <ele>949.23</ele>
        <time>2018-08-30T13:19:45Z</time>
      </trkpt>
      <trkpt lat="42.12628" lon="9.12941">
        <ele>950</ele>
        <time>2018-08-30T13:19:29Z</time>
      </trkpt>
      <trkpt lat="42.12635" lon="9.12937">
        <ele>950.72</ele>
        <time>2018-08-30T13:19:16Z</time>
      </trkpt>
      <trkpt lat="42.12642" lon="9.12923">
        <ele>954.48</ele>
        <time>2018-08-30T13:19:01Z</time>
      </trkpt>
      <trkpt lat="42.12653" lon="9.12915">
        <ele>956.36</ele>
        <time>2018-08-30T13:18:48Z</time>
      </trkpt>
      <trkpt lat="42.12653" lon="9.12914">
        <ele>956.42</ele>
        <time>2018-08-30T13:18:47Z</time>
      </trkpt>
      <trkpt lat="42.12652" lon="9.12908">
        <ele>957.43</ele>
        <time>2018-08-30T13:18:35Z</time>
      </trkpt>
      <trkpt lat="42.12843" lon="9.12801">
        <ele>989.9</ele>
      </trkpt>
      <trkpt lat="42.12996" lon="9.12833">
        <ele>1005.7</ele>
      </trkpt>
      <trkpt lat="42.13023" lon="9.12818">
        <ele>1012.4</ele>
      </trkpt>
      <trkpt lat="42.1308" lon="9.12713">
        <ele>1048.9</ele>
      </trkpt>
      <trkpt lat="42.13085" lon="9.12676">
        <ele>1054.5</ele>
      </trkpt>
      <trkpt lat="42.13176" lon="9.12563">
        <ele>1090.5</ele>
      </trkpt>
      <trkpt lat="42.13188" lon="9.12539">
        <ele>1098.4</ele>
      </trkpt>
      <trkpt lat="42.13239" lon="9.12513">
        <ele>1107.1</ele>
      </trkpt>
      <trkpt lat="42.13247" lon="9.12524">
        <ele>1104.2</ele>
      </trkpt>
      <trkpt lat="42.13241" lon="9.12567">
        <ele>1091.1</ele>
      </trkpt>
      <trkpt lat="42.13274" lon="9.12606">
        <ele>1081.6</ele>
      </trkpt>
      <trkpt lat="42.13414" lon="9.12629">
        <ele>1103.5</ele>
      </trkpt>
      <trkpt lat="42.13441" lon="9.12694">
        <ele>1102.1</ele>
      </trkpt>
      <trkpt lat="42.13642" lon="9.129">
        <ele>1117.2</ele>
      </trkpt>
      <trkpt lat="42.13696" lon="9.12908">
        <ele>1125.4</ele>
      </trkpt>
      <trkpt lat="42.13714" lon="9.12861">
        <ele>1130.6</ele>
      </trkpt>
      <trkpt lat="42.13682" lon="9.12769">
        <ele>1149.5</ele>
      </trkpt>
      <trkpt lat="42.13698" lon="9.12698">
        <ele>1163.6</ele>
      </trkpt>
      <trkpt lat="42.13636" lon="9.12614">
        <ele>1177.1</ele>
      </trkpt>
      <trkpt lat="42.13642" lon="9.12593">
        <ele>1181.6</ele>
      </trkpt>
      <trkpt lat="42.13618" lon="9.12541">
        <ele>1199.2</ele>
      </trkpt>
      <trkpt lat="42.13664" lon="9.12539">
        <ele>1203.3</ele>
      </trkpt>
      <trkpt lat="42.13677" lon="9.12518">
        <ele>1214.9</ele>
      </trkpt>
      <trkpt lat="42.13615" lon="9.12404">
        <ele>1247.3</ele>
      </trkpt>
      <trkpt lat="42.13664" lon="9.12391">
        <ele>1253</ele>
      </trkpt>
      <trkpt lat="42.13687" lon="9.12363">
        <ele>1267</ele>
      </trkpt>
      <trkpt lat="42.13694" lon="9.12316">
        <ele>1289.8</ele>
      </trkpt>
      <trkpt lat="42.13731" lon="9.12294">
        <ele>1294.2</ele>
      </trkpt>
      <trkpt lat="42.13831" lon="9.12352">
        <ele>1294.6</ele>
      </trkpt>
      <trkpt lat="42.1392" lon="9.12382">
        <ele>1319</ele>
      </trkpt>
      <trkpt lat="42.13998" lon="9.12275">
        <ele>1345.1</ele>
      </trkpt>
      <trkpt lat="42.14003" lon="9.12252">
        <ele>1348.4</ele>
      </trkpt>
      <trkpt lat="42.14051" lon="9.12155">
        <ele>1366.9</ele>
      </trkpt>
      <trkpt lat="42.1407" lon="9.12073">
        <ele>1372.1</ele>
      </trkpt>
      <trkpt lat="42.14092" lon="9.11953">
        <ele>1391.3</ele>
      </trkpt>
      <trkpt lat="42.14118" lon="9.11949">
        <ele>1396.3</ele>
      </trkpt>
      <trkpt lat="42.14118" lon="9.11921">
        <ele>1396.5</ele>
      </trkpt>
      <trkpt lat="42.14146" lon="9.11867">
        <ele>1414.7</ele>
      </trkpt>
      <trkpt lat="42.14156" lon="9.11805">
        <ele>1430.5</ele>
      </trkpt>
      <trkpt lat="42.1417" lon="9.11805">
        <ele>1450.1</ele>
      </trkpt>
      <trkpt lat="42.14178" lon="9.11792">
        <ele>1453.8</ele>
      </trkpt>
      <trkpt lat="42.14191" lon="9.11799">
        <ele>1455.6</ele>
      </trkpt>
      <trkpt lat="42.14207" lon="9.11752">
        <ele>1462.3</ele>
      </trkpt>
      <trkpt lat="42.14221" lon="9.11747">
        <ele>1477.9</ele>
      </trkpt>
      <trkpt lat="42.14242" lon="9.11724">
        <ele>1482.1</ele>
      </trkpt>
      <trkpt lat="42.14245" lon="9.11661">
        <ele>1500.9</ele>
      </trkpt>
      <trkpt lat="42.14221" lon="9.11638">
        <ele>1503</ele>
      </trkpt>
      <trkpt lat="42.14226" lon="9.11616">
        <ele>1507.3</ele>
      </trkpt>
      <trkpt lat="42.14247" lon="9.11608">
        <ele>1512.1</ele>
      </trkpt>
      <trkpt lat="42.14235" lon="9.11586">
        <ele>1516.4</ele>
      </trkpt>
      <trkpt lat="42.14212" lon="9.1158">
        <ele>1523.5</ele>
      </trkpt>
      <trkpt lat="42.14245" lon="9.1149">
        <ele>1543.9</ele>
      </trkpt>
      <trkpt lat="42.14269" lon="9.11483">
        <ele>1561</ele>
      </trkpt>
      <trkpt lat="42.14288" lon="9.11434">
        <ele>1572.7</ele>
      </trkpt>
      <trkpt lat="42.14302" lon="9.11376">
        <ele>1601.5</ele>
      </trkpt>
      <trkpt lat="42.14318" lon="9.11363">
        <ele>1607.9</ele>
      </trkpt>
      <trkpt lat="42.14305" lon="9.11322">
        <ele>1630.6</ele>
      </trkpt>
      <trkpt lat="42.14313" lon="9.11299">
        <ele>1634.5</ele>
      </trkpt>
      <trkpt lat="42.14305" lon="9.11277">
        <ele>1637.7</ele>
      </trkpt>
      <trkpt lat="42.14336" lon="9.11271">
        <ele>1660.9</ele>
      </trkpt>
      <trkpt lat="42.14344" lon="9.11252">
        <ele>1661.5</ele>
      </trkpt>
      <trkpt lat="42.14312" lon="9.11207">
        <ele>1665.5</ele>
      </trkpt>
      <trkpt lat="42.14312" lon="9.11179">
        <ele>1672.1</ele>
      </trkpt>
      <trkpt lat="42.14296" lon="9.11138">
        <ele>1693.4</ele>
      </trkpt>
      <trkpt lat="42.14239" lon="9.1111">
        <ele>1681.7</ele>
      </trkpt>
      <trkpt lat="42.14248" lon="9.11097">
        <ele>1689.7</ele>
      </trkpt>
      <trkpt lat="42.14235" lon="9.11052">
        <ele>1709</ele>
      </trkpt>
      <trkpt lat="42.1424" lon="9.11026">
        <ele>1717.4</ele>
      </trkpt>
      <trkpt lat="42.14253" lon="9.11028">
        <ele>1729.7</ele>
      </trkpt>
      <trkpt lat="42.1427" lon="9.11005">
        <ele>1734</ele>
      </trkpt>
      <trkpt lat="42.14255" lon="9.1097">
        <ele>1755.9</ele>
      </trkpt>
      <trkpt lat="42.14296" lon="9.10936">
        <ele>1768.8</ele>
      </trkpt>
      <trkpt lat="42.14331" lon="9.10943">
        <ele>1773.5</ele>
      </trkpt>
      <trkpt lat="42.14329" lon="9.10919">
        <ele>1786.4</ele>
      </trkpt>
      <trkpt lat="42.14347" lon="9.10923">
        <ele>1796.4</ele>
      </trkpt>
      <trkpt lat="42.1435" lon="9.10902">
        <ele>1816.1</ele>
      </trkpt>
      <trkpt lat="42.14366" lon="9.10908">
        <ele>1823.3</ele>
      </trkpt>
      <trkpt lat="42.14371" lon="9.10889">
        <ele>1829.1</ele>
      </trkpt>
      <trkpt lat="42.14383" lon="9.10891">
        <ele>1833</ele>
      </trkpt>
      <trkpt lat="42.14374" lon="9.10872">
        <ele>1833.5</ele>
      </trkpt>
      <trkpt lat="42.14383" lon="9.10848">
        <ele>1841.5</ele>
      </trkpt>
      <trkpt lat="42.14369" lon="9.10827">
        <ele>1854.7</ele>
      </trkpt>
      <trkpt lat="42.1439" lon="9.10818">
        <ele>1863.2</ele>
      </trkpt>
      <trkpt lat="42.14391" lon="9.10805">
        <ele>1864.2</ele>
      </trkpt>
      <trkpt lat="42.14374" lon="9.1079">
        <ele>1861.4</ele>
      </trkpt>
      <trkpt lat="42.14375" lon="9.10664">
        <ele>1894.7</ele>
      </trkpt>
      <trkpt lat="42.14391" lon="9.10672">
        <ele>1888.2</ele>
      </trkpt>
      <trkpt lat="42.14395" lon="9.10631">
        <ele>1900.7</ele>
      </trkpt>
      <trkpt lat="42.14375" lon="9.10563">
        <ele>1920.9</ele>
      </trkpt>
      <trkpt lat="42.14385" lon="9.10556">
        <ele>1922.6</ele>
      </trkpt>
      <trkpt lat="42.1438" lon="9.10533">
        <ele>1926.1</ele>
      </trkpt>
      <trkpt lat="42.14391" lon="9.10533">
        <ele>1926.9</ele>
      </trkpt>
      <trkpt lat="42.14391" lon="9.10516">
        <ele>1929.9</ele>
      </trkpt>
      <trkpt lat="42.1438" lon="9.10488">
        <ele>1949.5</ele>
      </trkpt>
      <trkpt lat="42.1435" lon="9.10479">
        <ele>1948.2</ele>
      </trkpt>
      <trkpt lat="42.14288" lon="9.1041">
        <ele>1982.8</ele>
      </trkpt>
      <trkpt lat="42.14285" lon="9.10391">
        <ele>1987.1</ele>
      </trkpt>
      <trkpt lat="42.14245" lon="9.10383">
        <ele>1993.6</ele>
      </trkpt>
      <trkpt lat="42.14202" lon="9.10402">
        <ele>1996.4</ele>
      </trkpt>
      <trkpt lat="42.14172" lon="9.10449">
        <ele>1975.8</ele>
      </trkpt>
      <trkpt lat="42.14134" lon="9.10449">
        <ele>2015.3</ele>
      </trkpt>
      <trkpt lat="42.14107" lon="9.10466">
        <ele>2024.4</ele>
      </trkpt>
      <trkpt lat="42.14" lon="9.10383">
        <ele>2147.2</ele>
      </trkpt>
      <trkpt lat="42.13994" lon="9.10368">
        <ele>2148.8</ele>
      </trkpt>
      <trkpt lat="42.13978" lon="9.10372">
        <ele>2149.9</ele>
      </trkpt>
      <trkpt lat="42.13925" lon="9.10353">
        <ele>2161.1</ele>
      </trkpt>
      <trkpt lat="42.13916" lon="9.1032">
        <ele>2176.4</ele>
      </trkpt>
      <trkpt lat="42.13889" lon="9.10292">
        <ele>2180.2</ele>
      </trkpt>
      <trkpt lat="42.1389" lon="9.10247">
        <ele>2204.1</ele>
      </trkpt>
      <trkpt lat="42.13912" lon="9.10243">
        <ele>2204.3</ele>
      </trkpt>
      <trkpt lat="42.13908" lon="9.10213">
        <ele>2209.7</ele>
      </trkpt>
      <trkpt lat="42.13882" lon="9.10194">
        <ele>2211</ele>
      </trkpt>
      <trkpt lat="42.13849" lon="9.10078">
        <ele>2250.7</ele>
      </trkpt>
      <trkpt lat="42.13817" lon="9.10044">
        <ele>2260.5</ele>
      </trkpt>
      <trkpt lat="42.13806" lon="9.10009">
        <ele>2266.8</ele>
      </trkpt>
      <trkpt lat="42.1371" lon="9.09992">
        <ele>2299.1</ele>
      </trkpt>
      <trkpt lat="42.13699" lon="9.09977">
        <ele>2301.9</ele>
      </trkpt>
      <trkpt lat="42.13709" lon="9.09964">
        <ele>2304.6</ele>
      </trkpt>
      <trkpt lat="42.13656" lon="9.09951">
        <ele>2299.4</ele>
      </trkpt>
      <trkpt lat="42.13653" lon="9.09913">
        <ele>2309.1</ele>
      </trkpt>
      <trkpt lat="42.13632" lon="9.09893">
        <ele>2296.9</ele>
      </trkpt>
      <trkpt lat="42.13636" lon="9.09878">
        <ele>2296.7</ele>
      </trkpt>
      <trkpt lat="42.13624" lon="9.09863">
        <ele>2291.9</ele>
      </trkpt>
      <trkpt lat="42.13656" lon="9.09704">
        <ele>2263.6</ele>
      </trkpt>
      <trkpt lat="42.13647" lon="9.09677">
        <ele>2259.5</ele>
      </trkpt>
      <trkpt lat="42.13663" lon="9.09608">
        <ele>2239.3</ele>
      </trkpt>
      <trkpt lat="42.13639" lon="9.09546">
        <ele>2232.6</ele>
      </trkpt>
      <trkpt lat="42.13639" lon="9.09466">
        <ele>2235.2</ele>
      </trkpt>
      <trkpt lat="42.13722" lon="9.09318">
        <ele>2197.9</ele>
      </trkpt>
      <trkpt lat="42.1372" lon="9.09269">
        <ele>2192.7</ele>
      </trkpt>
      <trkpt lat="42.13796" lon="9.09166">
        <ele>2131.6</ele>
      </trkpt>
      <trkpt lat="42.13819" lon="9.09091">
        <ele>2128.6</ele>
      </trkpt>
      <trkpt lat="42.13817" lon="9.09059">
        <ele>2106.6</ele>
      </trkpt>
      <trkpt lat="42.13834" lon="9.08973">
        <ele>2088.5</ele>
      </trkpt>
      <trkpt lat="42.13858" lon="9.08958">
        <ele>2088.6</ele>
      </trkpt>
      <trkpt lat="42.13857" lon="9.08934">
        <ele>2080.9</ele>
      </trkpt>
      <trkpt lat="42.13877" lon="9.08896">
        <ele>2073.7</ele>
      </trkpt>
      <trkpt lat="42.13804" lon="9.0869">
        <ele>2027.7</ele>
      </trkpt>
      <trkpt lat="42.13796" lon="9.08569">
        <ele>2020.9</ele>
      </trkpt>
      <trkpt lat="42.13784" lon="9.08492">
        <ele>2010.7</ele>
      </trkpt>
      <trkpt lat="42.13737" lon="9.08434">
        <ele>1996.6</ele>
      </trkpt>
      <trkpt lat="42.13725" lon="9.08419">
        <ele>1993.8</ele>
      </trkpt>
      <trkpt lat="42.13721" lon="9.08411">
        <ele>1998</ele>
      </trkpt>
      <trkpt lat="42.1372" lon="9.08392">
        <ele>1997.8</ele>
      </trkpt>
      <trkpt lat="42.13712" lon="9.08325">
        <ele>2005.8</ele>
      </trkpt>
      <trkpt lat="42.13725" lon="9.08229">
        <ele>2017.2</ele>
      </trkpt>
      <trkpt lat="42.13701" lon="9.08175">
        <ele>2013.9</ele>
      </trkpt>
      <trkpt lat="42.13674" lon="9.07909">
        <ele>2044.6</ele>
      </trkpt>
      <trkpt lat="42.13682" lon="9.07799">
        <ele>2058.1</ele>
      </trkpt>
      <trkpt lat="42.13666" lon="9.07731">
        <ele>2083.8</ele>
      </trkpt>
      <trkpt lat="42.1368" lon="9.07724">
        <ele>2071.3</ele>
      </trkpt>
      <trkpt lat="42.13684" lon="9.07699">
        <ele>2071.5</ele>
      </trkpt>
      <trkpt lat="42.13712" lon="9.07613">
        <ele>2053.3</ele>
      </trkpt>
      <trkpt lat="42.13749" lon="9.07598">
        <ele>2040.5</ele>
      </trkpt>
      <trkpt lat="42.13749" lon="9.07583">
        <ele>2028.5</ele>
      </trkpt>
      <trkpt lat="42.13771" lon="9.07566">
        <ele>2004.1</ele>
      </trkpt>
      <trkpt lat="42.13796" lon="9.07579">
        <ele>1998.4</ele>
      </trkpt>
      <trkpt lat="42.13818" lon="9.07583">
        <ele>2006.8</ele>
      </trkpt>
      <trkpt lat="42.13831" lon="9.07575">
        <ele>1995.5</ele>
      </trkpt>
      <trkpt lat="42.13853" lon="9.07579">
        <ele>1979.4</ele>
      </trkpt>
      <trkpt lat="42.1386" lon="9.07571">
        <ele>1974.8</ele>
      </trkpt>
      <trkpt lat="42.1388" lon="9.0756">
        <ele>1967.3</ele>
      </trkpt>
      <trkpt lat="42.1391" lon="9.07581">
        <ele>1961.9</ele>
      </trkpt>
      <trkpt lat="42.13916" lon="9.07558">
        <ele>1962.2</ele>
      </trkpt>
      <trkpt lat="42.13965" lon="9.07545">
        <ele>1939.7</ele>
      </trkpt>
      <trkpt lat="42.14004" lon="9.07539">
        <ele>1920.2</ele>
      </trkpt>
      <trkpt lat="42.14014" lon="9.07512">
        <ele>1922.5</ele>
      </trkpt>
      <trkpt lat="42.14065" lon="9.07493">
        <ele>1908.8</ele>
      </trkpt>
      <trkpt lat="42.14132" lon="9.07443">
        <ele>1883.8</ele>
      </trkpt>
      <trkpt lat="42.14196" lon="9.07447">
        <ele>1860.3</ele>
      </trkpt>
      <trkpt lat="42.14206" lon="9.07422">
        <ele>1859.2</ele>
      </trkpt>
      <trkpt lat="42.14239" lon="9.07405">
        <ele>1853.2</ele>
      </trkpt>
      <trkpt lat="42.14271" lon="9.07362">
        <ele>1843.7</ele>
      </trkpt>
      <trkpt lat="42.14324" lon="9.07367">
        <ele>1839</ele>
      </trkpt>
      <trkpt lat="42.14457" lon="9.07313">
        <ele>1811.4</ele>
      </trkpt>
      <trkpt lat="42.14554" lon="9.07307">
        <ele>1776.5</ele>
      </trkpt>
      <trkpt lat="42.14602" lon="9.07309">
        <ele>1745.1</ele>
      </trkpt>
      <trkpt lat="42.14619" lon="9.07267">
        <ele>1740.1</ele>
      </trkpt>
      <trkpt lat="42.14668" lon="9.07238">
        <ele>1705.8</ele>
      </trkpt>
      <trkpt lat="42.14682" lon="9.07219">
        <ele>1694.1</ele>
      </trkpt>
      <trkpt lat="42.14714" lon="9.07205">
        <ele>1684.4</ele>
      </trkpt>
      <trkpt lat="42.14746" lon="9.07151">
        <ele>1663.4</ele>
      </trkpt>
      <trkpt lat="42.1487" lon="9.07105">
        <ele>1610</ele>
      </trkpt>
      <trkpt lat="42.14909" lon="9.07071">
        <ele>1595.8</ele>
      </trkpt>
      <trkpt lat="42.14972" lon="9.07048">
        <ele>1575.1</ele>
      </trkpt>
      <trkpt lat="42.14997" lon="9.07029">
        <ele>1570.2</ele>
      </trkpt>
      <trkpt lat="42.15032" lon="9.07054">
        <ele>1549.9</ele>
      </trkpt>
      <trkpt lat="42.15087" lon="9.07052">
        <ele>1519.9</ele>
      </trkpt>
      <trkpt lat="42.15118" lon="9.07068">
        <ele>1516.9</ele>
      </trkpt>
      <trkpt lat="42.15153" lon="9.07066">
        <ele>1510.9</ele>
      </trkpt>
      <trkpt lat="42.15217" lon="9.0715">
        <ele>1490.8</ele>
      </trkpt>
      <trkpt lat="42.15252" lon="9.07155">
        <ele>1477</ele>
      </trkpt>
      <trkpt lat="42.15312" lon="9.07137">
        <ele>1470.5</ele>
      </trkpt>
      <trkpt lat="42.15365" lon="9.07177">
        <ele>1453.8</ele>
      </trkpt>
      <trkpt lat="42.15246" lon="9.07255">
        <ele>1445.6</ele>
      </trkpt>
      <trkpt lat="42.15238" lon="9.07265">
        <ele>1443.5</ele>
      </trkpt>
      <trkpt lat="42.15242" lon="9.0728">
        <ele>1440.5</ele>
      </trkpt>
      <trkpt lat="42.15262" lon="9.073">
        <ele>1425.2</ele>
      </trkpt>
      <trkpt lat="42.15295" lon="9.07319">
        <ele>1420.3</ele>
      </trkpt>
      <trkpt lat="42.15299" lon="9.0733">
        <ele>1418.5</ele>
      </trkpt>
      <trkpt lat="42.15298" lon="9.07354">
        <ele>1400.7</ele>
      </trkpt>
      <trkpt lat="42.15314" lon="9.07383">
        <ele>1396.2</ele>
      </trkpt>
      <trkpt lat="42.15325" lon="9.07394">
        <ele>1393.4</ele>
      </trkpt>
    </trkseg>
  </trk>
  <trk>
    <name><![CDATA[GR20 Nord en 6 jours_2]]></name>
    <trkseg>
      <trkpt lat="42.1533" lon="9.07407">
        <ele>1388.7</ele>
      </trkpt>
      <trkpt lat="42.15318" lon="9.07383">
        <ele>1395.9</ele>
      </trkpt>
      <trkpt lat="42.15298" lon="9.07355">
        <ele>1400.5</ele>
      </trkpt>
      <trkpt lat="42.15299" lon="9.07329">
        <ele>1418.6</ele>
      </trkpt>
      <trkpt lat="42.15296" lon="9.07318">
        <ele>1420.3</ele>
      </trkpt>
      <trkpt lat="42.15272" lon="9.07303">
        <ele>1424.2</ele>
      </trkpt>
      <trkpt lat="42.15255" lon="9.07295">
        <ele>1426.6</ele>
      </trkpt>
      <trkpt lat="42.15239" lon="9.07273">
        <ele>1442</ele>
      </trkpt>
      <trkpt lat="42.1524" lon="9.07259">
        <ele>1444.5</ele>
      </trkpt>
      <trkpt lat="42.15365" lon="9.07177">
        <ele>1453.8</ele>
      </trkpt>
      <trkpt lat="42.15452" lon="9.07185">
        <ele>1449.4</ele>
      </trkpt>
      <trkpt lat="42.15507" lon="9.07207">
        <ele>1446.7</ele>
      </trkpt>
      <trkpt lat="42.15539" lon="9.0722">
        <ele>1445.1</ele>
      </trkpt>
      <trkpt lat="42.15553" lon="9.07207">
        <ele>1445.1</ele>
      </trkpt>
      <trkpt lat="42.15555" lon="9.07126">
        <ele>1440.2</ele>
      </trkpt>
      <trkpt lat="42.15561" lon="9.07079">
        <ele>1427.9</ele>
      </trkpt>
      <trkpt lat="42.15576" lon="9.07018">
        <ele>1424.5</ele>
      </trkpt>
      <trkpt lat="42.15591" lon="9.07004">
        <ele>1423.5</ele>
      </trkpt>
      <trkpt lat="42.15613" lon="9.06949">
        <ele>1428.9</ele>
      </trkpt>
      <trkpt lat="42.1566" lon="9.06879">
        <ele>1443.5</ele>
      </trkpt>
      <trkpt lat="42.15757" lon="9.06838">
        <ele>1484.4</ele>
      </trkpt>
      <trkpt lat="42.15771" lon="9.06804">
        <ele>1503.4</ele>
      </trkpt>
      <trkpt lat="42.15811" lon="9.06783">
        <ele>1512.4</ele>
      </trkpt>
      <trkpt lat="42.15845" lon="9.06711">
        <ele>1552.7</ele>
      </trkpt>
      <trkpt lat="42.1593" lon="9.06685">
        <ele>1582.2</ele>
      </trkpt>
      <trkpt lat="42.16045" lon="9.06587">
        <ele>1629.4</ele>
      </trkpt>
      <trkpt lat="42.16251" lon="9.06581">
        <ele>1696.4</ele>
      </trkpt>
      <trkpt lat="42.16374" lon="9.06553">
        <ele>1740.1</ele>
      </trkpt>
      <trkpt lat="42.16444" lon="9.06549">
        <ele>1768.4</ele>
      </trkpt>
      <trkpt lat="42.16466" lon="9.0654">
        <ele>1772.6</ele>
      </trkpt>
      <trkpt lat="42.16486" lon="9.06539">
        <ele>1775.8</ele>
      </trkpt>
      <trkpt lat="42.165" lon="9.06549">
        <ele>1795.2</ele>
      </trkpt>
      <trkpt lat="42.16564" lon="9.06546">
        <ele>1804.5</ele>
      </trkpt>
      <trkpt lat="42.16584" lon="9.06538">
        <ele>1823.2</ele>
      </trkpt>
      <trkpt lat="42.16616" lon="9.06509">
        <ele>1826.7</ele>
      </trkpt>
      <trkpt lat="42.16625" lon="9.0649">
        <ele>1832.1</ele>
      </trkpt>
      <trkpt lat="42.1663" lon="9.0646">
        <ele>1833.5</ele>
      </trkpt>
      <trkpt lat="42.16666" lon="9.06411">
        <ele>1847</ele>
      </trkpt>
      <trkpt lat="42.16684" lon="9.06407">
        <ele>1852.1</ele>
      </trkpt>
      <trkpt lat="42.16716" lon="9.06124">
        <ele>1885.8</ele>
      </trkpt>
      <trkpt lat="42.16727" lon="9.06086">
        <ele>1890.1</ele>
      </trkpt>
      <trkpt lat="42.16809" lon="9.05987">
        <ele>1896.8</ele>
      </trkpt>
      <trkpt lat="42.16841" lon="9.059">
        <ele>1905.8</ele>
      </trkpt>
      <trkpt lat="42.16865" lon="9.05744">
        <ele>1929.7</ele>
      </trkpt>
      <trkpt lat="42.16864" lon="9.05527">
        <ele>1942</ele>
      </trkpt>
      <trkpt lat="42.16936" lon="9.05286">
        <ele>1930.4</ele>
      </trkpt>
      <trkpt lat="42.16949" lon="9.05268">
        <ele>1928.3</ele>
      </trkpt>
      <trkpt lat="42.16978" lon="9.05138">
        <ele>1915.7</ele>
      </trkpt>
      <trkpt lat="42.17011" lon="9.05165">
        <ele>1913.4</ele>
      </trkpt>
      <trkpt lat="42.17105" lon="9.0504">
        <ele>1880.7</ele>
      </trkpt>
      <trkpt lat="42.17107" lon="9.05014">
        <ele>1884.5</ele>
      </trkpt>
      <trkpt lat="42.17119" lon="9.05014">
        <ele>1879.9</ele>
      </trkpt>
      <trkpt lat="42.17172" lon="9.04946">
        <ele>1860.8</ele>
      </trkpt>
      <trkpt lat="42.17207" lon="9.04931">
        <ele>1858.6</ele>
      </trkpt>
      <trkpt lat="42.17242" lon="9.04896">
        <ele>1856</ele>
      </trkpt>
      <trkpt lat="42.17283" lon="9.04883">
        <ele>1862.9</ele>
      </trkpt>
      <trkpt lat="42.17306" lon="9.04861">
        <ele>1866.3</ele>
      </trkpt>
      <trkpt lat="42.17365" lon="9.0484">
        <ele>1889.9</ele>
      </trkpt>
      <trkpt lat="42.17385" lon="9.04846">
        <ele>1896.1</ele>
      </trkpt>
      <trkpt lat="42.17417" lon="9.04849">
        <ele>1906.6</ele>
      </trkpt>
      <trkpt lat="42.17425" lon="9.04831">
        <ele>1925.5</ele>
      </trkpt>
      <trkpt lat="42.17523" lon="9.04822">
        <ele>1973.7</ele>
      </trkpt>
      <trkpt lat="42.17547" lon="9.04811">
        <ele>1977.8</ele>
      </trkpt>
      <trkpt lat="42.17629" lon="9.04837">
        <ele>1987.7</ele>
      </trkpt>
      <trkpt lat="42.17768" lon="9.04924">
        <ele>1988.5</ele>
      </trkpt>
      <trkpt lat="42.17812" lon="9.04909">
        <ele>1984.6</ele>
      </trkpt>
      <trkpt lat="42.17886" lon="9.04863">
        <ele>1968.9</ele>
      </trkpt>
      <trkpt lat="42.17938" lon="9.04808">
        <ele>1954.5</ele>
      </trkpt>
      <trkpt lat="42.1803" lon="9.04773">
        <ele>1941.3</ele>
      </trkpt>
      <trkpt lat="42.1804" lon="9.04779">
        <ele>1940.4</ele>
      </trkpt>
      <trkpt lat="42.18073" lon="9.04764">
        <ele>1939.1</ele>
      </trkpt>
      <trkpt lat="42.18163" lon="9.04763">
        <ele>1938.4</ele>
      </trkpt>
      <trkpt lat="42.1822" lon="9.04793">
        <ele>1941.2</ele>
      </trkpt>
      <trkpt lat="42.18312" lon="9.04819">
        <ele>1945.4</ele>
      </trkpt>
      <trkpt lat="42.18355" lon="9.04845">
        <ele>1942</ele>
      </trkpt>
      <trkpt lat="42.18372" lon="9.04842">
        <ele>1941.4</ele>
      </trkpt>
      <trkpt lat="42.18411" lon="9.04879">
        <ele>1940.2</ele>
      </trkpt>
      <trkpt lat="42.18557" lon="9.0493">
        <ele>1909.3</ele>
      </trkpt>
      <trkpt lat="42.18695" lon="9.05055">
        <ele>1880.5</ele>
      </trkpt>
      <trkpt lat="42.18843" lon="9.05106">
        <ele>1858.6</ele>
      </trkpt>
      <trkpt lat="42.1887" lon="9.05091">
        <ele>1856.8</ele>
      </trkpt>
      <trkpt lat="42.18884" lon="9.05095">
        <ele>1855.6</ele>
      </trkpt>
      <trkpt lat="42.18899" lon="9.05089">
        <ele>1855.5</ele>
      </trkpt>
      <trkpt lat="42.18992" lon="9.05089">
        <ele>1842.2</ele>
      </trkpt>
      <trkpt lat="42.19051" lon="9.05046">
        <ele>1825</ele>
      </trkpt>
      <trkpt lat="42.19067" lon="9.05046">
        <ele>1824</ele>
      </trkpt>
      <trkpt lat="42.19105" lon="9.05003">
        <ele>1812.4</ele>
      </trkpt>
      <trkpt lat="42.19123" lon="9.05001">
        <ele>1808.5</ele>
      </trkpt>
      <trkpt lat="42.19156" lon="9.04962">
        <ele>1804.5</ele>
      </trkpt>
      <trkpt lat="42.19161" lon="9.04945">
        <ele>1803.8</ele>
      </trkpt>
      <trkpt lat="42.19207" lon="9.04926">
        <ele>1790.8</ele>
      </trkpt>
      <trkpt lat="42.19226" lon="9.04926">
        <ele>1787.2</ele>
      </trkpt>
      <trkpt lat="42.19229" lon="9.04915">
        <ele>1780.9</ele>
      </trkpt>
      <trkpt lat="42.19265" lon="9.04905">
        <ele>1775.5</ele>
      </trkpt>
      <trkpt lat="42.19277" lon="9.04905">
        <ele>1773.4</ele>
      </trkpt>
      <trkpt lat="42.19294" lon="9.04901">
        <ele>1771.4</ele>
      </trkpt>
      <trkpt lat="42.19361" lon="9.04885">
        <ele>1779.4</ele>
      </trkpt>
      <trkpt lat="42.19368" lon="9.04902">
        <ele>1780.3</ele>
      </trkpt>
      <trkpt lat="42.19469" lon="9.04956">
        <ele>1781.2</ele>
      </trkpt>
      <trkpt lat="42.19533" lon="9.04934">
        <ele>1798.8</ele>
      </trkpt>
      <trkpt lat="42.19595" lon="9.04937">
        <ele>1807.5</ele>
      </trkpt>
      <trkpt lat="42.19655" lon="9.04885">
        <ele>1841.2</ele>
      </trkpt>
      <trkpt lat="42.19682" lon="9.04883">
        <ele>1856.7</ele>
      </trkpt>
      <trkpt lat="42.19732" lon="9.04907">
        <ele>1863.9</ele>
      </trkpt>
      <trkpt lat="42.19746" lon="9.04947">
        <ele>1845.2</ele>
      </trkpt>
      <trkpt lat="42.1974" lon="9.05001">
        <ele>1838.6</ele>
      </trkpt>
      <trkpt lat="42.19781" lon="9.05093">
        <ele>1842.8</ele>
      </trkpt>
      <trkpt lat="42.19776" lon="9.05123">
        <ele>1841.5</ele>
      </trkpt>
      <trkpt lat="42.19795" lon="9.05132">
        <ele>1844.3</ele>
      </trkpt>
      <trkpt lat="42.19814" lon="9.05194">
        <ele>1839.1</ele>
      </trkpt>
      <trkpt lat="42.19843" lon="9.05143">
        <ele>1864.4</ele>
      </trkpt>
      <trkpt lat="42.19846" lon="9.05115">
        <ele>1868</ele>
      </trkpt>
      <trkpt lat="42.1987" lon="9.05087">
        <ele>1872.4</ele>
      </trkpt>
      <trkpt lat="42.19873" lon="9.05048">
        <ele>1887.1</ele>
      </trkpt>
      <trkpt lat="42.19864" lon="9.05033">
        <ele>1887.4</ele>
      </trkpt>
      <trkpt lat="42.19887" lon="9.04995">
        <ele>1909.4</ele>
      </trkpt>
      <trkpt lat="42.199" lon="9.04949">
        <ele>1917.3</ele>
      </trkpt>
      <trkpt lat="42.19903" lon="9.04922">
        <ele>1926.5</ele>
      </trkpt>
      <trkpt lat="42.19898" lon="9.04894">
        <ele>1936.2</ele>
      </trkpt>
      <trkpt lat="42.1991" lon="9.04864">
        <ele>1942.5</ele>
      </trkpt>
      <trkpt lat="42.19887" lon="9.04848">
        <ele>1941.2</ele>
      </trkpt>
      <trkpt lat="42.19895" lon="9.04834">
        <ele>1945.6</ele>
      </trkpt>
      <trkpt lat="42.19919" lon="9.04824">
        <ele>1970.2</ele>
      </trkpt>
      <trkpt lat="42.19923" lon="9.04807">
        <ele>1980.5</ele>
      </trkpt>
      <trkpt lat="42.1992" lon="9.04779">
        <ele>1986.6</ele>
      </trkpt>
      <trkpt lat="42.19929" lon="9.04775">
        <ele>1987.9</ele>
      </trkpt>
      <trkpt lat="42.19927" lon="9.04759">
        <ele>1988.1</ele>
      </trkpt>
      <trkpt lat="42.19924" lon="9.04744">
        <ele>1993.9</ele>
      </trkpt>
      <trkpt lat="42.19926" lon="9.04735">
        <ele>1999</ele>
      </trkpt>
      <trkpt lat="42.19957" lon="9.04728">
        <ele>2009.4</ele>
      </trkpt>
      <trkpt lat="42.19957" lon="9.04721">
        <ele>2010.3</ele>
      </trkpt>
      <trkpt lat="42.19995" lon="9.04717">
        <ele>2016.8</ele>
      </trkpt>
      <trkpt lat="42.19994" lon="9.04709">
        <ele>2018</ele>
      </trkpt>
      <trkpt lat="42.20009" lon="9.04698">
        <ele>2046.8</ele>
      </trkpt>
      <trkpt lat="42.19999" lon="9.04668">
        <ele>2038.8</ele>
      </trkpt>
      <trkpt lat="42.19997" lon="9.04646">
        <ele>2027.1</ele>
      </trkpt>
      <trkpt lat="42.20003" lon="9.04626">
        <ele>2048.5</ele>
      </trkpt>
      <trkpt lat="42.20031" lon="9.04601">
        <ele>2050.8</ele>
      </trkpt>
      <trkpt lat="42.20047" lon="9.04572">
        <ele>2044.8</ele>
      </trkpt>
      <trkpt lat="42.20059" lon="9.04572">
        <ele>2050</ele>
      </trkpt>
      <trkpt lat="42.2007" lon="9.04562">
        <ele>2051.2</ele>
      </trkpt>
      <trkpt lat="42.20078" lon="9.04562">
        <ele>2053.3</ele>
      </trkpt>
      <trkpt lat="42.20091" lon="9.04552">
        <ele>2074.9</ele>
      </trkpt>
      <trkpt lat="42.20104" lon="9.04532">
        <ele>2073.6</ele>
      </trkpt>
      <trkpt lat="42.20177" lon="9.04471">
        <ele>2083.5</ele>
      </trkpt>
      <trkpt lat="42.20183" lon="9.0447">
        <ele>2083.8</ele>
      </trkpt>
      <trkpt lat="42.20207" lon="9.04455">
        <ele>2084.4</ele>
      </trkpt>
      <trkpt lat="42.2022" lon="9.04438">
        <ele>2083.7</ele>
      </trkpt>
      <trkpt lat="42.20229" lon="9.0444">
        <ele>2085.3</ele>
      </trkpt>
      <trkpt lat="42.20232" lon="9.04433">
        <ele>2084.4</ele>
      </trkpt>
      <trkpt lat="42.20285" lon="9.04407">
        <ele>2091.9</ele>
      </trkpt>
      <trkpt lat="42.20298" lon="9.04407">
        <ele>2096.6</ele>
      </trkpt>
      <trkpt lat="42.2032" lon="9.04377">
        <ele>2096.4</ele>
      </trkpt>
      <trkpt lat="42.20325" lon="9.0436">
        <ele>2094.3</ele>
      </trkpt>
      <trkpt lat="42.20341" lon="9.04348">
        <ele>2113.7</ele>
      </trkpt>
      <trkpt lat="42.20353" lon="9.04348">
        <ele>2119.3</ele>
      </trkpt>
      <trkpt lat="42.20372" lon="9.04315">
        <ele>2112.9</ele>
      </trkpt>
      <trkpt lat="42.2039" lon="9.04311">
        <ele>2119</ele>
      </trkpt>
      <trkpt lat="42.20401" lon="9.04292">
        <ele>2118.6</ele>
      </trkpt>
      <trkpt lat="42.20401" lon="9.04283">
        <ele>2117.9</ele>
      </trkpt>
      <trkpt lat="42.20408" lon="9.04278">
        <ele>2119.3</ele>
      </trkpt>
      <trkpt lat="42.20424" lon="9.04252">
        <ele>2137.6</ele>
      </trkpt>
      <trkpt lat="42.20458" lon="9.04167">
        <ele>2148.5</ele>
      </trkpt>
      <trkpt lat="42.20465" lon="9.04131">
        <ele>2143.9</ele>
      </trkpt>
      <trkpt lat="42.20473" lon="9.04122">
        <ele>2145.5</ele>
      </trkpt>
      <trkpt lat="42.20477" lon="9.04098">
        <ele>2146.9</ele>
      </trkpt>
      <trkpt lat="42.20495" lon="9.04083">
        <ele>2154.5</ele>
      </trkpt>
      <trkpt lat="42.20512" lon="9.0405">
        <ele>2170.2</ele>
      </trkpt>
      <trkpt lat="42.20517" lon="9.04054">
        <ele>2171.6</ele>
      </trkpt>
      <trkpt lat="42.20536" lon="9.04021">
        <ele>2172.8</ele>
      </trkpt>
      <trkpt lat="42.20543" lon="9.04017">
        <ele>2175.4</ele>
      </trkpt>
      <trkpt lat="42.20588" lon="9.03926">
        <ele>2179.6</ele>
      </trkpt>
      <trkpt lat="42.20634" lon="9.03875">
        <ele>2181.9</ele>
      </trkpt>
      <trkpt lat="42.20638" lon="9.03875">
        <ele>2182.7</ele>
      </trkpt>
      <trkpt lat="42.20665" lon="9.03796">
        <ele>2179.5</ele>
      </trkpt>
      <trkpt lat="42.20672" lon="9.03793">
        <ele>2184.5</ele>
      </trkpt>
      <trkpt lat="42.20676" lon="9.03782">
        <ele>2184.6</ele>
      </trkpt>
      <trkpt lat="42.20673" lon="9.03769">
        <ele>2185.5</ele>
      </trkpt>
      <trkpt lat="42.20675" lon="9.03755">
        <ele>2186.7</ele>
      </trkpt>
      <trkpt lat="42.20692" lon="9.03741">
        <ele>2188.1</ele>
      </trkpt>
      <trkpt lat="42.20735" lon="9.03652">
        <ele>2192.3</ele>
      </trkpt>
      <trkpt lat="42.20746" lon="9.03644">
        <ele>2192.1</ele>
      </trkpt>
      <trkpt lat="42.20764" lon="9.03609">
        <ele>2175.3</ele>
      </trkpt>
      <trkpt lat="42.20764" lon="9.03598">
        <ele>2177</ele>
      </trkpt>
      <trkpt lat="42.20777" lon="9.03592">
        <ele>2173.8</ele>
      </trkpt>
      <trkpt lat="42.20787" lon="9.03536">
        <ele>2172.5</ele>
      </trkpt>
      <trkpt lat="42.20787" lon="9.03461">
        <ele>2170</ele>
      </trkpt>
      <trkpt lat="42.20782" lon="9.03448">
        <ele>2170.8</ele>
      </trkpt>
      <trkpt lat="42.20791" lon="9.03409">
        <ele>2167.7</ele>
      </trkpt>
      <trkpt lat="42.20798" lon="9.03352">
        <ele>2167.5</ele>
      </trkpt>
      <trkpt lat="42.20806" lon="9.03334">
        <ele>2163.7</ele>
      </trkpt>
      <trkpt lat="42.20799" lon="9.03286">
        <ele>2169.8</ele>
      </trkpt>
      <trkpt lat="42.20799" lon="9.0327">
        <ele>2169.2</ele>
      </trkpt>
      <trkpt lat="42.20808" lon="9.03249">
        <ele>2162.6</ele>
      </trkpt>
      <trkpt lat="42.20815" lon="9.03212">
        <ele>2163</ele>
      </trkpt>
      <trkpt lat="42.20814" lon="9.03187">
        <ele>2161.5</ele>
      </trkpt>
      <trkpt lat="42.20822" lon="9.0315">
        <ele>2157.9</ele>
      </trkpt>
      <trkpt lat="42.20818" lon="9.03091">
        <ele>2158.6</ele>
      </trkpt>
      <trkpt lat="42.2083" lon="9.03065">
        <ele>2158</ele>
      </trkpt>
      <trkpt lat="42.20838" lon="9.03016">
        <ele>2145.6</ele>
      </trkpt>
      <trkpt lat="42.20853" lon="9.02997">
        <ele>2137.5</ele>
      </trkpt>
      <trkpt lat="42.20874" lon="9.02974">
        <ele>2130.7</ele>
      </trkpt>
      <trkpt lat="42.20876" lon="9.02964">
        <ele>2128.9</ele>
      </trkpt>
      <trkpt lat="42.20885" lon="9.02958">
        <ele>2127.2</ele>
      </trkpt>
      <trkpt lat="42.20885" lon="9.02953">
        <ele>2126.3</ele>
      </trkpt>
      <trkpt lat="42.20903" lon="9.02946">
        <ele>2122.9</ele>
      </trkpt>
      <trkpt lat="42.20914" lon="9.02933">
        <ele>2117.2</ele>
      </trkpt>
      <trkpt lat="42.20909" lon="9.02923">
        <ele>2113.9</ele>
      </trkpt>
      <trkpt lat="42.20916" lon="9.02914">
        <ele>2105</ele>
      </trkpt>
      <trkpt lat="42.20907" lon="9.02909">
        <ele>2100.6</ele>
      </trkpt>
      <trkpt lat="42.20912" lon="9.02898">
        <ele>2097.2</ele>
      </trkpt>
      <trkpt lat="42.20904" lon="9.02895">
        <ele>2095.8</ele>
      </trkpt>
      <trkpt lat="42.20903" lon="9.02883">
        <ele>2091.1</ele>
      </trkpt>
      <trkpt lat="42.20912" lon="9.02879">
        <ele>2089.5</ele>
      </trkpt>
      <trkpt lat="42.20914" lon="9.02872">
        <ele>2086.3</ele>
      </trkpt>
      <trkpt lat="42.20923" lon="9.02865">
        <ele>2071.1</ele>
      </trkpt>
      <trkpt lat="42.2092" lon="9.02862">
        <ele>2069.6</ele>
      </trkpt>
      <trkpt lat="42.20926" lon="9.0286">
        <ele>2068.9</ele>
      </trkpt>
      <trkpt lat="42.20926" lon="9.0285">
        <ele>2065.1</ele>
      </trkpt>
      <trkpt lat="42.2093" lon="9.02844">
        <ele>2063.8</ele>
      </trkpt>
      <trkpt lat="42.20864" lon="9.02794">
        <ele>2050.3</ele>
      </trkpt>
      <trkpt lat="42.20847" lon="9.02803">
        <ele>2055.6</ele>
      </trkpt>
      <trkpt lat="42.20797" lon="9.02775">
        <ele>2068</ele>
      </trkpt>
      <trkpt lat="42.20786" lon="9.02763">
        <ele>2067.7</ele>
      </trkpt>
      <trkpt lat="42.20762" lon="9.02762">
        <ele>2068.4</ele>
      </trkpt>
      <trkpt lat="42.20758" lon="9.02752">
        <ele>2066.2</ele>
      </trkpt>
      <trkpt lat="42.20744" lon="9.02749">
        <ele>2065.1</ele>
      </trkpt>
      <trkpt lat="42.20725" lon="9.02697">
        <ele>2061.4</ele>
      </trkpt>
      <trkpt lat="42.20714" lon="9.02686">
        <ele>2062.3</ele>
      </trkpt>
      <trkpt lat="42.2071" lon="9.02672">
        <ele>2061.5</ele>
      </trkpt>
      <trkpt lat="42.20702" lon="9.02654">
        <ele>2043.8</ele>
      </trkpt>
      <trkpt lat="42.2069" lon="9.02648">
        <ele>2046.8</ele>
      </trkpt>
      <trkpt lat="42.20684" lon="9.02596">
        <ele>2037.3</ele>
      </trkpt>
      <trkpt lat="42.20669" lon="9.02582">
        <ele>2035.4</ele>
      </trkpt>
      <trkpt lat="42.20655" lon="9.02559">
        <ele>2032</ele>
      </trkpt>
      <trkpt lat="42.20602" lon="9.02559">
        <ele>2038.5</ele>
      </trkpt>
      <trkpt lat="42.20595" lon="9.02563">
        <ele>2042</ele>
      </trkpt>
      <trkpt lat="42.20593" lon="9.02558">
        <ele>2040</ele>
      </trkpt>
      <trkpt lat="42.2058" lon="9.02557">
        <ele>2051.8</ele>
      </trkpt>
      <trkpt lat="42.20549" lon="9.02536">
        <ele>2048.4</ele>
      </trkpt>
      <trkpt lat="42.20514" lon="9.02506">
        <ele>2046.9</ele>
      </trkpt>
      <trkpt lat="42.20485" lon="9.02472">
        <ele>2045</ele>
      </trkpt>
      <trkpt lat="42.20477" lon="9.02471">
        <ele>2045.9</ele>
      </trkpt>
      <trkpt lat="42.20474" lon="9.02466">
        <ele>2045.5</ele>
      </trkpt>
      <trkpt lat="42.20457" lon="9.02461">
        <ele>2048.2</ele>
      </trkpt>
      <trkpt lat="42.20454" lon="9.02446">
        <ele>2045.9</ele>
      </trkpt>
      <trkpt lat="42.20444" lon="9.02437">
        <ele>2046.4</ele>
      </trkpt>
      <trkpt lat="42.20443" lon="9.0243">
        <ele>2045.7</ele>
      </trkpt>
      <trkpt lat="42.20435" lon="9.02426">
        <ele>2046.5</ele>
      </trkpt>
      <trkpt lat="42.20417" lon="9.02396">
        <ele>2043</ele>
      </trkpt>
      <trkpt lat="42.2041" lon="9.0238">
        <ele>2040.1</ele>
      </trkpt>
      <trkpt lat="42.20361" lon="9.02343">
        <ele>2038.9</ele>
      </trkpt>
      <trkpt lat="42.20359" lon="9.02316">
        <ele>2026.8</ele>
      </trkpt>
      <trkpt lat="42.20368" lon="9.02309">
        <ele>2024.8</ele>
      </trkpt>
      <trkpt lat="42.20356" lon="9.02298">
        <ele>2025.5</ele>
      </trkpt>
      <trkpt lat="42.20355" lon="9.02277">
        <ele>2024.5</ele>
      </trkpt>
      <trkpt lat="42.20341" lon="9.02266">
        <ele>2026.1</ele>
      </trkpt>
      <trkpt lat="42.20331" lon="9.02242">
        <ele>2025.3</ele>
      </trkpt>
      <trkpt lat="42.20324" lon="9.02234">
        <ele>2022.5</ele>
      </trkpt>
      <trkpt lat="42.20319" lon="9.02232">
        <ele>2021.5</ele>
      </trkpt>
      <trkpt lat="42.20319" lon="9.02218">
        <ele>2019.7</ele>
      </trkpt>
      <trkpt lat="42.20313" lon="9.0221">
        <ele>2018.7</ele>
      </trkpt>
      <trkpt lat="42.20313" lon="9.02202">
        <ele>2018.3</ele>
      </trkpt>
      <trkpt lat="42.20304" lon="9.02196">
        <ele>2017.5</ele>
      </trkpt>
      <trkpt lat="42.20305" lon="9.02185">
        <ele>2017.3</ele>
      </trkpt>
      <trkpt lat="42.20311" lon="9.02176">
        <ele>2017.8</ele>
      </trkpt>
      <trkpt lat="42.20355" lon="9.0215">
        <ele>2011.5</ele>
      </trkpt>
      <trkpt lat="42.20366" lon="9.02129">
        <ele>2008.9</ele>
      </trkpt>
      <trkpt lat="42.20378" lon="9.02127">
        <ele>2008.5</ele>
      </trkpt>
      <trkpt lat="42.20386" lon="9.02107">
        <ele>2008.3</ele>
      </trkpt>
      <trkpt lat="42.20385" lon="9.02097">
        <ele>2008.2</ele>
      </trkpt>
      <trkpt lat="42.2039" lon="9.0209">
        <ele>2008.6</ele>
      </trkpt>
      <trkpt lat="42.20393" lon="9.02068">
        <ele>2003.4</ele>
      </trkpt>
      <trkpt lat="42.20403" lon="9.02054">
        <ele>2003.4</ele>
      </trkpt>
      <trkpt lat="42.20399" lon="9.02046">
        <ele>2002.4</ele>
      </trkpt>
      <trkpt lat="42.20406" lon="9.02036">
        <ele>2002.9</ele>
      </trkpt>
      <trkpt lat="42.20403" lon="9.02032">
        <ele>2002.7</ele>
      </trkpt>
      <trkpt lat="42.20415" lon="9.02005">
        <ele>2009.1</ele>
      </trkpt>
      <trkpt lat="42.20423" lon="9.0199">
        <ele>2008.7</ele>
      </trkpt>
      <trkpt lat="42.20421" lon="9.01976">
        <ele>2006.9</ele>
      </trkpt>
      <trkpt lat="42.2044" lon="9.01951">
        <ele>2005.1</ele>
      </trkpt>
      <trkpt lat="42.20438" lon="9.01944">
        <ele>2005.2</ele>
      </trkpt>
      <trkpt lat="42.20447" lon="9.0193">
        <ele>2005.3</ele>
      </trkpt>
      <trkpt lat="42.20446" lon="9.0192">
        <ele>2005.4</ele>
      </trkpt>
      <trkpt lat="42.20451" lon="9.01896">
        <ele>2007.4</ele>
      </trkpt>
      <trkpt lat="42.20456" lon="9.01887">
        <ele>2007.8</ele>
      </trkpt>
      <trkpt lat="42.20458" lon="9.01869">
        <ele>2008</ele>
      </trkpt>
      <trkpt lat="42.2046" lon="9.01862">
        <ele>2008.2</ele>
      </trkpt>
      <trkpt lat="42.2046" lon="9.01857">
        <ele>2008.3</ele>
      </trkpt>
      <trkpt lat="42.20469" lon="9.01845">
        <ele>2010.4</ele>
      </trkpt>
      <trkpt lat="42.20472" lon="9.0183">
        <ele>2007.1</ele>
      </trkpt>
      <trkpt lat="42.20488" lon="9.01821">
        <ele>2011.6</ele>
      </trkpt>
      <trkpt lat="42.20496" lon="9.01791">
        <ele>2005.6</ele>
      </trkpt>
      <trkpt lat="42.20503" lon="9.01789">
        <ele>2009.9</ele>
      </trkpt>
      <trkpt lat="42.20509" lon="9.01777">
        <ele>2009.1</ele>
      </trkpt>
      <trkpt lat="42.2051" lon="9.01771">
        <ele>2008.9</ele>
      </trkpt>
      <trkpt lat="42.20522" lon="9.01754">
        <ele>2008.6</ele>
      </trkpt>
      <trkpt lat="42.20522" lon="9.01744">
        <ele>2007.2</ele>
      </trkpt>
      <trkpt lat="42.20534" lon="9.0174">
        <ele>2007.5</ele>
      </trkpt>
      <trkpt lat="42.20538" lon="9.0173">
        <ele>2007.3</ele>
      </trkpt>
      <trkpt lat="42.20556" lon="9.01713">
        <ele>2008.6</ele>
      </trkpt>
      <trkpt lat="42.20558" lon="9.01694">
        <ele>2009.4</ele>
      </trkpt>
      <trkpt lat="42.20557" lon="9.01676">
        <ele>2010.5</ele>
      </trkpt>
      <trkpt lat="42.20578" lon="9.01667">
        <ele>2020.8</ele>
      </trkpt>
      <trkpt lat="42.20589" lon="9.01657">
        <ele>2022.7</ele>
      </trkpt>
      <trkpt lat="42.20594" lon="9.0164">
        <ele>2020.2</ele>
      </trkpt>
      <trkpt lat="42.20606" lon="9.01633">
        <ele>2019.7</ele>
      </trkpt>
      <trkpt lat="42.2061" lon="9.01612">
        <ele>2017.9</ele>
      </trkpt>
      <trkpt lat="42.2061" lon="9.01604">
        <ele>2017.1</ele>
      </trkpt>
      <trkpt lat="42.20619" lon="9.01596">
        <ele>2018.5</ele>
      </trkpt>
      <trkpt lat="42.20643" lon="9.0159">
        <ele>2025.5</ele>
      </trkpt>
      <trkpt lat="42.20646" lon="9.01588">
        <ele>2026.6</ele>
      </trkpt>
      <trkpt lat="42.2065" lon="9.0159">
        <ele>2027.8</ele>
      </trkpt>
      <trkpt lat="42.20678" lon="9.01563">
        <ele>2039.3</ele>
      </trkpt>
      <trkpt lat="42.2068" lon="9.01552">
        <ele>2039.3</ele>
      </trkpt>
      <trkpt lat="42.20687" lon="9.01547">
        <ele>2039.7</ele>
      </trkpt>
      <trkpt lat="42.20713" lon="9.01512">
        <ele>2045</ele>
      </trkpt>
      <trkpt lat="42.20713" lon="9.01505">
        <ele>2045.5</ele>
      </trkpt>
      <trkpt lat="42.20721" lon="9.01506">
        <ele>2048.7</ele>
      </trkpt>
      <trkpt lat="42.20732" lon="9.01484">
        <ele>2049.7</ele>
      </trkpt>
      <trkpt lat="42.20742" lon="9.01479">
        <ele>2051.4</ele>
      </trkpt>
      <trkpt lat="42.20749" lon="9.01441">
        <ele>2047.7</ele>
      </trkpt>
      <trkpt lat="42.20772" lon="9.01421">
        <ele>2063.7</ele>
      </trkpt>
      <trkpt lat="42.20787" lon="9.01377">
        <ele>2063.2</ele>
      </trkpt>
      <trkpt lat="42.20797" lon="9.01362">
        <ele>2063.8</ele>
      </trkpt>
      <trkpt lat="42.20796" lon="9.01356">
        <ele>2063.4</ele>
      </trkpt>
      <trkpt lat="42.2081" lon="9.01328">
        <ele>2062.7</ele>
      </trkpt>
      <trkpt lat="42.20806" lon="9.01322">
        <ele>2060.8</ele>
      </trkpt>
      <trkpt lat="42.20811" lon="9.01317">
        <ele>2061.8</ele>
      </trkpt>
      <trkpt lat="42.2081" lon="9.01305">
        <ele>2060.3</ele>
      </trkpt>
      <trkpt lat="42.20813" lon="9.01295">
        <ele>2060.3</ele>
      </trkpt>
      <trkpt lat="42.20814" lon="9.01267">
        <ele>2061.9</ele>
      </trkpt>
      <trkpt lat="42.20801" lon="9.01256">
        <ele>2058.3</ele>
      </trkpt>
      <trkpt lat="42.20804" lon="9.01248">
        <ele>2060.5</ele>
      </trkpt>
      <trkpt lat="42.20814" lon="9.0123">
        <ele>2062.7</ele>
      </trkpt>
      <trkpt lat="42.2082" lon="9.01173">
        <ele>2067</ele>
      </trkpt>
      <trkpt lat="42.20832" lon="9.01159">
        <ele>2072.5</ele>
      </trkpt>
      <trkpt lat="42.20832" lon="9.01151">
        <ele>2071.9</ele>
      </trkpt>
      <trkpt lat="42.20837" lon="9.01146">
        <ele>2067.6</ele>
      </trkpt>
      <trkpt lat="42.20841" lon="9.01147">
        <ele>2067.3</ele>
      </trkpt>
      <trkpt lat="42.20849" lon="9.01127">
        <ele>2066.2</ele>
      </trkpt>
      <trkpt lat="42.20849" lon="9.01111">
        <ele>2068.9</ele>
      </trkpt>
      <trkpt lat="42.20853" lon="9.01095">
        <ele>2071.5</ele>
      </trkpt>
      <trkpt lat="42.20847" lon="9.01041">
        <ele>2092.2</ele>
      </trkpt>
      <trkpt lat="42.20854" lon="9.01016">
        <ele>2097.3</ele>
      </trkpt>
      <trkpt lat="42.2086" lon="9.00987">
        <ele>2118.6</ele>
      </trkpt>
      <trkpt lat="42.20858" lon="9.00958">
        <ele>2124.2</ele>
      </trkpt>
      <trkpt lat="42.20874" lon="9.00942">
        <ele>2126.4</ele>
      </trkpt>
      <trkpt lat="42.20881" lon="9.00906">
        <ele>2149.6</ele>
      </trkpt>
      <trkpt lat="42.20901" lon="9.00874">
        <ele>2155</ele>
      </trkpt>
      <trkpt lat="42.20895" lon="9.00852">
        <ele>2160.4</ele>
      </trkpt>
      <trkpt lat="42.20909" lon="9.00839">
        <ele>2166.5</ele>
      </trkpt>
      <trkpt lat="42.20922" lon="9.00816">
        <ele>2174.5</ele>
      </trkpt>
      <trkpt lat="42.20923" lon="9.00796">
        <ele>2178.4</ele>
      </trkpt>
      <trkpt lat="42.20975" lon="9.00749">
        <ele>2196.5</ele>
      </trkpt>
      <trkpt lat="42.20987" lon="9.00716">
        <ele>2201.6</ele>
      </trkpt>
      <trkpt lat="42.21031" lon="9.0069">
        <ele>2200.3</ele>
      </trkpt>
      <trkpt lat="42.21088" lon="9.0068">
        <ele>2199.3</ele>
      </trkpt>
      <trkpt lat="42.21139" lon="9.00633">
        <ele>2209.5</ele>
      </trkpt>
      <trkpt lat="42.2116" lon="9.0059">
        <ele>2216.2</ele>
      </trkpt>
      <trkpt lat="42.21161" lon="9.00533">
        <ele>2198.8</ele>
      </trkpt>
      <trkpt lat="42.2118" lon="9.00464">
        <ele>2174.8</ele>
      </trkpt>
      <trkpt lat="42.21194" lon="9.0044">
        <ele>2169.8</ele>
      </trkpt>
      <trkpt lat="42.21194" lon="9.00425">
        <ele>2166.7</ele>
      </trkpt>
      <trkpt lat="42.2118" lon="9.00412">
        <ele>2144.7</ele>
      </trkpt>
      <trkpt lat="42.21181" lon="9.00395">
        <ele>2141.1</ele>
      </trkpt>
      <trkpt lat="42.21168" lon="9.00387">
        <ele>2138.9</ele>
      </trkpt>
      <trkpt lat="42.21185" lon="9.00359">
        <ele>2130.8</ele>
      </trkpt>
      <trkpt lat="42.21183" lon="9.00349">
        <ele>2126.9</ele>
      </trkpt>
      <trkpt lat="42.21169" lon="9.00347">
        <ele>2122.4</ele>
      </trkpt>
      <trkpt lat="42.21169" lon="9.00334">
        <ele>2113.8</ele>
      </trkpt>
      <trkpt lat="42.21176" lon="9.00318">
        <ele>2107.1</ele>
      </trkpt>
      <trkpt lat="42.21217" lon="9.0026">
        <ele>2099.7</ele>
      </trkpt>
      <trkpt lat="42.21217" lon="9.00249">
        <ele>2082.8</ele>
      </trkpt>
      <trkpt lat="42.2123" lon="9.00229">
        <ele>2083.1</ele>
      </trkpt>
      <trkpt lat="42.2123" lon="9.00203">
        <ele>2078.4</ele>
      </trkpt>
      <trkpt lat="42.2124" lon="9.00175">
        <ele>2076.2</ele>
      </trkpt>
      <trkpt lat="42.21233" lon="9.00163">
        <ele>2065.3</ele>
      </trkpt>
      <trkpt lat="42.2124" lon="9.00064">
        <ele>2044.5</ele>
      </trkpt>
      <trkpt lat="42.21238" lon="9.00043">
        <ele>2038.2</ele>
      </trkpt>
      <trkpt lat="42.2124" lon="9.00019">
        <ele>2038</ele>
      </trkpt>
      <trkpt lat="42.21237" lon="8.99983">
        <ele>2028.8</ele>
      </trkpt>
      <trkpt lat="42.21222" lon="8.99972">
        <ele>2020.7</ele>
      </trkpt>
      <trkpt lat="42.21212" lon="8.99935">
        <ele>2015.5</ele>
      </trkpt>
      <trkpt lat="42.21192" lon="8.9992">
        <ele>2002.6</ele>
      </trkpt>
      <trkpt lat="42.21189" lon="8.999">
        <ele>2000.1</ele>
      </trkpt>
      <trkpt lat="42.21178" lon="8.99883">
        <ele>1998.9</ele>
      </trkpt>
      <trkpt lat="42.21161" lon="8.99883">
        <ele>1975.5</ele>
      </trkpt>
      <trkpt lat="42.21152" lon="8.99872">
        <ele>1975.2</ele>
      </trkpt>
      <trkpt lat="42.21154" lon="8.99831">
        <ele>1973.7</ele>
      </trkpt>
      <trkpt lat="42.2114" lon="8.99794">
        <ele>1971</ele>
      </trkpt>
      <trkpt lat="42.21146" lon="8.99763">
        <ele>1970.3</ele>
      </trkpt>
      <trkpt lat="42.21144" lon="8.99732">
        <ele>1968.4</ele>
      </trkpt>
      <trkpt lat="42.21166" lon="8.99679">
        <ele>1968</ele>
      </trkpt>
      <trkpt lat="42.21172" lon="8.9967">
        <ele>1975.2</ele>
      </trkpt>
      <trkpt lat="42.21176" lon="8.99634">
        <ele>1987.4</ele>
      </trkpt>
      <trkpt lat="42.21153" lon="8.99521">
        <ele>1965.6</ele>
      </trkpt>
      <trkpt lat="42.2112" lon="8.99437">
        <ele>1953.5</ele>
      </trkpt>
      <trkpt lat="42.21123" lon="8.99412">
        <ele>1942.7</ele>
      </trkpt>
      <trkpt lat="42.211" lon="8.99373">
        <ele>1934.8</ele>
      </trkpt>
      <trkpt lat="42.21089" lon="8.99332">
        <ele>1913.6</ele>
      </trkpt>
      <trkpt lat="42.21088" lon="8.99259">
        <ele>1904.3</ele>
      </trkpt>
      <trkpt lat="42.21081" lon="8.99217">
        <ele>1887.8</ele>
      </trkpt>
      <trkpt lat="42.21067" lon="8.99183">
        <ele>1884</ele>
      </trkpt>
      <trkpt lat="42.21073" lon="8.99145">
        <ele>1874.1</ele>
      </trkpt>
      <trkpt lat="42.21108" lon="8.99051">
        <ele>1859.1</ele>
      </trkpt>
      <trkpt lat="42.21101" lon="8.98953">
        <ele>1828.8</ele>
      </trkpt>
      <trkpt lat="42.21088" lon="8.9893">
        <ele>1820.4</ele>
      </trkpt>
      <trkpt lat="42.21099" lon="8.98893">
        <ele>1807.9</ele>
      </trkpt>
      <trkpt lat="42.2113" lon="8.98876">
        <ele>1806.6</ele>
      </trkpt>
      <trkpt lat="42.21135" lon="8.98831">
        <ele>1793.1</ele>
      </trkpt>
      <trkpt lat="42.21228" lon="8.9876">
        <ele>1790.5</ele>
      </trkpt>
      <trkpt lat="42.21239" lon="8.98729">
        <ele>1783.6</ele>
      </trkpt>
      <trkpt lat="42.21242" lon="8.98687">
        <ele>1780.7</ele>
      </trkpt>
      <trkpt lat="42.21292" lon="8.98583">
        <ele>1779.2</ele>
      </trkpt>
      <trkpt lat="42.21314" lon="8.98568">
        <ele>1779.5</ele>
      </trkpt>
      <trkpt lat="42.21328" lon="8.98531">
        <ele>1774.5</ele>
      </trkpt>
      <trkpt lat="42.21325" lon="8.98505">
        <ele>1768.8</ele>
      </trkpt>
      <trkpt lat="42.21385" lon="8.98464">
        <ele>1753</ele>
      </trkpt>
      <trkpt lat="42.21389" lon="8.98444">
        <ele>1749.9</ele>
      </trkpt>
      <trkpt lat="42.21411" lon="8.98446">
        <ele>1747.2</ele>
      </trkpt>
      <trkpt lat="42.21417" lon="8.98427">
        <ele>1731.3</ele>
      </trkpt>
      <trkpt lat="42.21457" lon="8.98413">
        <ele>1716.1</ele>
      </trkpt>
      <trkpt lat="42.21482" lon="8.98423">
        <ele>1717.7</ele>
      </trkpt>
      <trkpt lat="42.21494" lon="8.98408">
        <ele>1706.3</ele>
      </trkpt>
      <trkpt lat="42.21511" lon="8.98405">
        <ele>1692.8</ele>
      </trkpt>
      <trkpt lat="42.21521" lon="8.98416">
        <ele>1690.5</ele>
      </trkpt>
      <trkpt lat="42.21544" lon="8.98382">
        <ele>1681.9</ele>
      </trkpt>
      <trkpt lat="42.21576" lon="8.98362">
        <ele>1674.2</ele>
      </trkpt>
      <trkpt lat="42.21596" lon="8.98369">
        <ele>1663.5</ele>
      </trkpt>
      <trkpt lat="42.21664" lon="8.98351">
        <ele>1657.7</ele>
      </trkpt>
      <trkpt lat="42.21797" lon="8.98256">
        <ele>1641.4</ele>
      </trkpt>
      <trkpt lat="42.21839" lon="8.98246">
        <ele>1632.4</ele>
      </trkpt>
      <trkpt lat="42.21863" lon="8.98214">
        <ele>1627.8</ele>
      </trkpt>
      <trkpt lat="42.21892" lon="8.98208">
        <ele>1625.7</ele>
      </trkpt>
      <trkpt lat="42.21973" lon="8.9816">
        <ele>1610</ele>
      </trkpt>
      <trkpt lat="42.21988" lon="8.98147">
        <ele>1609.7</ele>
      </trkpt>
      <trkpt lat="42.21995" lon="8.98132">
        <ele>1608.3</ele>
      </trkpt>
      <trkpt lat="42.2201" lon="8.98124">
        <ele>1605.6</ele>
      </trkpt>
      <trkpt lat="42.22024" lon="8.9811">
        <ele>1604</ele>
      </trkpt>
      <trkpt lat="42.22039" lon="8.98085">
        <ele>1602</ele>
      </trkpt>
      <trkpt lat="42.22055" lon="8.98059">
        <ele>1590.6</ele>
      </trkpt>
      <trkpt lat="42.22081" lon="8.98034">
        <ele>1587</ele>
      </trkpt>
      <trkpt lat="42.22111" lon="8.98026">
        <ele>1585.7</ele>
      </trkpt>
      <trkpt lat="42.22153" lon="8.97995">
        <ele>1573.2</ele>
      </trkpt>
      <trkpt lat="42.22238" lon="8.97971">
        <ele>1573.3</ele>
      </trkpt>
      <trkpt lat="42.22267" lon="8.97968">
        <ele>1575.3</ele>
      </trkpt>
      <trkpt lat="42.22289" lon="8.97958">
        <ele>1572.9</ele>
      </trkpt>
      <trkpt lat="42.22388" lon="8.97971">
        <ele>1578.6</ele>
      </trkpt>
      <trkpt lat="42.22405" lon="8.97982">
        <ele>1582</ele>
      </trkpt>
      <trkpt lat="42.22429" lon="8.97957">
        <ele>1579.3</ele>
      </trkpt>
      <trkpt lat="42.22469" lon="8.97947">
        <ele>1579.5</ele>
      </trkpt>
      <trkpt lat="42.22528" lon="8.97915">
        <ele>1573.1</ele>
      </trkpt>
      <trkpt lat="42.22543" lon="8.97915">
        <ele>1573.4</ele>
      </trkpt>
      <trkpt lat="42.22562" lon="8.97903">
        <ele>1574</ele>
      </trkpt>
      <trkpt lat="42.22617" lon="8.97857">
        <ele>1571</ele>
      </trkpt>
      <trkpt lat="42.22665" lon="8.97851">
        <ele>1567.9</ele>
      </trkpt>
      <trkpt lat="42.22681" lon="8.9783">
        <ele>1563.4</ele>
      </trkpt>
      <trkpt lat="42.22712" lon="8.97821">
        <ele>1559.9</ele>
      </trkpt>
      <trkpt lat="42.22719" lon="8.97806">
        <ele>1560</ele>
      </trkpt>
      <trkpt lat="42.22745" lon="8.97799">
        <ele>1558.4</ele>
      </trkpt>
      <trkpt lat="42.22758" lon="8.9779">
        <ele>1550.7</ele>
      </trkpt>
      <trkpt lat="42.22796" lon="8.9778">
        <ele>1548.8</ele>
      </trkpt>
      <trkpt lat="42.22852" lon="8.97783">
        <ele>1543.4</ele>
      </trkpt>
      <trkpt lat="42.22935" lon="8.97769">
        <ele>1542.7</ele>
      </trkpt>
      <trkpt lat="42.23023" lon="8.97777">
        <ele>1541.4</ele>
      </trkpt>
      <trkpt lat="42.23076" lon="8.97747">
        <ele>1543.7</ele>
      </trkpt>
      <trkpt lat="42.23089" lon="8.97734">
        <ele>1543.3</ele>
      </trkpt>
      <trkpt lat="42.23135" lon="8.97719">
        <ele>1542.8</ele>
      </trkpt>
      <trkpt lat="42.23234" lon="8.9764">
        <ele>1540.1</ele>
      </trkpt>
      <trkpt lat="42.2335" lon="8.9761">
        <ele>1541.2</ele>
      </trkpt>
      <trkpt lat="42.23397" lon="8.97582">
        <ele>1543.1</ele>
      </trkpt>
      <trkpt lat="42.2342" lon="8.97572">
        <ele>1544.5</ele>
      </trkpt>
      <trkpt lat="42.23499" lon="8.97532">
        <ele>1549.1</ele>
      </trkpt>
      <trkpt lat="42.23519" lon="8.97508">
        <ele>1555.9</ele>
      </trkpt>
      <trkpt lat="42.2358" lon="8.97474">
        <ele>1566</ele>
      </trkpt>
      <trkpt lat="42.23604" lon="8.97475">
        <ele>1575.8</ele>
      </trkpt>
      <trkpt lat="42.23628" lon="8.97468">
        <ele>1579</ele>
      </trkpt>
      <trkpt lat="42.23678" lon="8.97434">
        <ele>1590.1</ele>
      </trkpt>
    </trkseg>
  </trk>
  <trk>
    <name><![CDATA[GR20 Nord en 6 jours_3]]></name>
    <trkseg>
      <trkpt lat="42.23679" lon="8.97434">
        <ele>1590.2</ele>
      </trkpt>
      <trkpt lat="42.23708" lon="8.97431">
        <ele>1591.3</ele>
      </trkpt>
      <trkpt lat="42.23728" lon="8.97474">
        <ele>1590</ele>
      </trkpt>
      <trkpt lat="42.23898" lon="8.97343">
        <ele>1595.1</ele>
      </trkpt>
      <trkpt lat="42.23929" lon="8.97298">
        <ele>1598.3</ele>
      </trkpt>
      <trkpt lat="42.23964" lon="8.97287">
        <ele>1597</ele>
      </trkpt>
      <trkpt lat="42.24184" lon="8.97004">
        <ele>1600.4</ele>
      </trkpt>
      <trkpt lat="42.24207" lon="8.9695">
        <ele>1604.6</ele>
      </trkpt>
      <trkpt lat="42.24222" lon="8.96926">
        <ele>1603.9</ele>
      </trkpt>
      <trkpt lat="42.24288" lon="8.96823">
        <ele>1605</ele>
      </trkpt>
      <trkpt lat="42.24318" lon="8.96811">
        <ele>1602.3</ele>
      </trkpt>
      <trkpt lat="42.24348" lon="8.96766">
        <ele>1600.1</ele>
      </trkpt>
      <trkpt lat="42.24386" lon="8.96693">
        <ele>1602.3</ele>
      </trkpt>
      <trkpt lat="42.24431" lon="8.9665">
        <ele>1600.4</ele>
      </trkpt>
      <trkpt lat="42.24445" lon="8.96617">
        <ele>1600.5</ele>
      </trkpt>
      <trkpt lat="42.24489" lon="8.96575">
        <ele>1601.7</ele>
      </trkpt>
      <trkpt lat="42.24539" lon="8.96551">
        <ele>1602.2</ele>
      </trkpt>
      <trkpt lat="42.24553" lon="8.96465">
        <ele>1606.2</ele>
      </trkpt>
      <trkpt lat="42.24661" lon="8.96298">
        <ele>1619</ele>
      </trkpt>
      <trkpt lat="42.2474" lon="8.96259">
        <ele>1628.2</ele>
      </trkpt>
      <trkpt lat="42.24767" lon="8.96231">
        <ele>1637.6</ele>
      </trkpt>
      <trkpt lat="42.24791" lon="8.96225">
        <ele>1640.6</ele>
      </trkpt>
      <trkpt lat="42.24834" lon="8.96175">
        <ele>1653.1</ele>
      </trkpt>
      <trkpt lat="42.24857" lon="8.96185">
        <ele>1655.1</ele>
      </trkpt>
      <trkpt lat="42.24887" lon="8.96179">
        <ele>1658.7</ele>
      </trkpt>
      <trkpt lat="42.24916" lon="8.96195">
        <ele>1660.1</ele>
      </trkpt>
      <trkpt lat="42.24939" lon="8.96192">
        <ele>1671.1</ele>
      </trkpt>
      <trkpt lat="42.24964" lon="8.96216">
        <ele>1673.4</ele>
      </trkpt>
      <trkpt lat="42.25007" lon="8.96215">
        <ele>1686.6</ele>
      </trkpt>
      <trkpt lat="42.25079" lon="8.96158">
        <ele>1697.3</ele>
      </trkpt>
      <trkpt lat="42.25095" lon="8.96132">
        <ele>1704.8</ele>
      </trkpt>
      <trkpt lat="42.25108" lon="8.96089">
        <ele>1707.2</ele>
      </trkpt>
      <trkpt lat="42.25135" lon="8.96053">
        <ele>1715.2</ele>
      </trkpt>
      <trkpt lat="42.25146" lon="8.96026">
        <ele>1717.3</ele>
      </trkpt>
      <trkpt lat="42.25168" lon="8.96016">
        <ele>1718.8</ele>
      </trkpt>
      <trkpt lat="42.25263" lon="8.95914">
        <ele>1728.1</ele>
      </trkpt>
      <trkpt lat="42.25294" lon="8.95841">
        <ele>1729.7</ele>
      </trkpt>
      <trkpt lat="42.253" lon="8.95836">
        <ele>1729.4</ele>
      </trkpt>
      <trkpt lat="42.25354" lon="8.95768">
        <ele>1731.4</ele>
      </trkpt>
      <trkpt lat="42.2537" lon="8.95757">
        <ele>1731.6</ele>
      </trkpt>
      <trkpt lat="42.25391" lon="8.95752">
        <ele>1732</ele>
      </trkpt>
      <trkpt lat="42.25399" lon="8.95739">
        <ele>1733.9</ele>
      </trkpt>
      <trkpt lat="42.25409" lon="8.95658">
        <ele>1738.8</ele>
      </trkpt>
      <trkpt lat="42.25386" lon="8.9551">
        <ele>1741.8</ele>
      </trkpt>
      <trkpt lat="42.25373" lon="8.95462">
        <ele>1744</ele>
      </trkpt>
      <trkpt lat="42.25364" lon="8.95393">
        <ele>1748.3</ele>
      </trkpt>
      <trkpt lat="42.25333" lon="8.95316">
        <ele>1745</ele>
      </trkpt>
      <trkpt lat="42.25326" lon="8.95259">
        <ele>1746.1</ele>
      </trkpt>
      <trkpt lat="42.25326" lon="8.95214">
        <ele>1745.9</ele>
      </trkpt>
      <trkpt lat="42.25323" lon="8.9518">
        <ele>1746.2</ele>
      </trkpt>
      <trkpt lat="42.25325" lon="8.95134">
        <ele>1746.9</ele>
      </trkpt>
      <trkpt lat="42.25303" lon="8.9506">
        <ele>1748.5</ele>
      </trkpt>
      <trkpt lat="42.25296" lon="8.94998">
        <ele>1749</ele>
      </trkpt>
      <trkpt lat="42.2527" lon="8.94926">
        <ele>1746.9</ele>
      </trkpt>
      <trkpt lat="42.2526" lon="8.94886">
        <ele>1748.6</ele>
      </trkpt>
      <trkpt lat="42.25255" lon="8.94847">
        <ele>1749.1</ele>
      </trkpt>
      <trkpt lat="42.25252" lon="8.94794">
        <ele>1752.2</ele>
      </trkpt>
      <trkpt lat="42.25255" lon="8.94755">
        <ele>1750.4</ele>
      </trkpt>
      <trkpt lat="42.25271" lon="8.94683">
        <ele>1751.3</ele>
      </trkpt>
      <trkpt lat="42.25291" lon="8.94637">
        <ele>1751.1</ele>
      </trkpt>
      <trkpt lat="42.25295" lon="8.9462">
        <ele>1751.1</ele>
      </trkpt>
      <trkpt lat="42.25354" lon="8.94534">
        <ele>1756</ele>
      </trkpt>
      <trkpt lat="42.25362" lon="8.94479">
        <ele>1751.7</ele>
      </trkpt>
      <trkpt lat="42.25417" lon="8.94367">
        <ele>1754.9</ele>
      </trkpt>
      <trkpt lat="42.25435" lon="8.94305">
        <ele>1751.6</ele>
      </trkpt>
      <trkpt lat="42.25446" lon="8.94297">
        <ele>1751.9</ele>
      </trkpt>
      <trkpt lat="42.25457" lon="8.94267">
        <ele>1751.5</ele>
      </trkpt>
      <trkpt lat="42.25503" lon="8.94247">
        <ele>1751.1</ele>
      </trkpt>
      <trkpt lat="42.25518" lon="8.94228">
        <ele>1751.4</ele>
      </trkpt>
      <trkpt lat="42.25595" lon="8.94187">
        <ele>1757.6</ele>
      </trkpt>
      <trkpt lat="42.25639" lon="8.94142">
        <ele>1756.8</ele>
      </trkpt>
      <trkpt lat="42.25685" lon="8.93952">
        <ele>1752.1</ele>
      </trkpt>
      <trkpt lat="42.25681" lon="8.93892">
        <ele>1750.2</ele>
      </trkpt>
      <trkpt lat="42.25671" lon="8.93833">
        <ele>1748.5</ele>
      </trkpt>
      <trkpt lat="42.25673" lon="8.9381">
        <ele>1749.7</ele>
      </trkpt>
      <trkpt lat="42.25676" lon="8.93785">
        <ele>1750.5</ele>
      </trkpt>
      <trkpt lat="42.25674" lon="8.93772">
        <ele>1750.9</ele>
      </trkpt>
      <trkpt lat="42.25668" lon="8.93752">
        <ele>1751.8</ele>
      </trkpt>
      <trkpt lat="42.25634" lon="8.93728">
        <ele>1758.7</ele>
      </trkpt>
      <trkpt lat="42.25618" lon="8.93697">
        <ele>1761.5</ele>
      </trkpt>
      <trkpt lat="42.256" lon="8.93686">
        <ele>1764.7</ele>
      </trkpt>
      <trkpt lat="42.25592" lon="8.93668">
        <ele>1769.2</ele>
      </trkpt>
      <trkpt lat="42.25565" lon="8.93642">
        <ele>1779</ele>
      </trkpt>
      <trkpt lat="42.25549" lon="8.93572">
        <ele>1793</ele>
      </trkpt>
      <trkpt lat="42.25548" lon="8.93553">
        <ele>1794.7</ele>
      </trkpt>
      <trkpt lat="42.25534" lon="8.93543">
        <ele>1796.9</ele>
      </trkpt>
      <trkpt lat="42.25552" lon="8.93514">
        <ele>1797.3</ele>
      </trkpt>
      <trkpt lat="42.25555" lon="8.93498">
        <ele>1805.5</ele>
      </trkpt>
      <trkpt lat="42.25534" lon="8.93502">
        <ele>1800.5</ele>
      </trkpt>
      <trkpt lat="42.25552" lon="8.93448">
        <ele>1809.9</ele>
      </trkpt>
      <trkpt lat="42.25561" lon="8.93442">
        <ele>1809.3</ele>
      </trkpt>
      <trkpt lat="42.25563" lon="8.93423">
        <ele>1809.5</ele>
      </trkpt>
      <trkpt lat="42.25544" lon="8.93425">
        <ele>1811.9</ele>
      </trkpt>
      <trkpt lat="42.25537" lon="8.93418">
        <ele>1813.5</ele>
      </trkpt>
      <trkpt lat="42.25539" lon="8.93394">
        <ele>1821.9</ele>
      </trkpt>
      <trkpt lat="42.25539" lon="8.93377">
        <ele>1823.1</ele>
      </trkpt>
      <trkpt lat="42.25514" lon="8.93379">
        <ele>1825.4</ele>
      </trkpt>
      <trkpt lat="42.25512" lon="8.93344">
        <ele>1831.5</ele>
      </trkpt>
      <trkpt lat="42.2552" lon="8.9332">
        <ele>1835.7</ele>
      </trkpt>
      <trkpt lat="42.25509" lon="8.93247">
        <ele>1843</ele>
      </trkpt>
      <trkpt lat="42.25496" lon="8.93219">
        <ele>1848.3</ele>
      </trkpt>
      <trkpt lat="42.25475" lon="8.93146">
        <ele>1850.7</ele>
      </trkpt>
      <trkpt lat="42.25482" lon="8.93087">
        <ele>1851.2</ele>
      </trkpt>
      <trkpt lat="42.25484" lon="8.93032">
        <ele>1853.1</ele>
      </trkpt>
      <trkpt lat="42.25478" lon="8.92936">
        <ele>1854.1</ele>
      </trkpt>
      <trkpt lat="42.25456" lon="8.92796">
        <ele>1866.7</ele>
      </trkpt>
      <trkpt lat="42.2543" lon="8.92695">
        <ele>1877.8</ele>
      </trkpt>
      <trkpt lat="42.25433" lon="8.92655">
        <ele>1881.3</ele>
      </trkpt>
      <trkpt lat="42.25422" lon="8.92558">
        <ele>1878.5</ele>
      </trkpt>
      <trkpt lat="42.25422" lon="8.92485">
        <ele>1870.2</ele>
      </trkpt>
      <trkpt lat="42.25461" lon="8.92281">
        <ele>1846.4</ele>
      </trkpt>
      <trkpt lat="42.25487" lon="8.9219">
        <ele>1834.4</ele>
      </trkpt>
      <trkpt lat="42.2553" lon="8.92108">
        <ele>1852.1</ele>
      </trkpt>
      <trkpt lat="42.25554" lon="8.91976">
        <ele>1834</ele>
      </trkpt>
      <trkpt lat="42.25559" lon="8.91906">
        <ele>1824.2</ele>
      </trkpt>
      <trkpt lat="42.25558" lon="8.91826">
        <ele>1807.2</ele>
      </trkpt>
      <trkpt lat="42.25574" lon="8.91809">
        <ele>1807.8</ele>
      </trkpt>
      <trkpt lat="42.25549" lon="8.91807">
        <ele>1801.7</ele>
      </trkpt>
      <trkpt lat="42.25557" lon="8.91758">
        <ele>1798.5</ele>
      </trkpt>
      <trkpt lat="42.25541" lon="8.91772">
        <ele>1797</ele>
      </trkpt>
      <trkpt lat="42.25543" lon="8.91744">
        <ele>1787.4</ele>
      </trkpt>
      <trkpt lat="42.25531" lon="8.91752">
        <ele>1793.6</ele>
      </trkpt>
      <trkpt lat="42.25535" lon="8.91704">
        <ele>1784.5</ele>
      </trkpt>
      <trkpt lat="42.25529" lon="8.91592">
        <ele>1779.8</ele>
      </trkpt>
      <trkpt lat="42.25538" lon="8.91582">
        <ele>1777.6</ele>
      </trkpt>
      <trkpt lat="42.25541" lon="8.91559">
        <ele>1776.8</ele>
      </trkpt>
      <trkpt lat="42.25531" lon="8.91518">
        <ele>1780.4</ele>
      </trkpt>
      <trkpt lat="42.25523" lon="8.91445">
        <ele>1773.2</ele>
      </trkpt>
      <trkpt lat="42.25515" lon="8.91396">
        <ele>1767.2</ele>
      </trkpt>
      <trkpt lat="42.25522" lon="8.91301">
        <ele>1758.2</ele>
      </trkpt>
      <trkpt lat="42.25537" lon="8.91187">
        <ele>1756.2</ele>
      </trkpt>
      <trkpt lat="42.25547" lon="8.91139">
        <ele>1753.7</ele>
      </trkpt>
      <trkpt lat="42.25547" lon="8.91083">
        <ele>1746.2</ele>
      </trkpt>
      <trkpt lat="42.25541" lon="8.91054">
        <ele>1745.2</ele>
      </trkpt>
      <trkpt lat="42.25508" lon="8.90988">
        <ele>1745</ele>
      </trkpt>
      <trkpt lat="42.25507" lon="8.90944">
        <ele>1740.5</ele>
      </trkpt>
      <trkpt lat="42.25503" lon="8.90913">
        <ele>1749.8</ele>
      </trkpt>
      <trkpt lat="42.25516" lon="8.90854">
        <ele>1742.7</ele>
      </trkpt>
      <trkpt lat="42.25518" lon="8.90799">
        <ele>1739.8</ele>
      </trkpt>
      <trkpt lat="42.25507" lon="8.90733">
        <ele>1737.6</ele>
      </trkpt>
      <trkpt lat="42.25543" lon="8.90784">
        <ele>1732.2</ele>
      </trkpt>
      <trkpt lat="42.25543" lon="8.90764">
        <ele>1731.6</ele>
      </trkpt>
      <trkpt lat="42.25537" lon="8.90734">
        <ele>1727.5</ele>
      </trkpt>
      <trkpt lat="42.255" lon="8.90659">
        <ele>1730.8</ele>
      </trkpt>
      <trkpt lat="42.25531" lon="8.90674">
        <ele>1726</ele>
      </trkpt>
      <trkpt lat="42.25589" lon="8.90733">
        <ele>1695.7</ele>
      </trkpt>
      <trkpt lat="42.25589" lon="8.90717">
        <ele>1690.9</ele>
      </trkpt>
      <trkpt lat="42.25553" lon="8.90647">
        <ele>1712</ele>
      </trkpt>
      <trkpt lat="42.25553" lon="8.90619">
        <ele>1710.9</ele>
      </trkpt>
      <trkpt lat="42.25556" lon="8.90598">
        <ele>1707.8</ele>
      </trkpt>
      <trkpt lat="42.25564" lon="8.90584">
        <ele>1703.6</ele>
      </trkpt>
      <trkpt lat="42.25586" lon="8.90652">
        <ele>1689.4</ele>
      </trkpt>
      <trkpt lat="42.25587" lon="8.90622">
        <ele>1682</ele>
      </trkpt>
      <trkpt lat="42.25594" lon="8.90555">
        <ele>1673.4</ele>
      </trkpt>
      <trkpt lat="42.25591" lon="8.90516">
        <ele>1673.7</ele>
      </trkpt>
      <trkpt lat="42.25604" lon="8.90471">
        <ele>1667.2</ele>
      </trkpt>
      <trkpt lat="42.25608" lon="8.90422">
        <ele>1669.2</ele>
      </trkpt>
      <trkpt lat="42.25625" lon="8.90388">
        <ele>1671</ele>
      </trkpt>
      <trkpt lat="42.25675" lon="8.90333">
        <ele>1661.9</ele>
      </trkpt>
      <trkpt lat="42.25705" lon="8.90319">
        <ele>1657.2</ele>
      </trkpt>
      <trkpt lat="42.25713" lon="8.90291">
        <ele>1659.5</ele>
      </trkpt>
      <trkpt lat="42.2573" lon="8.9028">
        <ele>1658.9</ele>
      </trkpt>
      <trkpt lat="42.2575" lon="8.90257">
        <ele>1653.4</ele>
      </trkpt>
      <trkpt lat="42.25794" lon="8.90239">
        <ele>1645.5</ele>
      </trkpt>
      <trkpt lat="42.25806" lon="8.90227">
        <ele>1642.9</ele>
      </trkpt>
      <trkpt lat="42.25811" lon="8.90195">
        <ele>1644.4</ele>
      </trkpt>
      <trkpt lat="42.25815" lon="8.90121">
        <ele>1648.8</ele>
      </trkpt>
      <trkpt lat="42.25858" lon="8.90029">
        <ele>1619</ele>
      </trkpt>
      <trkpt lat="42.25892" lon="8.8994">
        <ele>1604.4</ele>
      </trkpt>
      <trkpt lat="42.25908" lon="8.89859">
        <ele>1588</ele>
      </trkpt>
      <trkpt lat="42.25946" lon="8.89777">
        <ele>1574.7</ele>
      </trkpt>
      <trkpt lat="42.26013" lon="8.8971">
        <ele>1556.1</ele>
      </trkpt>
      <trkpt lat="42.26005" lon="8.89688">
        <ele>1556.4</ele>
      </trkpt>
      <trkpt lat="42.2599" lon="8.89679">
        <ele>1560.9</ele>
      </trkpt>
      <trkpt lat="42.2604" lon="8.89639">
        <ele>1543.8</ele>
      </trkpt>
      <trkpt lat="42.2603" lon="8.89595">
        <ele>1542.2</ele>
      </trkpt>
      <trkpt lat="42.26072" lon="8.89595">
        <ele>1536.8</ele>
      </trkpt>
      <trkpt lat="42.2606" lon="8.89555">
        <ele>1528.9</ele>
      </trkpt>
      <trkpt lat="42.2609" lon="8.89575">
        <ele>1525.5</ele>
      </trkpt>
      <trkpt lat="42.26072" lon="8.89543">
        <ele>1527.2</ele>
      </trkpt>
      <trkpt lat="42.26112" lon="8.89561">
        <ele>1517.2</ele>
      </trkpt>
      <trkpt lat="42.26086" lon="8.89511">
        <ele>1516.5</ele>
      </trkpt>
      <trkpt lat="42.26119" lon="8.89515">
        <ele>1514.1</ele>
      </trkpt>
      <trkpt lat="42.26159" lon="8.89526">
        <ele>1510.5</ele>
      </trkpt>
      <trkpt lat="42.26189" lon="8.895">
        <ele>1496.4</ele>
      </trkpt>
      <trkpt lat="42.26199" lon="8.89514">
        <ele>1492.9</ele>
      </trkpt>
      <trkpt lat="42.26201" lon="8.89483">
        <ele>1490.9</ele>
      </trkpt>
      <trkpt lat="42.26225" lon="8.89501">
        <ele>1488.2</ele>
      </trkpt>
      <trkpt lat="42.26229" lon="8.8946">
        <ele>1486.5</ele>
      </trkpt>
      <trkpt lat="42.26266" lon="8.89441">
        <ele>1474.4</ele>
      </trkpt>
      <trkpt lat="42.26273" lon="8.89428">
        <ele>1474.1</ele>
      </trkpt>
      <trkpt lat="42.26274" lon="8.89391">
        <ele>1467.8</ele>
      </trkpt>
      <trkpt lat="42.26288" lon="8.894">
        <ele>1466.7</ele>
      </trkpt>
      <trkpt lat="42.26288" lon="8.89379">
        <ele>1465.2</ele>
      </trkpt>
      <trkpt lat="42.26278" lon="8.89354">
        <ele>1463.9</ele>
      </trkpt>
      <trkpt lat="42.26292" lon="8.89354">
        <ele>1463</ele>
      </trkpt>
      <trkpt lat="42.26305" lon="8.89362">
        <ele>1462.4</ele>
      </trkpt>
      <trkpt lat="42.2632" lon="8.89342">
        <ele>1458.3</ele>
      </trkpt>
      <trkpt lat="42.2632" lon="8.89327">
        <ele>1451.8</ele>
      </trkpt>
      <trkpt lat="42.26324" lon="8.89301">
        <ele>1450.2</ele>
      </trkpt>
      <trkpt lat="42.26329" lon="8.89297">
        <ele>1449.9</ele>
      </trkpt>
      <trkpt lat="42.26336" lon="8.89306">
        <ele>1445.9</ele>
      </trkpt>
      <trkpt lat="42.26334" lon="8.89316">
        <ele>1447.5</ele>
      </trkpt>
      <trkpt lat="42.26343" lon="8.89333">
        <ele>1449.1</ele>
      </trkpt>
      <trkpt lat="42.26345" lon="8.89352">
        <ele>1445.9</ele>
      </trkpt>
      <trkpt lat="42.26342" lon="8.89375">
        <ele>1445.6</ele>
      </trkpt>
      <trkpt lat="42.26347" lon="8.89386">
        <ele>1446</ele>
      </trkpt>
      <trkpt lat="42.26353" lon="8.89458">
        <ele>1443.8</ele>
      </trkpt>
      <trkpt lat="42.26361" lon="8.89483">
        <ele>1442.7</ele>
      </trkpt>
      <trkpt lat="42.2639" lon="8.89475">
        <ele>1433.3</ele>
      </trkpt>
      <trkpt lat="42.26442" lon="8.89494">
        <ele>1402.2</ele>
      </trkpt>
      <trkpt lat="42.26452" lon="8.89516">
        <ele>1393.1</ele>
      </trkpt>
      <trkpt lat="42.26462" lon="8.89516">
        <ele>1390.4</ele>
      </trkpt>
      <trkpt lat="42.26487" lon="8.89559">
        <ele>1382.6</ele>
      </trkpt>
      <trkpt lat="42.26497" lon="8.89558">
        <ele>1381.6</ele>
      </trkpt>
      <trkpt lat="42.26496" lon="8.89575">
        <ele>1375.9</ele>
      </trkpt>
      <trkpt lat="42.26505" lon="8.89574">
        <ele>1365.9</ele>
      </trkpt>
      <trkpt lat="42.26507" lon="8.89578">
        <ele>1366.3</ele>
      </trkpt>
      <trkpt lat="42.26513" lon="8.89577">
        <ele>1364.2</ele>
      </trkpt>
      <trkpt lat="42.26518" lon="8.89579">
        <ele>1363.1</ele>
      </trkpt>
      <trkpt lat="42.26521" lon="8.89555">
        <ele>1361.1</ele>
      </trkpt>
      <trkpt lat="42.26519" lon="8.89465">
        <ele>1369.5</ele>
      </trkpt>
      <trkpt lat="42.26508" lon="8.89402">
        <ele>1383.3</ele>
      </trkpt>
      <trkpt lat="42.26512" lon="8.89388">
        <ele>1384.4</ele>
      </trkpt>
      <trkpt lat="42.26526" lon="8.89379">
        <ele>1384.6</ele>
      </trkpt>
      <trkpt lat="42.26576" lon="8.89377">
        <ele>1380.1</ele>
      </trkpt>
      <trkpt lat="42.26595" lon="8.8939">
        <ele>1367.8</ele>
      </trkpt>
      <trkpt lat="42.26613" lon="8.89392">
        <ele>1367.4</ele>
      </trkpt>
      <trkpt lat="42.26663" lon="8.89351">
        <ele>1374.5</ele>
      </trkpt>
      <trkpt lat="42.26702" lon="8.89375">
        <ele>1361.4</ele>
      </trkpt>
      <trkpt lat="42.26714" lon="8.8937">
        <ele>1362</ele>
      </trkpt>
      <trkpt lat="42.26735" lon="8.89338">
        <ele>1368.5</ele>
      </trkpt>
      <trkpt lat="42.26741" lon="8.89321">
        <ele>1381.4</ele>
      </trkpt>
      <trkpt lat="42.26752" lon="8.89315">
        <ele>1379.9</ele>
      </trkpt>
      <trkpt lat="42.26767" lon="8.89337">
        <ele>1366.3</ele>
      </trkpt>
      <trkpt lat="42.26799" lon="8.89342">
        <ele>1362.9</ele>
      </trkpt>
      <trkpt lat="42.26846" lon="8.89365">
        <ele>1354.5</ele>
      </trkpt>
      <trkpt lat="42.26867" lon="8.89364">
        <ele>1352</ele>
      </trkpt>
      <trkpt lat="42.26885" lon="8.8936">
        <ele>1350.7</ele>
      </trkpt>
      <trkpt lat="42.269" lon="8.8933">
        <ele>1360.9</ele>
      </trkpt>
      <trkpt lat="42.26911" lon="8.89317">
        <ele>1360.9</ele>
      </trkpt>
      <trkpt lat="42.26952" lon="8.89163">
        <ele>1374.6</ele>
      </trkpt>
      <trkpt lat="42.26968" lon="8.8915">
        <ele>1370.6</ele>
      </trkpt>
      <trkpt lat="42.26989" lon="8.89114">
        <ele>1371.8</ele>
      </trkpt>
      <trkpt lat="42.27012" lon="8.89095">
        <ele>1364.6</ele>
      </trkpt>
      <trkpt lat="42.27059" lon="8.89076">
        <ele>1373.9</ele>
      </trkpt>
      <trkpt lat="42.27069" lon="8.89076">
        <ele>1372.9</ele>
      </trkpt>
      <trkpt lat="42.2707" lon="8.89095">
        <ele>1364.7</ele>
      </trkpt>
      <trkpt lat="42.27069" lon="8.8913">
        <ele>1360.1</ele>
      </trkpt>
      <trkpt lat="42.27099" lon="8.89209">
        <ele>1361.1</ele>
      </trkpt>
      <trkpt lat="42.27113" lon="8.8927">
        <ele>1348.1</ele>
      </trkpt>
      <trkpt lat="42.27201" lon="8.89456">
        <ele>1336.9</ele>
      </trkpt>
      <trkpt lat="42.27221" lon="8.89468">
        <ele>1336.4</ele>
      </trkpt>
      <trkpt lat="42.27239" lon="8.89467">
        <ele>1336.9</ele>
      </trkpt>
      <trkpt lat="42.27244" lon="8.89462">
        <ele>1337.8</ele>
      </trkpt>
      <trkpt lat="42.27256" lon="8.89457">
        <ele>1338.5</ele>
      </trkpt>
      <trkpt lat="42.27258" lon="8.89433">
        <ele>1344.1</ele>
      </trkpt>
      <trkpt lat="42.27299" lon="8.89428">
        <ele>1340.6</ele>
      </trkpt>
      <trkpt lat="42.27332" lon="8.8939">
        <ele>1359.5</ele>
      </trkpt>
      <trkpt lat="42.27355" lon="8.89382">
        <ele>1358.1</ele>
      </trkpt>
      <trkpt lat="42.27388" lon="8.8938">
        <ele>1356.6</ele>
      </trkpt>
      <trkpt lat="42.27422" lon="8.89353">
        <ele>1356</ele>
      </trkpt>
      <trkpt lat="42.27467" lon="8.89349">
        <ele>1349.6</ele>
      </trkpt>
      <trkpt lat="42.275" lon="8.8934">
        <ele>1351.5</ele>
      </trkpt>
      <trkpt lat="42.27521" lon="8.89321">
        <ele>1344.2</ele>
      </trkpt>
      <trkpt lat="42.27536" lon="8.89266">
        <ele>1342.4</ele>
      </trkpt>
      <trkpt lat="42.27525" lon="8.89188">
        <ele>1347.3</ele>
      </trkpt>
      <trkpt lat="42.27526" lon="8.8915">
        <ele>1350.8</ele>
      </trkpt>
      <trkpt lat="42.27523" lon="8.89122">
        <ele>1351.9</ele>
      </trkpt>
      <trkpt lat="42.2753" lon="8.89093">
        <ele>1353.3</ele>
      </trkpt>
      <trkpt lat="42.27546" lon="8.89076">
        <ele>1361.3</ele>
      </trkpt>
      <trkpt lat="42.2759" lon="8.89064">
        <ele>1346.2</ele>
      </trkpt>
      <trkpt lat="42.27608" lon="8.89029">
        <ele>1353.5</ele>
      </trkpt>
      <trkpt lat="42.27626" lon="8.89027">
        <ele>1352.2</ele>
      </trkpt>
      <trkpt lat="42.2765" lon="8.89034">
        <ele>1350</ele>
      </trkpt>
      <trkpt lat="42.27683" lon="8.89029">
        <ele>1344.2</ele>
      </trkpt>
      <trkpt lat="42.27705" lon="8.89039">
        <ele>1341.1</ele>
      </trkpt>
      <trkpt lat="42.27728" lon="8.89036">
        <ele>1340.4</ele>
      </trkpt>
      <trkpt lat="42.27745" lon="8.89021">
        <ele>1341.7</ele>
      </trkpt>
      <trkpt lat="42.27763" lon="8.88968">
        <ele>1351.1</ele>
      </trkpt>
      <trkpt lat="42.27771" lon="8.88958">
        <ele>1352.7</ele>
      </trkpt>
      <trkpt lat="42.2778" lon="8.88955">
        <ele>1352.9</ele>
      </trkpt>
      <trkpt lat="42.27816" lon="8.88966">
        <ele>1350.3</ele>
      </trkpt>
      <trkpt lat="42.27829" lon="8.88947">
        <ele>1354.3</ele>
      </trkpt>
      <trkpt lat="42.27847" lon="8.88953">
        <ele>1351.3</ele>
      </trkpt>
      <trkpt lat="42.27897" lon="8.88935">
        <ele>1354.5</ele>
      </trkpt>
      <trkpt lat="42.27915" lon="8.88921">
        <ele>1361</ele>
      </trkpt>
      <trkpt lat="42.27926" lon="8.88921">
        <ele>1360.9</ele>
      </trkpt>
      <trkpt lat="42.27941" lon="8.88933">
        <ele>1359</ele>
      </trkpt>
      <trkpt lat="42.2795" lon="8.8895">
        <ele>1357.1</ele>
      </trkpt>
      <trkpt lat="42.27967" lon="8.88958">
        <ele>1357</ele>
      </trkpt>
      <trkpt lat="42.27986" lon="8.89004">
        <ele>1341.6</ele>
      </trkpt>
      <trkpt lat="42.28078" lon="8.8908">
        <ele>1344.8</ele>
      </trkpt>
      <trkpt lat="42.28149" lon="8.89097">
        <ele>1348.5</ele>
      </trkpt>
      <trkpt lat="42.28194" lon="8.89202">
        <ele>1337.5</ele>
      </trkpt>
      <trkpt lat="42.28211" lon="8.89203">
        <ele>1339.5</ele>
      </trkpt>
      <trkpt lat="42.28232" lon="8.89199">
        <ele>1343.3</ele>
      </trkpt>
      <trkpt lat="42.28258" lon="8.89186">
        <ele>1362.1</ele>
      </trkpt>
      <trkpt lat="42.28268" lon="8.89223">
        <ele>1356</ele>
      </trkpt>
      <trkpt lat="42.28294" lon="8.89248">
        <ele>1358.8</ele>
      </trkpt>
      <trkpt lat="42.28304" lon="8.89273">
        <ele>1347.7</ele>
      </trkpt>
      <trkpt lat="42.28291" lon="8.89399">
        <ele>1334.6</ele>
      </trkpt>
      <trkpt lat="42.28312" lon="8.89488">
        <ele>1334</ele>
      </trkpt>
      <trkpt lat="42.28334" lon="8.89521">
        <ele>1343.6</ele>
      </trkpt>
      <trkpt lat="42.28342" lon="8.89522">
        <ele>1344</ele>
      </trkpt>
      <trkpt lat="42.2835" lon="8.89503">
        <ele>1345</ele>
      </trkpt>
      <trkpt lat="42.28367" lon="8.89486">
        <ele>1355.1</ele>
      </trkpt>
      <trkpt lat="42.28385" lon="8.8947">
        <ele>1358.4</ele>
      </trkpt>
      <trkpt lat="42.28426" lon="8.8948">
        <ele>1372.6</ele>
      </trkpt>
      <trkpt lat="42.28506" lon="8.89429">
        <ele>1392.1</ele>
      </trkpt>
      <trkpt lat="42.2856" lon="8.89419">
        <ele>1398.6</ele>
      </trkpt>
      <trkpt lat="42.28605" lon="8.89468">
        <ele>1403.8</ele>
      </trkpt>
      <trkpt lat="42.28639" lon="8.89468">
        <ele>1404.1</ele>
      </trkpt>
      <trkpt lat="42.28658" lon="8.89219">
        <ele>1415.4</ele>
      </trkpt>
      <trkpt lat="42.28683" lon="8.8917">
        <ele>1416</ele>
      </trkpt>
      <trkpt lat="42.28743" lon="8.89187">
        <ele>1414.7</ele>
      </trkpt>
      <trkpt lat="42.28777" lon="8.8915">
        <ele>1414.3</ele>
      </trkpt>
      <trkpt lat="42.28796" lon="8.89157">
        <ele>1412.2</ele>
      </trkpt>
      <trkpt lat="42.28812" lon="8.89121">
        <ele>1412.4</ele>
      </trkpt>
      <trkpt lat="42.28814" lon="8.89042">
        <ele>1419.6</ele>
      </trkpt>
      <trkpt lat="42.28881" lon="8.8893">
        <ele>1413.2</ele>
      </trkpt>
      <trkpt lat="42.28921" lon="8.88886">
        <ele>1400.2</ele>
      </trkpt>
      <trkpt lat="42.28929" lon="8.8879">
        <ele>1404.4</ele>
      </trkpt>
      <trkpt lat="42.28944" lon="8.88712">
        <ele>1402.3</ele>
      </trkpt>
      <trkpt lat="42.28932" lon="8.8867">
        <ele>1405.9</ele>
      </trkpt>
      <trkpt lat="42.28894" lon="8.8863">
        <ele>1418.6</ele>
      </trkpt>
      <trkpt lat="42.28887" lon="8.88613">
        <ele>1419.1</ele>
      </trkpt>
      <trkpt lat="42.28891" lon="8.88589">
        <ele>1417.5</ele>
      </trkpt>
      <trkpt lat="42.28936" lon="8.88532">
        <ele>1411.2</ele>
      </trkpt>
      <trkpt lat="42.2896" lon="8.88463">
        <ele>1422.8</ele>
      </trkpt>
      <trkpt lat="42.29015" lon="8.88405">
        <ele>1417.1</ele>
      </trkpt>
      <trkpt lat="42.29035" lon="8.88348">
        <ele>1418.1</ele>
      </trkpt>
      <trkpt lat="42.29042" lon="8.88289">
        <ele>1425.4</ele>
      </trkpt>
      <trkpt lat="42.29081" lon="8.88218">
        <ele>1428.3</ele>
      </trkpt>
      <trkpt lat="42.29096" lon="8.88212">
        <ele>1422</ele>
      </trkpt>
      <trkpt lat="42.29123" lon="8.88235">
        <ele>1420.8</ele>
      </trkpt>
      <trkpt lat="42.2915" lon="8.88238">
        <ele>1419.5</ele>
      </trkpt>
      <trkpt lat="42.2918" lon="8.8828">
        <ele>1412.7</ele>
      </trkpt>
      <trkpt lat="42.29194" lon="8.88263">
        <ele>1413.6</ele>
      </trkpt>
      <trkpt lat="42.29228" lon="8.88253">
        <ele>1415.3</ele>
      </trkpt>
      <trkpt lat="42.29247" lon="8.88236">
        <ele>1422.1</ele>
      </trkpt>
      <trkpt lat="42.29279" lon="8.88233">
        <ele>1425.9</ele>
      </trkpt>
      <trkpt lat="42.29312" lon="8.88218">
        <ele>1427.7</ele>
      </trkpt>
      <trkpt lat="42.29364" lon="8.88231">
        <ele>1423.7</ele>
      </trkpt>
      <trkpt lat="42.29468" lon="8.88172">
        <ele>1422.9</ele>
      </trkpt>
      <trkpt lat="42.29572" lon="8.88248">
        <ele>1411.8</ele>
      </trkpt>
      <trkpt lat="42.296" lon="8.88254">
        <ele>1400.1</ele>
      </trkpt>
      <trkpt lat="42.29701" lon="8.88143">
        <ele>1393</ele>
      </trkpt>
      <trkpt lat="42.29709" lon="8.88106">
        <ele>1393.7</ele>
      </trkpt>
      <trkpt lat="42.29709" lon="8.88072">
        <ele>1402</ele>
      </trkpt>
      <trkpt lat="42.29746" lon="8.88041">
        <ele>1401</ele>
      </trkpt>
      <trkpt lat="42.29771" lon="8.88037">
        <ele>1396.2</ele>
      </trkpt>
      <trkpt lat="42.29786" lon="8.88064">
        <ele>1393.3</ele>
      </trkpt>
      <trkpt lat="42.29822" lon="8.88061">
        <ele>1392.7</ele>
      </trkpt>
      <trkpt lat="42.29955" lon="8.8818">
        <ele>1371.6</ele>
      </trkpt>
      <trkpt lat="42.29987" lon="8.882">
        <ele>1373.1</ele>
      </trkpt>
      <trkpt lat="42.30005" lon="8.88238">
        <ele>1368.9</ele>
      </trkpt>
      <trkpt lat="42.30015" lon="8.88238">
        <ele>1368</ele>
      </trkpt>
      <trkpt lat="42.30025" lon="8.8819">
        <ele>1370.5</ele>
      </trkpt>
      <trkpt lat="42.30048" lon="8.88136">
        <ele>1379.4</ele>
      </trkpt>
      <trkpt lat="42.30082" lon="8.88085">
        <ele>1378.3</ele>
      </trkpt>
      <trkpt lat="42.30171" lon="8.8789">
        <ele>1367.5</ele>
      </trkpt>
      <trkpt lat="42.30187" lon="8.87834">
        <ele>1371.1</ele>
      </trkpt>
      <trkpt lat="42.30184" lon="8.8779">
        <ele>1378.9</ele>
      </trkpt>
      <trkpt lat="42.30207" lon="8.87774">
        <ele>1376.1</ele>
      </trkpt>
      <trkpt lat="42.30215" lon="8.87743">
        <ele>1387.8</ele>
      </trkpt>
      <trkpt lat="42.30233" lon="8.87713">
        <ele>1388.5</ele>
      </trkpt>
      <trkpt lat="42.30273" lon="8.87692">
        <ele>1367.2</ele>
      </trkpt>
      <trkpt lat="42.30281" lon="8.87667">
        <ele>1368.6</ele>
      </trkpt>
      <trkpt lat="42.30299" lon="8.87652">
        <ele>1376.5</ele>
      </trkpt>
      <trkpt lat="42.30307" lon="8.87609">
        <ele>1380.1</ele>
      </trkpt>
      <trkpt lat="42.30299" lon="8.87585">
        <ele>1383.1</ele>
      </trkpt>
      <trkpt lat="42.30297" lon="8.87559">
        <ele>1399.6</ele>
      </trkpt>
      <trkpt lat="42.30303" lon="8.87539">
        <ele>1401.6</ele>
      </trkpt>
      <trkpt lat="42.30315" lon="8.87533">
        <ele>1400.6</ele>
      </trkpt>
      <trkpt lat="42.30336" lon="8.8751">
        <ele>1397.1</ele>
      </trkpt>
      <trkpt lat="42.30338" lon="8.87494">
        <ele>1405.1</ele>
      </trkpt>
      <trkpt lat="42.30343" lon="8.87488">
        <ele>1408.7</ele>
      </trkpt>
      <trkpt lat="42.3035" lon="8.8749">
        <ele>1410.2</ele>
      </trkpt>
      <trkpt lat="42.3036" lon="8.87518">
        <ele>1394.8</ele>
      </trkpt>
      <trkpt lat="42.30371" lon="8.87523">
        <ele>1394.6</ele>
      </trkpt>
      <trkpt lat="42.30374" lon="8.87535">
        <ele>1393</ele>
      </trkpt>
      <trkpt lat="42.30395" lon="8.8756">
        <ele>1389.7</ele>
      </trkpt>
      <trkpt lat="42.30408" lon="8.87556">
        <ele>1390.3</ele>
      </trkpt>
      <trkpt lat="42.30418" lon="8.87562">
        <ele>1401.4</ele>
      </trkpt>
      <trkpt lat="42.30419" lon="8.87567">
        <ele>1398.9</ele>
      </trkpt>
      <trkpt lat="42.30431" lon="8.87568">
        <ele>1401.8</ele>
      </trkpt>
      <trkpt lat="42.30448" lon="8.87577">
        <ele>1407</ele>
      </trkpt>
      <trkpt lat="42.30465" lon="8.8761">
        <ele>1387.6</ele>
      </trkpt>
      <trkpt lat="42.30473" lon="8.87616">
        <ele>1387.8</ele>
      </trkpt>
      <trkpt lat="42.30474" lon="8.87628">
        <ele>1385.1</ele>
      </trkpt>
      <trkpt lat="42.30487" lon="8.87647">
        <ele>1382.9</ele>
      </trkpt>
      <trkpt lat="42.305" lon="8.87648">
        <ele>1383.2</ele>
      </trkpt>
      <trkpt lat="42.30546" lon="8.87696">
        <ele>1385.1</ele>
      </trkpt>
      <trkpt lat="42.30552" lon="8.87706">
        <ele>1385</ele>
      </trkpt>
      <trkpt lat="42.30571" lon="8.87713">
        <ele>1386.8</ele>
      </trkpt>
      <trkpt lat="42.30586" lon="8.87708">
        <ele>1401.6</ele>
      </trkpt>
      <trkpt lat="42.30602" lon="8.87709">
        <ele>1402.3</ele>
      </trkpt>
      <trkpt lat="42.30608" lon="8.87718">
        <ele>1401.9</ele>
      </trkpt>
      <trkpt lat="42.30634" lon="8.8772">
        <ele>1404.4</ele>
      </trkpt>
      <trkpt lat="42.30663" lon="8.87711">
        <ele>1406.7</ele>
      </trkpt>
      <trkpt lat="42.30689" lon="8.87709">
        <ele>1417.3</ele>
      </trkpt>
      <trkpt lat="42.30693" lon="8.87737">
        <ele>1416.4</ele>
      </trkpt>
      <trkpt lat="42.30695" lon="8.87745">
        <ele>1416.5</ele>
      </trkpt>
      <trkpt lat="42.30689" lon="8.87761">
        <ele>1424.2</ele>
      </trkpt>
      <trkpt lat="42.30715" lon="8.87758">
        <ele>1430.2</ele>
      </trkpt>
      <trkpt lat="42.30721" lon="8.87753">
        <ele>1430.4</ele>
      </trkpt>
      <trkpt lat="42.30743" lon="8.87749">
        <ele>1426.5</ele>
      </trkpt>
      <trkpt lat="42.30759" lon="8.87741">
        <ele>1432.9</ele>
      </trkpt>
      <trkpt lat="42.30778" lon="8.87736">
        <ele>1437.5</ele>
      </trkpt>
      <trkpt lat="42.30797" lon="8.87721">
        <ele>1440.5</ele>
      </trkpt>
      <trkpt lat="42.30803" lon="8.87718">
        <ele>1441.2</ele>
      </trkpt>
      <trkpt lat="42.308" lon="8.87735">
        <ele>1442.6</ele>
      </trkpt>
      <trkpt lat="42.30806" lon="8.87733">
        <ele>1444</ele>
      </trkpt>
      <trkpt lat="42.30818" lon="8.8772">
        <ele>1444.1</ele>
      </trkpt>
      <trkpt lat="42.30825" lon="8.87703">
        <ele>1441.7</ele>
      </trkpt>
      <trkpt lat="42.30834" lon="8.87704">
        <ele>1463.4</ele>
      </trkpt>
      <trkpt lat="42.30857" lon="8.87677">
        <ele>1461.1</ele>
      </trkpt>
      <trkpt lat="42.30867" lon="8.87673">
        <ele>1465.3</ele>
      </trkpt>
      <trkpt lat="42.30877" lon="8.87665">
        <ele>1459.3</ele>
      </trkpt>
      <trkpt lat="42.30881" lon="8.87651">
        <ele>1460.1</ele>
      </trkpt>
      <trkpt lat="42.30886" lon="8.87651">
        <ele>1461.7</ele>
      </trkpt>
      <trkpt lat="42.30888" lon="8.87644">
        <ele>1461.5</ele>
      </trkpt>
      <trkpt lat="42.30893" lon="8.87643">
        <ele>1462.8</ele>
      </trkpt>
      <trkpt lat="42.30895" lon="8.87637">
        <ele>1462.1</ele>
      </trkpt>
      <trkpt lat="42.30905" lon="8.87631">
        <ele>1462.4</ele>
      </trkpt>
      <trkpt lat="42.30933" lon="8.87579">
        <ele>1473.4</ele>
      </trkpt>
      <trkpt lat="42.30944" lon="8.87573">
        <ele>1480</ele>
      </trkpt>
      <trkpt lat="42.30951" lon="8.87563">
        <ele>1483.8</ele>
      </trkpt>
      <trkpt lat="42.30958" lon="8.87539">
        <ele>1487.2</ele>
      </trkpt>
      <trkpt lat="42.30966" lon="8.87534">
        <ele>1488.5</ele>
      </trkpt>
      <trkpt lat="42.30971" lon="8.87526">
        <ele>1489.6</ele>
      </trkpt>
      <trkpt lat="42.3098" lon="8.87529">
        <ele>1490.6</ele>
      </trkpt>
      <trkpt lat="42.30987" lon="8.87522">
        <ele>1491.8</ele>
      </trkpt>
      <trkpt lat="42.30991" lon="8.87533">
        <ele>1491.7</ele>
      </trkpt>
      <trkpt lat="42.31002" lon="8.87503">
        <ele>1501.8</ele>
      </trkpt>
      <trkpt lat="42.31002" lon="8.8749">
        <ele>1507</ele>
      </trkpt>
      <trkpt lat="42.30996" lon="8.87483">
        <ele>1499.1</ele>
      </trkpt>
      <trkpt lat="42.31006" lon="8.87444">
        <ele>1516.8</ele>
      </trkpt>
      <trkpt lat="42.31003" lon="8.87404">
        <ele>1515.6</ele>
      </trkpt>
      <trkpt lat="42.31" lon="8.87395">
        <ele>1520.2</ele>
      </trkpt>
      <trkpt lat="42.31001" lon="8.87368">
        <ele>1526.2</ele>
      </trkpt>
      <trkpt lat="42.30991" lon="8.87333">
        <ele>1521.2</ele>
      </trkpt>
      <trkpt lat="42.30991" lon="8.87321">
        <ele>1524.6</ele>
      </trkpt>
      <trkpt lat="42.30987" lon="8.87309">
        <ele>1529.8</ele>
      </trkpt>
      <trkpt lat="42.30994" lon="8.87296">
        <ele>1531.8</ele>
      </trkpt>
      <trkpt lat="42.31004" lon="8.87289">
        <ele>1540.1</ele>
      </trkpt>
      <trkpt lat="42.31004" lon="8.87264">
        <ele>1538</ele>
      </trkpt>
      <trkpt lat="42.31004" lon="8.87242">
        <ele>1538.7</ele>
      </trkpt>
      <trkpt lat="42.31" lon="8.87222">
        <ele>1546.6</ele>
      </trkpt>
      <trkpt lat="42.31009" lon="8.87216">
        <ele>1549.1</ele>
      </trkpt>
      <trkpt lat="42.31008" lon="8.87178">
        <ele>1545.7</ele>
      </trkpt>
      <trkpt lat="42.31022" lon="8.87168">
        <ele>1549.9</ele>
      </trkpt>
      <trkpt lat="42.31023" lon="8.87153">
        <ele>1551.3</ele>
      </trkpt>
      <trkpt lat="42.31017" lon="8.87142">
        <ele>1551.3</ele>
      </trkpt>
      <trkpt lat="42.31023" lon="8.87092">
        <ele>1553.2</ele>
      </trkpt>
      <trkpt lat="42.31018" lon="8.87067">
        <ele>1555.3</ele>
      </trkpt>
      <trkpt lat="42.31031" lon="8.87054">
        <ele>1557.9</ele>
      </trkpt>
      <trkpt lat="42.31048" lon="8.87048">
        <ele>1559.4</ele>
      </trkpt>
      <trkpt lat="42.31053" lon="8.87036">
        <ele>1560.1</ele>
      </trkpt>
      <trkpt lat="42.31081" lon="8.87019">
        <ele>1562.2</ele>
      </trkpt>
      <trkpt lat="42.31093" lon="8.87008">
        <ele>1567.8</ele>
      </trkpt>
      <trkpt lat="42.3111" lon="8.87">
        <ele>1570.1</ele>
      </trkpt>
      <trkpt lat="42.31129" lon="8.86982">
        <ele>1572.7</ele>
      </trkpt>
      <trkpt lat="42.31136" lon="8.86973">
        <ele>1573.2</ele>
      </trkpt>
      <trkpt lat="42.31145" lon="8.86966">
        <ele>1573.7</ele>
      </trkpt>
      <trkpt lat="42.31163" lon="8.86934">
        <ele>1575.5</ele>
      </trkpt>
      <trkpt lat="42.31202" lon="8.86919">
        <ele>1578.3</ele>
      </trkpt>
      <trkpt lat="42.31217" lon="8.86908">
        <ele>1587.5</ele>
      </trkpt>
      <trkpt lat="42.31229" lon="8.86904">
        <ele>1586.1</ele>
      </trkpt>
      <trkpt lat="42.31245" lon="8.86885">
        <ele>1588.5</ele>
      </trkpt>
      <trkpt lat="42.31247" lon="8.86877">
        <ele>1590.2</ele>
      </trkpt>
      <trkpt lat="42.31264" lon="8.86876">
        <ele>1585</ele>
      </trkpt>
      <trkpt lat="42.31294" lon="8.86854">
        <ele>1586.3</ele>
      </trkpt>
      <trkpt lat="42.31322" lon="8.86843">
        <ele>1585.6</ele>
      </trkpt>
      <trkpt lat="42.31329" lon="8.86825">
        <ele>1590.9</ele>
      </trkpt>
      <trkpt lat="42.31343" lon="8.8682">
        <ele>1591.5</ele>
      </trkpt>
      <trkpt lat="42.31362" lon="8.86817">
        <ele>1594.3</ele>
      </trkpt>
      <trkpt lat="42.31388" lon="8.86816">
        <ele>1595.1</ele>
      </trkpt>
      <trkpt lat="42.31398" lon="8.86815">
        <ele>1594.8</ele>
      </trkpt>
      <trkpt lat="42.31417" lon="8.86817">
        <ele>1595.8</ele>
      </trkpt>
      <trkpt lat="42.31439" lon="8.86811">
        <ele>1599.1</ele>
      </trkpt>
      <trkpt lat="42.31524" lon="8.86819">
        <ele>1607.1</ele>
      </trkpt>
      <trkpt lat="42.31534" lon="8.86804">
        <ele>1608.9</ele>
      </trkpt>
      <trkpt lat="42.31552" lon="8.86796">
        <ele>1610.1</ele>
      </trkpt>
      <trkpt lat="42.31577" lon="8.86797">
        <ele>1610.7</ele>
      </trkpt>
      <trkpt lat="42.31594" lon="8.8679">
        <ele>1616</ele>
      </trkpt>
      <trkpt lat="42.31623" lon="8.86801">
        <ele>1616.6</ele>
      </trkpt>
      <trkpt lat="42.3164" lon="8.86799">
        <ele>1617.5</ele>
      </trkpt>
      <trkpt lat="42.3164" lon="8.86811">
        <ele>1616.8</ele>
      </trkpt>
      <trkpt lat="42.31657" lon="8.86815">
        <ele>1617</ele>
      </trkpt>
      <trkpt lat="42.31772" lon="8.86811">
        <ele>1639.3</ele>
      </trkpt>
      <trkpt lat="42.31789" lon="8.86822">
        <ele>1641.2</ele>
      </trkpt>
      <trkpt lat="42.31805" lon="8.86848">
        <ele>1637.2</ele>
      </trkpt>
      <trkpt lat="42.31819" lon="8.86855">
        <ele>1638.6</ele>
      </trkpt>
      <trkpt lat="42.31847" lon="8.86899">
        <ele>1646.9</ele>
      </trkpt>
      <trkpt lat="42.3186" lon="8.86903">
        <ele>1649</ele>
      </trkpt>
      <trkpt lat="42.31872" lon="8.86921">
        <ele>1648.1</ele>
      </trkpt>
      <trkpt lat="42.31903" lon="8.86931">
        <ele>1651.6</ele>
      </trkpt>
      <trkpt lat="42.31928" lon="8.86952">
        <ele>1655.8</ele>
      </trkpt>
      <trkpt lat="42.32016" lon="8.86951">
        <ele>1660.9</ele>
      </trkpt>
      <trkpt lat="42.32061" lon="8.86935">
        <ele>1663</ele>
      </trkpt>
      <trkpt lat="42.32132" lon="8.86931">
        <ele>1666</ele>
      </trkpt>
      <trkpt lat="42.3216" lon="8.86917">
        <ele>1668.8</ele>
      </trkpt>
      <trkpt lat="42.32239" lon="8.86911">
        <ele>1682</ele>
      </trkpt>
      <trkpt lat="42.32252" lon="8.86918">
        <ele>1680.2</ele>
      </trkpt>
      <trkpt lat="42.32289" lon="8.86888">
        <ele>1688.1</ele>
      </trkpt>
      <trkpt lat="42.32314" lon="8.86882">
        <ele>1688.9</ele>
      </trkpt>
      <trkpt lat="42.32342" lon="8.8684">
        <ele>1696.5</ele>
      </trkpt>
      <trkpt lat="42.32362" lon="8.86751">
        <ele>1712.5</ele>
      </trkpt>
      <trkpt lat="42.32339" lon="8.86698">
        <ele>1733.7</ele>
      </trkpt>
      <trkpt lat="42.32336" lon="8.86631">
        <ele>1752.1</ele>
      </trkpt>
      <trkpt lat="42.32347" lon="8.8661">
        <ele>1755.6</ele>
      </trkpt>
      <trkpt lat="42.32309" lon="8.8653">
        <ele>1779.6</ele>
      </trkpt>
      <trkpt lat="42.32305" lon="8.86481">
        <ele>1798.5</ele>
      </trkpt>
      <trkpt lat="42.32285" lon="8.86451">
        <ele>1804.8</ele>
      </trkpt>
      <trkpt lat="42.32305" lon="8.86382">
        <ele>1826.9</ele>
      </trkpt>
      <trkpt lat="42.3232" lon="8.86361">
        <ele>1830.2</ele>
      </trkpt>
      <trkpt lat="42.32347" lon="8.86251">
        <ele>1845</ele>
      </trkpt>
      <trkpt lat="42.32409" lon="8.86129">
        <ele>1854.9</ele>
      </trkpt>
      <trkpt lat="42.3246" lon="8.86105">
        <ele>1856.4</ele>
      </trkpt>
      <trkpt lat="42.325" lon="8.86067">
        <ele>1866.2</ele>
      </trkpt>
      <trkpt lat="42.32539" lon="8.86056">
        <ele>1870.7</ele>
      </trkpt>
      <trkpt lat="42.32636" lon="8.86073">
        <ele>1881.7</ele>
      </trkpt>
      <trkpt lat="42.32682" lon="8.86071">
        <ele>1888.7</ele>
      </trkpt>
      <trkpt lat="42.32795" lon="8.86135">
        <ele>1917.1</ele>
      </trkpt>
      <trkpt lat="42.32831" lon="8.86168">
        <ele>1932.5</ele>
      </trkpt>
      <trkpt lat="42.3285" lon="8.86168">
        <ele>1932.5</ele>
      </trkpt>
      <trkpt lat="42.32899" lon="8.86172">
        <ele>1934.1</ele>
      </trkpt>
      <trkpt lat="42.3302" lon="8.86159">
        <ele>1947.1</ele>
      </trkpt>
      <trkpt lat="42.33098" lon="8.8618">
        <ele>1960.5</ele>
      </trkpt>
      <trkpt lat="42.33123" lon="8.86219">
        <ele>1961.3</ele>
      </trkpt>
      <trkpt lat="42.33142" lon="8.86223">
        <ele>1964.4</ele>
      </trkpt>
      <trkpt lat="42.33207" lon="8.86301">
        <ele>1973.3</ele>
      </trkpt>
      <trkpt lat="42.33328" lon="8.86393">
        <ele>1990.7</ele>
      </trkpt>
      <trkpt lat="42.33336" lon="8.86427">
        <ele>1995.5</ele>
      </trkpt>
      <trkpt lat="42.33377" lon="8.86483">
        <ele>1994.8</ele>
      </trkpt>
      <trkpt lat="42.33442" lon="8.86642">
        <ele>2001.9</ele>
      </trkpt>
      <trkpt lat="42.33455" lon="8.86717">
        <ele>1995.2</ele>
      </trkpt>
      <trkpt lat="42.33491" lon="8.8679">
        <ele>1987.7</ele>
      </trkpt>
      <trkpt lat="42.33504" lon="8.86812">
        <ele>2001.9</ele>
      </trkpt>
    </trkseg>
  </trk>
  <trk>
    <name><![CDATA[GR20 Nord en 6 jours_4]]></name>
    <trkseg>
      <trkpt lat="42.33504" lon="8.86813">
        <ele>2001.5</ele>
      </trkpt>
      <trkpt lat="42.33553" lon="8.86893">
        <ele>1998.2</ele>
      </trkpt>
      <trkpt lat="42.33539" lon="8.87045">
        <ele>2004.9</ele>
      </trkpt>
      <trkpt lat="42.33497" lon="8.87161">
        <ele>2006.6</ele>
      </trkpt>
      <trkpt lat="42.33504" lon="8.872">
        <ele>2031.1</ele>
      </trkpt>
      <trkpt lat="42.33475" lon="8.87307">
        <ele>2028.4</ele>
      </trkpt>
      <trkpt lat="42.33472" lon="8.87361">
        <ele>2037.9</ele>
      </trkpt>
      <trkpt lat="42.33374" lon="8.87528">
        <ele>2006.4</ele>
      </trkpt>
      <trkpt lat="42.33301" lon="8.87646">
        <ele>1976.2</ele>
      </trkpt>
      <trkpt lat="42.3325" lon="8.87657">
        <ele>1965.1</ele>
      </trkpt>
      <trkpt lat="42.33299" lon="8.87783">
        <ele>1926.5</ele>
      </trkpt>
      <trkpt lat="42.33323" lon="8.87801">
        <ele>1921.7</ele>
      </trkpt>
      <trkpt lat="42.33321" lon="8.8782">
        <ele>1915.1</ele>
      </trkpt>
      <trkpt lat="42.33356" lon="8.8782">
        <ele>1922.7</ele>
      </trkpt>
      <trkpt lat="42.33367" lon="8.87863">
        <ele>1896.4</ele>
      </trkpt>
      <trkpt lat="42.33424" lon="8.87897">
        <ele>1904.9</ele>
      </trkpt>
      <trkpt lat="42.33418" lon="8.87923">
        <ele>1886</ele>
      </trkpt>
      <trkpt lat="42.33437" lon="8.87949">
        <ele>1889.9</ele>
      </trkpt>
      <trkpt lat="42.33426" lon="8.87983">
        <ele>1877.5</ele>
      </trkpt>
      <trkpt lat="42.33388" lon="8.87994">
        <ele>1857.9</ele>
      </trkpt>
      <trkpt lat="42.33396" lon="8.88019">
        <ele>1837.6</ele>
      </trkpt>
      <trkpt lat="42.3339" lon="8.88037">
        <ele>1831.6</ele>
      </trkpt>
      <trkpt lat="42.3341" lon="8.88049">
        <ele>1831.4</ele>
      </trkpt>
      <trkpt lat="42.33399" lon="8.88084">
        <ele>1810.9</ele>
      </trkpt>
      <trkpt lat="42.33409" lon="8.8809">
        <ele>1816.3</ele>
      </trkpt>
      <trkpt lat="42.3338" lon="8.8814">
        <ele>1790.8</ele>
      </trkpt>
      <trkpt lat="42.33394" lon="8.88142">
        <ele>1791.7</ele>
      </trkpt>
      <trkpt lat="42.33394" lon="8.88167">
        <ele>1768.2</ele>
      </trkpt>
      <trkpt lat="42.3338" lon="8.88167">
        <ele>1764</ele>
      </trkpt>
      <trkpt lat="42.33385" lon="8.882">
        <ele>1758.5</ele>
      </trkpt>
      <trkpt lat="42.33409" lon="8.88212">
        <ele>1756.6</ele>
      </trkpt>
      <trkpt lat="42.33431" lon="8.88294">
        <ele>1750.1</ele>
      </trkpt>
      <trkpt lat="42.33439" lon="8.88356">
        <ele>1723.1</ele>
      </trkpt>
      <trkpt lat="42.3347" lon="8.8841">
        <ele>1723.5</ele>
      </trkpt>
      <trkpt lat="42.33467" lon="8.88446">
        <ele>1695.4</ele>
      </trkpt>
      <trkpt lat="42.33491" lon="8.88481">
        <ele>1691.3</ele>
      </trkpt>
      <trkpt lat="42.33469" lon="8.88571">
        <ele>1652.4</ele>
      </trkpt>
      <trkpt lat="42.33543" lon="8.88719">
        <ele>1617</ele>
      </trkpt>
      <trkpt lat="42.33561" lon="8.88725">
        <ele>1617.7</ele>
      </trkpt>
      <trkpt lat="42.33572" lon="8.8874">
        <ele>1615.5</ele>
      </trkpt>
      <trkpt lat="42.33553" lon="8.8883">
        <ele>1588</ele>
      </trkpt>
      <trkpt lat="42.33559" lon="8.88878">
        <ele>1562.7</ele>
      </trkpt>
      <trkpt lat="42.33543" lon="8.88948">
        <ele>1532.8</ele>
      </trkpt>
      <trkpt lat="42.33534" lon="8.89071">
        <ele>1502.2</ele>
      </trkpt>
      <trkpt lat="42.33558" lon="8.89103">
        <ele>1490.1</ele>
      </trkpt>
      <trkpt lat="42.33553" lon="8.89139">
        <ele>1483.5</ele>
      </trkpt>
      <trkpt lat="42.33572" lon="8.89189">
        <ele>1469.4</ele>
      </trkpt>
      <trkpt lat="42.33588" lon="8.89288">
        <ele>1464.8</ele>
      </trkpt>
      <trkpt lat="42.33588" lon="8.89345">
        <ele>1443.1</ele>
      </trkpt>
      <trkpt lat="42.33605" lon="8.89386">
        <ele>1444.9</ele>
      </trkpt>
      <trkpt lat="42.33597" lon="8.89408">
        <ele>1436.3</ele>
      </trkpt>
      <trkpt lat="42.33613" lon="8.89468">
        <ele>1429.4</ele>
      </trkpt>
      <trkpt lat="42.33607" lon="8.89551">
        <ele>1415.5</ele>
      </trkpt>
      <trkpt lat="42.33677" lon="8.89607">
        <ele>1438.4</ele>
      </trkpt>
      <trkpt lat="42.33651" lon="8.89631">
        <ele>1413.5</ele>
      </trkpt>
      <trkpt lat="42.33653" lon="8.89669">
        <ele>1409.3</ele>
      </trkpt>
      <trkpt lat="42.33689" lon="8.89704">
        <ele>1428.2</ele>
      </trkpt>
      <trkpt lat="42.33697" lon="8.89768">
        <ele>1413.6</ele>
      </trkpt>
      <trkpt lat="42.33691" lon="8.89809">
        <ele>1406.2</ele>
      </trkpt>
      <trkpt lat="42.3374" lon="8.89835">
        <ele>1417.4</ele>
      </trkpt>
      <trkpt lat="42.33767" lon="8.89903">
        <ele>1426.4</ele>
      </trkpt>
      <trkpt lat="42.33734" lon="8.89929">
        <ele>1384.9</ele>
      </trkpt>
      <trkpt lat="42.33807" lon="8.8997">
        <ele>1422.6</ele>
      </trkpt>
      <trkpt lat="42.33831" lon="8.90015">
        <ele>1417.4</ele>
      </trkpt>
      <trkpt lat="42.33804" lon="8.90049">
        <ele>1401.2</ele>
      </trkpt>
      <trkpt lat="42.33848" lon="8.90081">
        <ele>1421.6</ele>
      </trkpt>
      <trkpt lat="42.33867" lon="8.90253">
        <ele>1387.8</ele>
      </trkpt>
      <trkpt lat="42.339" lon="8.90255">
        <ele>1389.5</ele>
      </trkpt>
      <trkpt lat="42.33916" lon="8.90238">
        <ele>1397</ele>
      </trkpt>
      <trkpt lat="42.34076" lon="8.90236">
        <ele>1390</ele>
      </trkpt>
      <trkpt lat="42.34119" lon="8.90195">
        <ele>1395.3</ele>
      </trkpt>
      <trkpt lat="42.34165" lon="8.90195">
        <ele>1394.9</ele>
      </trkpt>
      <trkpt lat="42.34218" lon="8.90144">
        <ele>1393.5</ele>
      </trkpt>
      <trkpt lat="42.34259" lon="8.90079">
        <ele>1393.6</ele>
      </trkpt>
      <trkpt lat="42.34264" lon="8.9006">
        <ele>1396.1</ele>
      </trkpt>
      <trkpt lat="42.34317" lon="8.90026">
        <ele>1395.9</ele>
      </trkpt>
      <trkpt lat="42.34362" lon="8.90047">
        <ele>1395.7</ele>
      </trkpt>
      <trkpt lat="42.34368" lon="8.90131">
        <ele>1382.9</ele>
      </trkpt>
      <trkpt lat="42.34394" lon="8.90129">
        <ele>1386.2</ele>
      </trkpt>
      <trkpt lat="42.3443" lon="8.90195">
        <ele>1398.9</ele>
      </trkpt>
      <trkpt lat="42.34427" lon="8.90275">
        <ele>1384.7</ele>
      </trkpt>
      <trkpt lat="42.34457" lon="8.90367">
        <ele>1371.2</ele>
      </trkpt>
      <trkpt lat="42.34541" lon="8.90444">
        <ele>1375.8</ele>
      </trkpt>
      <trkpt lat="42.34582" lon="8.90429">
        <ele>1387.1</ele>
      </trkpt>
      <trkpt lat="42.34627" lon="8.90498">
        <ele>1397.3</ele>
      </trkpt>
      <trkpt lat="42.34785" lon="8.90594">
        <ele>1411.7</ele>
      </trkpt>
      <trkpt lat="42.34804" lon="8.90639">
        <ele>1405.3</ele>
      </trkpt>
      <trkpt lat="42.34944" lon="8.90665">
        <ele>1423.5</ele>
      </trkpt>
      <trkpt lat="42.3498" lon="8.90697">
        <ele>1406.2</ele>
      </trkpt>
      <trkpt lat="42.35011" lon="8.90661">
        <ele>1425.5</ele>
      </trkpt>
      <trkpt lat="42.3508" lon="8.90665">
        <ele>1428.4</ele>
      </trkpt>
      <trkpt lat="42.35144" lon="8.90706">
        <ele>1424</ele>
      </trkpt>
      <trkpt lat="42.35183" lon="8.90721">
        <ele>1432.6</ele>
      </trkpt>
      <trkpt lat="42.35229" lon="8.9076">
        <ele>1430.7</ele>
      </trkpt>
      <trkpt lat="42.35283" lon="8.9076">
        <ele>1446.4</ele>
      </trkpt>
      <trkpt lat="42.35315" lon="8.90792">
        <ele>1450.3</ele>
      </trkpt>
      <trkpt lat="42.35321" lon="8.90822">
        <ele>1451.3</ele>
      </trkpt>
      <trkpt lat="42.35342" lon="8.90811">
        <ele>1468</ele>
      </trkpt>
      <trkpt lat="42.35372" lon="8.90822">
        <ele>1474.2</ele>
      </trkpt>
      <trkpt lat="42.35405" lon="8.90903">
        <ele>1466.2</ele>
      </trkpt>
      <trkpt lat="42.35432" lon="8.9091">
        <ele>1478.9</ele>
      </trkpt>
      <trkpt lat="42.35464" lon="8.90948">
        <ele>1478.5</ele>
      </trkpt>
      <trkpt lat="42.35623" lon="8.90961">
        <ele>1508</ele>
      </trkpt>
      <trkpt lat="42.35638" lon="8.90974">
        <ele>1507.5</ele>
      </trkpt>
      <trkpt lat="42.3573" lon="8.90935">
        <ele>1524.7</ele>
      </trkpt>
      <trkpt lat="42.35742" lon="8.90972">
        <ele>1520.4</ele>
      </trkpt>
      <trkpt lat="42.35783" lon="8.9097">
        <ele>1530.6</ele>
      </trkpt>
      <trkpt lat="42.358" lon="8.90987">
        <ele>1532.4</ele>
      </trkpt>
      <trkpt lat="42.35811" lon="8.90983">
        <ele>1533.9</ele>
      </trkpt>
      <trkpt lat="42.3583" lon="8.90972">
        <ele>1534.9</ele>
      </trkpt>
      <trkpt lat="42.35914" lon="8.90998">
        <ele>1565.9</ele>
      </trkpt>
      <trkpt lat="42.35924" lon="8.90987">
        <ele>1572.4</ele>
      </trkpt>
      <trkpt lat="42.35949" lon="8.91">
        <ele>1577.7</ele>
      </trkpt>
      <trkpt lat="42.36009" lon="8.90987">
        <ele>1601.5</ele>
      </trkpt>
      <trkpt lat="42.36038" lon="8.9095">
        <ele>1605</ele>
      </trkpt>
      <trkpt lat="42.36046" lon="8.90933">
        <ele>1606</ele>
      </trkpt>
      <trkpt lat="42.36076" lon="8.90946">
        <ele>1610.7</ele>
      </trkpt>
      <trkpt lat="42.3609" lon="8.90983">
        <ele>1628.8</ele>
      </trkpt>
      <trkpt lat="42.36149" lon="8.91">
        <ele>1644.1</ele>
      </trkpt>
      <trkpt lat="42.36159" lon="8.91019">
        <ele>1645.7</ele>
      </trkpt>
      <trkpt lat="42.36224" lon="8.90993">
        <ele>1681.5</ele>
      </trkpt>
      <trkpt lat="42.36222" lon="8.91152">
        <ele>1680.8</ele>
      </trkpt>
      <trkpt lat="42.36244" lon="8.9124">
        <ele>1690.2</ele>
      </trkpt>
      <trkpt lat="42.36265" lon="8.91249">
        <ele>1706.6</ele>
      </trkpt>
      <trkpt lat="42.36277" lon="8.91292">
        <ele>1712.8</ele>
      </trkpt>
      <trkpt lat="42.36293" lon="8.91302">
        <ele>1715.7</ele>
      </trkpt>
      <trkpt lat="42.36333" lon="8.91393">
        <ele>1723.1</ele>
      </trkpt>
      <trkpt lat="42.3638" lon="8.91403">
        <ele>1739.1</ele>
      </trkpt>
      <trkpt lat="42.36385" lon="8.9142">
        <ele>1744.4</ele>
      </trkpt>
      <trkpt lat="42.36398" lon="8.91423">
        <ele>1745.6</ele>
      </trkpt>
      <trkpt lat="42.3642" lon="8.9145">
        <ele>1762.2</ele>
      </trkpt>
      <trkpt lat="42.36447" lon="8.9145">
        <ele>1766.6</ele>
      </trkpt>
      <trkpt lat="42.36468" lon="8.91461">
        <ele>1771.5</ele>
      </trkpt>
      <trkpt lat="42.36503" lon="8.91519">
        <ele>1807.6</ele>
      </trkpt>
      <trkpt lat="42.36498" lon="8.91568">
        <ele>1794</ele>
      </trkpt>
      <trkpt lat="42.36537" lon="8.91648">
        <ele>1833.5</ele>
      </trkpt>
      <trkpt lat="42.36555" lon="8.91652">
        <ele>1840.3</ele>
      </trkpt>
      <trkpt lat="42.36626" lon="8.91792">
        <ele>1883.9</ele>
      </trkpt>
      <trkpt lat="42.36666" lon="8.91824">
        <ele>1899.3</ele>
      </trkpt>
      <trkpt lat="42.36669" lon="8.91858">
        <ele>1920</ele>
      </trkpt>
      <trkpt lat="42.36713" lon="8.91858">
        <ele>1931.1</ele>
      </trkpt>
      <trkpt lat="42.36721" lon="8.91923">
        <ele>1941.2</ele>
      </trkpt>
      <trkpt lat="42.3675" lon="8.91925">
        <ele>1946.8</ele>
      </trkpt>
      <trkpt lat="42.36769" lon="8.91938">
        <ele>1965.8</ele>
      </trkpt>
      <trkpt lat="42.36771" lon="8.91985">
        <ele>1968.5</ele>
      </trkpt>
      <trkpt lat="42.36793" lon="8.92013">
        <ele>1984.2</ele>
      </trkpt>
      <trkpt lat="42.36786" lon="8.92053">
        <ele>1987.9</ele>
      </trkpt>
      <trkpt lat="42.36794" lon="8.92075">
        <ele>1991.4</ele>
      </trkpt>
      <trkpt lat="42.36785" lon="8.92105">
        <ele>2008.6</ele>
      </trkpt>
      <trkpt lat="42.3681" lon="8.9212">
        <ele>2014.5</ele>
      </trkpt>
      <trkpt lat="42.36829" lon="8.92154">
        <ele>2029.1</ele>
      </trkpt>
      <trkpt lat="42.36823" lon="8.9218">
        <ele>2041.5</ele>
      </trkpt>
      <trkpt lat="42.36886" lon="8.92322">
        <ele>2105.8</ele>
      </trkpt>
      <trkpt lat="42.36946" lon="8.92362">
        <ele>2150.3</ele>
      </trkpt>
      <trkpt lat="42.36994" lon="8.92573">
        <ele>2225.2</ele>
      </trkpt>
      <trkpt lat="42.37183" lon="8.92678">
        <ele>2337.6</ele>
      </trkpt>
      <trkpt lat="42.37202" lon="8.92764">
        <ele>2375</ele>
      </trkpt>
      <trkpt lat="42.37186" lon="8.9286">
        <ele>2414.2</ele>
      </trkpt>
      <trkpt lat="42.3716" lon="8.92888">
        <ele>2415.4</ele>
      </trkpt>
      <trkpt lat="42.3716" lon="8.92903">
        <ele>2422.6</ele>
      </trkpt>
      <trkpt lat="42.37129" lon="8.92948">
        <ele>2435</ele>
      </trkpt>
      <trkpt lat="42.37172" lon="8.9301">
        <ele>2447</ele>
      </trkpt>
      <trkpt lat="42.37248" lon="8.93021">
        <ele>2458.4</ele>
      </trkpt>
      <trkpt lat="42.37302" lon="8.93174">
        <ele>2440</ele>
      </trkpt>
      <trkpt lat="42.37482" lon="8.93401">
        <ele>2496.2</ele>
      </trkpt>
      <trkpt lat="42.37533" lon="8.93405">
        <ele>2489.9</ele>
      </trkpt>
      <trkpt lat="42.37533" lon="8.93498">
        <ele>2514.2</ele>
      </trkpt>
      <trkpt lat="42.37565" lon="8.93562">
        <ele>2535.6</ele>
      </trkpt>
      <trkpt lat="42.37562" lon="8.93605">
        <ele>2541.4</ele>
      </trkpt>
      <trkpt lat="42.37587" lon="8.93633">
        <ele>2542.1</ele>
      </trkpt>
      <trkpt lat="42.37636" lon="8.93757">
        <ele>2597.3</ele>
      </trkpt>
      <trkpt lat="42.37657" lon="8.93796">
        <ele>2586.6</ele>
      </trkpt>
      <trkpt lat="42.3768" lon="8.93796">
        <ele>2513.1</ele>
      </trkpt>
      <trkpt lat="42.37709" lon="8.93828">
        <ele>2514.4</ele>
      </trkpt>
      <trkpt lat="42.37742" lon="8.93826">
        <ele>2516</ele>
      </trkpt>
      <trkpt lat="42.3776" lon="8.93847">
        <ele>2509.1</ele>
      </trkpt>
      <trkpt lat="42.37785" lon="8.9383">
        <ele>2482</ele>
      </trkpt>
      <trkpt lat="42.37844" lon="8.93884">
        <ele>2455</ele>
      </trkpt>
      <trkpt lat="42.37848" lon="8.93905">
        <ele>2466.3</ele>
      </trkpt>
      <trkpt lat="42.37896" lon="8.93907">
        <ele>2439.7</ele>
      </trkpt>
      <trkpt lat="42.3791" lon="8.9392">
        <ele>2444.2</ele>
      </trkpt>
      <trkpt lat="42.37931" lon="8.93907">
        <ele>2405.7</ele>
      </trkpt>
      <trkpt lat="42.38021" lon="8.93942">
        <ele>2339.3</ele>
      </trkpt>
      <trkpt lat="42.38055" lon="8.94015">
        <ele>2339.5</ele>
      </trkpt>
      <trkpt lat="42.38081" lon="8.94028">
        <ele>2334.2</ele>
      </trkpt>
      <trkpt lat="42.38091" lon="8.94066">
        <ele>2317.9</ele>
      </trkpt>
      <trkpt lat="42.38115" lon="8.94073">
        <ele>2311.8</ele>
      </trkpt>
      <trkpt lat="42.38139" lon="8.94109">
        <ele>2315.8</ele>
      </trkpt>
      <trkpt lat="42.38151" lon="8.94096">
        <ele>2311.2</ele>
      </trkpt>
      <trkpt lat="42.38192" lon="8.94139">
        <ele>2291.3</ele>
      </trkpt>
      <trkpt lat="42.38224" lon="8.94131">
        <ele>2283.3</ele>
      </trkpt>
      <trkpt lat="42.38243" lon="8.94141">
        <ele>2281.1</ele>
      </trkpt>
      <trkpt lat="42.38251" lon="8.94126">
        <ele>2257.3</ele>
      </trkpt>
      <trkpt lat="42.38246" lon="8.94098">
        <ele>2270.2</ele>
      </trkpt>
      <trkpt lat="42.38264" lon="8.9407">
        <ele>2240</ele>
      </trkpt>
      <trkpt lat="42.38261" lon="8.94058">
        <ele>2235.8</ele>
      </trkpt>
      <trkpt lat="42.38281" lon="8.94043">
        <ele>2227.4</ele>
      </trkpt>
      <trkpt lat="42.38292" lon="8.94036">
        <ele>2223.7</ele>
      </trkpt>
      <trkpt lat="42.38288" lon="8.94013">
        <ele>2222.1</ele>
      </trkpt>
      <trkpt lat="42.38308" lon="8.94">
        <ele>2199</ele>
      </trkpt>
      <trkpt lat="42.3833" lon="8.9397">
        <ele>2194</ele>
      </trkpt>
      <trkpt lat="42.38346" lon="8.93957">
        <ele>2166.2</ele>
      </trkpt>
      <trkpt lat="42.38365" lon="8.93957">
        <ele>2163.2</ele>
      </trkpt>
      <trkpt lat="42.38433" lon="8.9391">
        <ele>2134.8</ele>
      </trkpt>
      <trkpt lat="42.38457" lon="8.93912">
        <ele>2134</ele>
      </trkpt>
      <trkpt lat="42.38481" lon="8.9389">
        <ele>2133.1</ele>
      </trkpt>
      <trkpt lat="42.38497" lon="8.93843">
        <ele>2123.8</ele>
      </trkpt>
      <trkpt lat="42.38568" lon="8.93815">
        <ele>2115.7</ele>
      </trkpt>
      <trkpt lat="42.38584" lon="8.93781">
        <ele>2116.9</ele>
      </trkpt>
      <trkpt lat="42.38606" lon="8.93774">
        <ele>2119.6</ele>
      </trkpt>
      <trkpt lat="42.38652" lon="8.9365">
        <ele>2043</ele>
      </trkpt>
      <trkpt lat="42.38696" lon="8.93562">
        <ele>2010.5</ele>
      </trkpt>
      <trkpt lat="42.38698" lon="8.93549">
        <ele>2007</ele>
      </trkpt>
      <trkpt lat="42.38758" lon="8.93455">
        <ele>1983.3</ele>
      </trkpt>
      <trkpt lat="42.38765" lon="8.93403">
        <ele>1949</ele>
      </trkpt>
      <trkpt lat="42.38771" lon="8.93382">
        <ele>1947.5</ele>
      </trkpt>
      <trkpt lat="42.38769" lon="8.93343">
        <ele>1937.5</ele>
      </trkpt>
      <trkpt lat="42.38822" lon="8.93191">
        <ele>1887.9</ele>
      </trkpt>
      <trkpt lat="42.38837" lon="8.93176">
        <ele>1910.1</ele>
      </trkpt>
      <trkpt lat="42.38841" lon="8.93131">
        <ele>1900.4</ele>
      </trkpt>
      <trkpt lat="42.38855" lon="8.93111">
        <ele>1899.1</ele>
      </trkpt>
      <trkpt lat="42.38841" lon="8.93058">
        <ele>1871.5</ele>
      </trkpt>
      <trkpt lat="42.38842" lon="8.92933">
        <ele>1818.1</ele>
      </trkpt>
      <trkpt lat="42.38841" lon="8.92895">
        <ele>1795.3</ele>
      </trkpt>
      <trkpt lat="42.38842" lon="8.92877">
        <ele>1792.2</ele>
      </trkpt>
      <trkpt lat="42.38818" lon="8.92877">
        <ele>1770.3</ele>
      </trkpt>
      <trkpt lat="42.38826" lon="8.92845">
        <ele>1766.9</ele>
      </trkpt>
      <trkpt lat="42.38812" lon="8.92824">
        <ele>1747.8</ele>
      </trkpt>
      <trkpt lat="42.38823" lon="8.92802">
        <ele>1743.5</ele>
      </trkpt>
      <trkpt lat="42.38812" lon="8.92774">
        <ele>1735.1</ele>
      </trkpt>
      <trkpt lat="42.38815" lon="8.92746">
        <ele>1716.6</ele>
      </trkpt>
      <trkpt lat="42.38799" lon="8.92734">
        <ele>1707.3</ele>
      </trkpt>
      <trkpt lat="42.38815" lon="8.92712">
        <ele>1704.4</ele>
      </trkpt>
      <trkpt lat="42.3879" lon="8.92704">
        <ele>1699.3</ele>
      </trkpt>
      <trkpt lat="42.38825" lon="8.92667">
        <ele>1690.9</ele>
      </trkpt>
      <trkpt lat="42.38779" lon="8.92633">
        <ele>1665.5</ele>
      </trkpt>
      <trkpt lat="42.38801" lon="8.92577">
        <ele>1630.8</ele>
      </trkpt>
      <trkpt lat="42.38855" lon="8.92534">
        <ele>1607.3</ele>
      </trkpt>
      <trkpt lat="42.3895" lon="8.92525">
        <ele>1579.2</ele>
      </trkpt>
      <trkpt lat="42.39001" lon="8.92495">
        <ele>1551.3</ele>
      </trkpt>
      <trkpt lat="42.39005" lon="8.92461">
        <ele>1536.7</ele>
      </trkpt>
      <trkpt lat="42.38986" lon="8.92459">
        <ele>1548</ele>
      </trkpt>
      <trkpt lat="42.39015" lon="8.92401">
        <ele>1521</ele>
      </trkpt>
      <trkpt lat="42.39077" lon="8.9238">
        <ele>1512.8</ele>
      </trkpt>
      <trkpt lat="42.39078" lon="8.92343">
        <ele>1505.8</ele>
      </trkpt>
      <trkpt lat="42.39166" lon="8.92335">
        <ele>1477.1</ele>
      </trkpt>
      <trkpt lat="42.39183" lon="8.92319">
        <ele>1475.1</ele>
      </trkpt>
      <trkpt lat="42.39213" lon="8.92319">
        <ele>1471.4</ele>
      </trkpt>
      <trkpt lat="42.39232" lon="8.92307">
        <ele>1469.7</ele>
      </trkpt>
      <trkpt lat="42.39251" lon="8.92326">
        <ele>1457.3</ele>
      </trkpt>
      <trkpt lat="42.3937" lon="8.92251">
        <ele>1447.5</ele>
      </trkpt>
      <trkpt lat="42.39492" lon="8.92277">
        <ele>1432.7</ele>
      </trkpt>
      <trkpt lat="42.3963" lon="8.92195">
        <ele>1426.6</ele>
      </trkpt>
      <trkpt lat="42.3973" lon="8.92148">
        <ele>1441</ele>
      </trkpt>
      <trkpt lat="42.39809" lon="8.92159">
        <ele>1442.1</ele>
      </trkpt>
      <trkpt lat="42.40207" lon="8.92313">
        <ele>1432.9</ele>
      </trkpt>
      <trkpt lat="42.40299" lon="8.92412">
        <ele>1416.4</ele>
      </trkpt>
      <trkpt lat="42.40322" lon="8.92352">
        <ele>1419.5</ele>
      </trkpt>
      <trkpt lat="42.40324" lon="8.92302">
        <ele>1426.9</ele>
      </trkpt>
      <trkpt lat="42.40364" lon="8.92272">
        <ele>1427.4</ele>
      </trkpt>
      <trkpt lat="42.40332" lon="8.92232">
        <ele>1436.1</ele>
      </trkpt>
    </trkseg>
  </trk>
  <trk>
    <name><![CDATA[GR20 Nord en 6 jours_5]]></name>
    <trkseg>
      <trkpt lat="42.37634" lon="8.93757">
        <ele>2597</ele>
      </trkpt>
      <trkpt lat="42.37614" lon="8.93787">
        <ele>2591.4</ele>
      </trkpt>
      <trkpt lat="42.37613" lon="8.93875">
        <ele>2594.7</ele>
      </trkpt>
      <trkpt lat="42.37636" lon="8.93891">
        <ele>2610.3</ele>
      </trkpt>
      <trkpt lat="42.37637" lon="8.93904">
        <ele>2611.4</ele>
      </trkpt>
      <trkpt lat="42.37653" lon="8.93935">
        <ele>2610.8</ele>
      </trkpt>
      <trkpt lat="42.37654" lon="8.93951">
        <ele>2612.1</ele>
      </trkpt>
      <trkpt lat="42.37661" lon="8.93959">
        <ele>2615.1</ele>
      </trkpt>
      <trkpt lat="42.37668" lon="8.9399">
        <ele>2543</ele>
      </trkpt>
      <trkpt lat="42.37698" lon="8.94041">
        <ele>2627.8</ele>
      </trkpt>
      <trkpt lat="42.37697" lon="8.94092">
        <ele>2630.5</ele>
      </trkpt>
      <trkpt lat="42.37722" lon="8.94118">
        <ele>2644.2</ele>
      </trkpt>
      <trkpt lat="42.37706" lon="8.94124">
        <ele>2641.1</ele>
      </trkpt>
      <trkpt lat="42.37707" lon="8.94158">
        <ele>2632.3</ele>
      </trkpt>
      <trkpt lat="42.37691" lon="8.94184">
        <ele>2615.6</ele>
      </trkpt>
      <trkpt lat="42.37692" lon="8.94196">
        <ele>2613.8</ele>
      </trkpt>
      <trkpt lat="42.37686" lon="8.94215">
        <ele>2605.2</ele>
      </trkpt>
      <trkpt lat="42.37688" lon="8.94237">
        <ele>2598.7</ele>
      </trkpt>
      <trkpt lat="42.37695" lon="8.94252">
        <ele>2548</ele>
      </trkpt>
      <trkpt lat="42.37724" lon="8.94273">
        <ele>2548</ele>
      </trkpt>
      <trkpt lat="42.37747" lon="8.9428">
        <ele>2548</ele>
      </trkpt>
      <trkpt lat="42.3776" lon="8.943">
        <ele>2527.1</ele>
      </trkpt>
      <trkpt lat="42.37766" lon="8.94299">
        <ele>2527.1</ele>
      </trkpt>
      <trkpt lat="42.37767" lon="8.94311">
        <ele>2528</ele>
      </trkpt>
      <trkpt lat="42.37765" lon="8.94332">
        <ele>2529</ele>
      </trkpt>
      <trkpt lat="42.37776" lon="8.94363">
        <ele>2538</ele>
      </trkpt>
      <trkpt lat="42.37783" lon="8.94368">
        <ele>2538</ele>
      </trkpt>
      <trkpt lat="42.3779" lon="8.94383">
        <ele>2538</ele>
      </trkpt>
      <trkpt lat="42.37795" lon="8.94424">
        <ele>2545</ele>
      </trkpt>
      <trkpt lat="42.37792" lon="8.94435">
        <ele>2545</ele>
      </trkpt>
      <trkpt lat="42.37797" lon="8.94448">
        <ele>2545</ele>
      </trkpt>
      <trkpt lat="42.37833" lon="8.94476">
        <ele>2545</ele>
      </trkpt>
      <trkpt lat="42.3784" lon="8.94477">
        <ele>2467</ele>
      </trkpt>
      <trkpt lat="42.37862" lon="8.94496">
        <ele>2467</ele>
      </trkpt>
      <trkpt lat="42.37866" lon="8.94514">
        <ele>2628.8</ele>
      </trkpt>
      <trkpt lat="42.37869" lon="8.9452">
        <ele>2631.3</ele>
      </trkpt>
      <trkpt lat="42.37871" lon="8.94539">
        <ele>2632.6</ele>
      </trkpt>
      <trkpt lat="42.37879" lon="8.94565">
        <ele>2639.4</ele>
      </trkpt>
      <trkpt lat="42.37889" lon="8.94573">
        <ele>2648.5</ele>
      </trkpt>
      <trkpt lat="42.37892" lon="8.94593">
        <ele>2652</ele>
      </trkpt>
      <trkpt lat="42.37893" lon="8.94622">
        <ele>2654.8</ele>
      </trkpt>
      <trkpt lat="42.37901" lon="8.94626">
        <ele>2662.3</ele>
      </trkpt>
      <trkpt lat="42.37922" lon="8.94608">
        <ele>2679.5</ele>
      </trkpt>
      <trkpt lat="42.37954" lon="8.94604">
        <ele>2691.9</ele>
      </trkpt>
      <trkpt lat="42.37965" lon="8.94591">
        <ele>2697.2</ele>
      </trkpt>
      <trkpt lat="42.37967" lon="8.94568">
        <ele>2520</ele>
      </trkpt>
      <trkpt lat="42.3796" lon="8.94545">
        <ele>2520</ele>
      </trkpt>
      <trkpt lat="42.37947" lon="8.94531">
        <ele>2520</ele>
      </trkpt>
    </trkseg>
  </trk>
  <trk>
    <name><![CDATA[GR20 Nord en 6 jours_6]]></name>
    <trkseg>
      <trkpt lat="42.40328" lon="8.92234">
        <ele>1435.5</ele>
      </trkpt>
      <trkpt lat="42.40329" lon="8.92207">
        <ele>1441.6</ele>
      </trkpt>
      <trkpt lat="42.40309" lon="8.92184">
        <ele>1444.7</ele>
      </trkpt>
      <trkpt lat="42.40303" lon="8.92138">
        <ele>1461.2</ele>
      </trkpt>
      <trkpt lat="42.40313" lon="8.92116">
        <ele>1465.8</ele>
      </trkpt>
      <trkpt lat="42.40328" lon="8.92109">
        <ele>1468.9</ele>
      </trkpt>
      <trkpt lat="42.40375" lon="8.9211">
        <ele>1478.1</ele>
      </trkpt>
      <trkpt lat="42.40439" lon="8.92074">
        <ele>1509.2</ele>
      </trkpt>
      <trkpt lat="42.40444" lon="8.92047">
        <ele>1514.3</ele>
      </trkpt>
      <trkpt lat="42.40423" lon="8.91928">
        <ele>1551.3</ele>
      </trkpt>
      <trkpt lat="42.40433" lon="8.919">
        <ele>1565.2</ele>
      </trkpt>
      <trkpt lat="42.40429" lon="8.91866">
        <ele>1573.8</ele>
      </trkpt>
      <trkpt lat="42.40459" lon="8.91841">
        <ele>1576.1</ele>
      </trkpt>
      <trkpt lat="42.40463" lon="8.91819">
        <ele>1604.5</ele>
      </trkpt>
      <trkpt lat="42.40491" lon="8.91788">
        <ele>1611.8</ele>
      </trkpt>
      <trkpt lat="42.40505" lon="8.91751">
        <ele>1624</ele>
      </trkpt>
      <trkpt lat="42.40509" lon="8.91701">
        <ele>1647</ele>
      </trkpt>
      <trkpt lat="42.40521" lon="8.91656">
        <ele>1681.5</ele>
      </trkpt>
      <trkpt lat="42.4054" lon="8.91629">
        <ele>1685.5</ele>
      </trkpt>
      <trkpt lat="42.40541" lon="8.91606">
        <ele>1693</ele>
      </trkpt>
      <trkpt lat="42.40573" lon="8.91517">
        <ele>1731.6</ele>
      </trkpt>
      <trkpt lat="42.40591" lon="8.91411">
        <ele>1799.9</ele>
      </trkpt>
      <trkpt lat="42.40611" lon="8.91435">
        <ele>1771.2</ele>
      </trkpt>
      <trkpt lat="42.40639" lon="8.91433">
        <ele>1770.5</ele>
      </trkpt>
      <trkpt lat="42.40655" lon="8.91421">
        <ele>1777.4</ele>
      </trkpt>
      <trkpt lat="42.40659" lon="8.91403">
        <ele>1799.1</ele>
      </trkpt>
      <trkpt lat="42.40676" lon="8.91403">
        <ele>1809.5</ele>
      </trkpt>
      <trkpt lat="42.40684" lon="8.91381">
        <ele>1825.2</ele>
      </trkpt>
      <trkpt lat="42.40692" lon="8.91383">
        <ele>1826.8</ele>
      </trkpt>
      <trkpt lat="42.40694" lon="8.91379">
        <ele>1828.8</ele>
      </trkpt>
      <trkpt lat="42.40688" lon="8.91345">
        <ele>1834.3</ele>
      </trkpt>
      <trkpt lat="42.4068" lon="8.91329">
        <ele>1853.2</ele>
      </trkpt>
      <trkpt lat="42.40681" lon="8.91322">
        <ele>1859.7</ele>
      </trkpt>
      <trkpt lat="42.40671" lon="8.91314">
        <ele>1860.8</ele>
      </trkpt>
      <trkpt lat="42.40674" lon="8.91307">
        <ele>1868.1</ele>
      </trkpt>
      <trkpt lat="42.40672" lon="8.91288">
        <ele>1879.3</ele>
      </trkpt>
      <trkpt lat="42.40661" lon="8.91255">
        <ele>1880.1</ele>
      </trkpt>
      <trkpt lat="42.40668" lon="8.91236">
        <ele>1905</ele>
      </trkpt>
      <trkpt lat="42.40667" lon="8.91231">
        <ele>1908.5</ele>
      </trkpt>
      <trkpt lat="42.40679" lon="8.9122">
        <ele>1918.1</ele>
      </trkpt>
      <trkpt lat="42.4068" lon="8.9121">
        <ele>1921.7</ele>
      </trkpt>
      <trkpt lat="42.40679" lon="8.91199">
        <ele>1924.1</ele>
      </trkpt>
      <trkpt lat="42.40682" lon="8.91191">
        <ele>1925.6</ele>
      </trkpt>
      <trkpt lat="42.40675" lon="8.9118">
        <ele>1924.5</ele>
      </trkpt>
      <trkpt lat="42.40679" lon="8.91168">
        <ele>1925</ele>
      </trkpt>
      <trkpt lat="42.40694" lon="8.91166">
        <ele>1947.2</ele>
      </trkpt>
      <trkpt lat="42.40702" lon="8.9115">
        <ele>1953.3</ele>
      </trkpt>
      <trkpt lat="42.40702" lon="8.91137">
        <ele>1955.9</ele>
      </trkpt>
      <trkpt lat="42.40692" lon="8.91127">
        <ele>1955.9</ele>
      </trkpt>
      <trkpt lat="42.40696" lon="8.91117">
        <ele>1958.8</ele>
      </trkpt>
      <trkpt lat="42.4069" lon="8.91109">
        <ele>1959.2</ele>
      </trkpt>
      <trkpt lat="42.40687" lon="8.91101">
        <ele>1960</ele>
      </trkpt>
      <trkpt lat="42.40699" lon="8.91084">
        <ele>1963.4</ele>
      </trkpt>
      <trkpt lat="42.40714" lon="8.91082">
        <ele>1974.1</ele>
      </trkpt>
      <trkpt lat="42.40721" lon="8.91088">
        <ele>1969.3</ele>
      </trkpt>
      <trkpt lat="42.40737" lon="8.91085">
        <ele>1977.9</ele>
      </trkpt>
      <trkpt lat="42.40735" lon="8.91078">
        <ele>1980.2</ele>
      </trkpt>
      <trkpt lat="42.40753" lon="8.91072">
        <ele>1990</ele>
      </trkpt>
      <trkpt lat="42.4076" lon="8.91048">
        <ele>1988.7</ele>
      </trkpt>
      <trkpt lat="42.40766" lon="8.91038">
        <ele>1987.5</ele>
      </trkpt>
      <trkpt lat="42.40779" lon="8.91031">
        <ele>1988</ele>
      </trkpt>
      <trkpt lat="42.40786" lon="8.91013">
        <ele>1986.4</ele>
      </trkpt>
      <trkpt lat="42.40817" lon="8.9098">
        <ele>1963.2</ele>
      </trkpt>
      <trkpt lat="42.40819" lon="8.90961">
        <ele>1954.7</ele>
      </trkpt>
      <trkpt lat="42.40855" lon="8.90921">
        <ele>1956.3</ele>
      </trkpt>
      <trkpt lat="42.40867" lon="8.90891">
        <ele>1927.8</ele>
      </trkpt>
      <trkpt lat="42.40886" lon="8.90878">
        <ele>1928</ele>
      </trkpt>
      <trkpt lat="42.40905" lon="8.90846">
        <ele>1921.1</ele>
      </trkpt>
      <trkpt lat="42.40923" lon="8.90858">
        <ele>1947.6</ele>
      </trkpt>
      <trkpt lat="42.40959" lon="8.90837">
        <ele>1956.6</ele>
      </trkpt>
      <trkpt lat="42.40967" lon="8.9082">
        <ele>1931.2</ele>
      </trkpt>
      <trkpt lat="42.40977" lon="8.90816">
        <ele>1934.7</ele>
      </trkpt>
      <trkpt lat="42.4098" lon="8.90803">
        <ele>1931.3</ele>
      </trkpt>
      <trkpt lat="42.40988" lon="8.90801">
        <ele>1932.8</ele>
      </trkpt>
      <trkpt lat="42.40989" lon="8.90795">
        <ele>1930.8</ele>
      </trkpt>
      <trkpt lat="42.41" lon="8.90796">
        <ele>1932.6</ele>
      </trkpt>
      <trkpt lat="42.41004" lon="8.90785">
        <ele>1951</ele>
      </trkpt>
      <trkpt lat="42.4101" lon="8.90787">
        <ele>1952.1</ele>
      </trkpt>
      <trkpt lat="42.41019" lon="8.90769">
        <ele>1948.1</ele>
      </trkpt>
      <trkpt lat="42.41029" lon="8.90773">
        <ele>1951.8</ele>
      </trkpt>
      <trkpt lat="42.41034" lon="8.90764">
        <ele>1951.6</ele>
      </trkpt>
      <trkpt lat="42.41059" lon="8.90758">
        <ele>1957.7</ele>
      </trkpt>
      <trkpt lat="42.41045" lon="8.90775">
        <ele>1955.6</ele>
      </trkpt>
      <trkpt lat="42.4104" lon="8.90796">
        <ele>1957.2</ele>
      </trkpt>
      <trkpt lat="42.41041" lon="8.90815">
        <ele>1959.7</ele>
      </trkpt>
      <trkpt lat="42.41045" lon="8.90826">
        <ele>1961</ele>
      </trkpt>
      <trkpt lat="42.41056" lon="8.90823">
        <ele>1962.3</ele>
      </trkpt>
      <trkpt lat="42.41052" lon="8.90834">
        <ele>1981.4</ele>
      </trkpt>
      <trkpt lat="42.4107" lon="8.90841">
        <ele>1979.5</ele>
      </trkpt>
      <trkpt lat="42.41076" lon="8.90852">
        <ele>1982</ele>
      </trkpt>
      <trkpt lat="42.41094" lon="8.90849">
        <ele>1965.1</ele>
      </trkpt>
      <trkpt lat="42.41098" lon="8.9086">
        <ele>1964.1</ele>
      </trkpt>
      <trkpt lat="42.41109" lon="8.90861">
        <ele>1961</ele>
      </trkpt>
      <trkpt lat="42.41119" lon="8.90847">
        <ele>1955.8</ele>
      </trkpt>
      <trkpt lat="42.41131" lon="8.90849">
        <ele>1950.5</ele>
      </trkpt>
      <trkpt lat="42.41134" lon="8.90854">
        <ele>1949.7</ele>
      </trkpt>
      <trkpt lat="42.4116" lon="8.90838">
        <ele>1926.4</ele>
      </trkpt>
      <trkpt lat="42.4118" lon="8.90839">
        <ele>1908</ele>
      </trkpt>
      <trkpt lat="42.41193" lon="8.90815">
        <ele>1899.6</ele>
      </trkpt>
      <trkpt lat="42.41206" lon="8.90813">
        <ele>1895.5</ele>
      </trkpt>
      <trkpt lat="42.4121" lon="8.90797">
        <ele>1894.8</ele>
      </trkpt>
      <trkpt lat="42.41244" lon="8.90774">
        <ele>1885.6</ele>
      </trkpt>
      <trkpt lat="42.41254" lon="8.90788">
        <ele>1864.1</ele>
      </trkpt>
      <trkpt lat="42.41307" lon="8.90798">
        <ele>1858.3</ele>
      </trkpt>
      <trkpt lat="42.41314" lon="8.9082">
        <ele>1857.6</ele>
      </trkpt>
      <trkpt lat="42.41348" lon="8.90827">
        <ele>1843.7</ele>
      </trkpt>
      <trkpt lat="42.41339" lon="8.90812">
        <ele>1842</ele>
      </trkpt>
      <trkpt lat="42.41346" lon="8.90797">
        <ele>1838.1</ele>
      </trkpt>
      <trkpt lat="42.41362" lon="8.908">
        <ele>1835.6</ele>
      </trkpt>
      <trkpt lat="42.41365" lon="8.90789">
        <ele>1834.3</ele>
      </trkpt>
      <trkpt lat="42.41374" lon="8.90783">
        <ele>1832.3</ele>
      </trkpt>
      <trkpt lat="42.41377" lon="8.90771">
        <ele>1830.9</ele>
      </trkpt>
      <trkpt lat="42.41359" lon="8.90738">
        <ele>1822.9</ele>
      </trkpt>
      <trkpt lat="42.41349" lon="8.90735">
        <ele>1826</ele>
      </trkpt>
      <trkpt lat="42.41339" lon="8.90722">
        <ele>1823</ele>
      </trkpt>
      <trkpt lat="42.41351" lon="8.90704">
        <ele>1816.2</ele>
      </trkpt>
      <trkpt lat="42.41367" lon="8.90719">
        <ele>1816.4</ele>
      </trkpt>
      <trkpt lat="42.41391" lon="8.9068">
        <ele>1803.7</ele>
      </trkpt>
      <trkpt lat="42.4139" lon="8.90636">
        <ele>1785.4</ele>
      </trkpt>
      <trkpt lat="42.41406" lon="8.90635">
        <ele>1782.9</ele>
      </trkpt>
      <trkpt lat="42.41426" lon="8.90611">
        <ele>1750.3</ele>
      </trkpt>
      <trkpt lat="42.41425" lon="8.90585">
        <ele>1750.1</ele>
      </trkpt>
      <trkpt lat="42.41454" lon="8.90553">
        <ele>1727.9</ele>
      </trkpt>
      <trkpt lat="42.41474" lon="8.90547">
        <ele>1722.4</ele>
      </trkpt>
      <trkpt lat="42.41519" lon="8.90494">
        <ele>1676.6</ele>
      </trkpt>
      <trkpt lat="42.41527" lon="8.90465">
        <ele>1668.4</ele>
      </trkpt>
      <trkpt lat="42.41538" lon="8.90453">
        <ele>1664.6</ele>
      </trkpt>
      <trkpt lat="42.41554" lon="8.90441">
        <ele>1659.4</ele>
      </trkpt>
      <trkpt lat="42.41566" lon="8.90423">
        <ele>1652.2</ele>
      </trkpt>
      <trkpt lat="42.41588" lon="8.90422">
        <ele>1635.5</ele>
      </trkpt>
      <trkpt lat="42.4159" lon="8.90402">
        <ele>1626.5</ele>
      </trkpt>
      <trkpt lat="42.41563" lon="8.9037">
        <ele>1647.3</ele>
      </trkpt>
      <trkpt lat="42.41576" lon="8.90234">
        <ele>1648.8</ele>
      </trkpt>
      <trkpt lat="42.41586" lon="8.90214">
        <ele>1623.3</ele>
      </trkpt>
      <trkpt lat="42.41586" lon="8.9018">
        <ele>1634.6</ele>
      </trkpt>
      <trkpt lat="42.41606" lon="8.90151">
        <ele>1636.8</ele>
      </trkpt>
      <trkpt lat="42.41611" lon="8.90159">
        <ele>1635.2</ele>
      </trkpt>
      <trkpt lat="42.41624" lon="8.90158">
        <ele>1630.1</ele>
      </trkpt>
      <trkpt lat="42.41639" lon="8.90125">
        <ele>1629.5</ele>
      </trkpt>
      <trkpt lat="42.4175" lon="8.90131">
        <ele>1587.2</ele>
      </trkpt>
      <trkpt lat="42.4176" lon="8.90171">
        <ele>1556.3</ele>
      </trkpt>
      <trkpt lat="42.41778" lon="8.90179">
        <ele>1549.6</ele>
      </trkpt>
      <trkpt lat="42.41789" lon="8.90199">
        <ele>1545.2</ele>
      </trkpt>
      <trkpt lat="42.41788" lon="8.9022">
        <ele>1541.9</ele>
      </trkpt>
      <trkpt lat="42.4177" lon="8.90219">
        <ele>1543.2</ele>
      </trkpt>
      <trkpt lat="42.41764" lon="8.90225">
        <ele>1542.2</ele>
      </trkpt>
      <trkpt lat="42.41766" lon="8.90241">
        <ele>1540</ele>
      </trkpt>
      <trkpt lat="42.41785" lon="8.90253">
        <ele>1527.4</ele>
      </trkpt>
      <trkpt lat="42.41802" lon="8.90277">
        <ele>1524</ele>
      </trkpt>
      <trkpt lat="42.41828" lon="8.90305">
        <ele>1516.5</ele>
      </trkpt>
      <trkpt lat="42.41845" lon="8.90303">
        <ele>1493.4</ele>
      </trkpt>
      <trkpt lat="42.41856" lon="8.90303">
        <ele>1491.3</ele>
      </trkpt>
      <trkpt lat="42.41876" lon="8.90296">
        <ele>1486.9</ele>
      </trkpt>
      <trkpt lat="42.41891" lon="8.90307">
        <ele>1482</ele>
      </trkpt>
      <trkpt lat="42.41912" lon="8.90278">
        <ele>1477.3</ele>
      </trkpt>
      <trkpt lat="42.41923" lon="8.90278">
        <ele>1459.3</ele>
      </trkpt>
      <trkpt lat="42.41932" lon="8.90239">
        <ele>1453.7</ele>
      </trkpt>
      <trkpt lat="42.41941" lon="8.90239">
        <ele>1451.2</ele>
      </trkpt>
      <trkpt lat="42.4198" lon="8.90163">
        <ele>1425.1</ele>
      </trkpt>
      <trkpt lat="42.42002" lon="8.9009">
        <ele>1396.2</ele>
      </trkpt>
      <trkpt lat="42.42034" lon="8.90056">
        <ele>1376.4</ele>
      </trkpt>
      <trkpt lat="42.42045" lon="8.90024">
        <ele>1369.6</ele>
      </trkpt>
      <trkpt lat="42.42056" lon="8.90013">
        <ele>1364.6</ele>
      </trkpt>
      <trkpt lat="42.42073" lon="8.89961">
        <ele>1355.8</ele>
      </trkpt>
      <trkpt lat="42.42064" lon="8.89953">
        <ele>1357.3</ele>
      </trkpt>
      <trkpt lat="42.42098" lon="8.89912">
        <ele>1336.8</ele>
      </trkpt>
      <trkpt lat="42.42133" lon="8.89907">
        <ele>1328.4</ele>
      </trkpt>
      <trkpt lat="42.42144" lon="8.89885">
        <ele>1329.9</ele>
      </trkpt>
      <trkpt lat="42.42263" lon="8.89849">
        <ele>1276.1</ele>
      </trkpt>
      <trkpt lat="42.42304" lon="8.89803">
        <ele>1275.3</ele>
      </trkpt>
      <trkpt lat="42.4231" lon="8.89807">
        <ele>1273.3</ele>
      </trkpt>
      <trkpt lat="42.4232" lon="8.89795">
        <ele>1273.4</ele>
      </trkpt>
      <trkpt lat="42.42328" lon="8.898">
        <ele>1271.5</ele>
      </trkpt>
      <trkpt lat="42.42337" lon="8.89792">
        <ele>1254.4</ele>
      </trkpt>
      <trkpt lat="42.42341" lon="8.89772">
        <ele>1257.4</ele>
      </trkpt>
      <trkpt lat="42.42352" lon="8.89757">
        <ele>1257.9</ele>
      </trkpt>
      <trkpt lat="42.4236" lon="8.89761">
        <ele>1255.6</ele>
      </trkpt>
      <trkpt lat="42.42377" lon="8.89759">
        <ele>1252</ele>
      </trkpt>
      <trkpt lat="42.42396" lon="8.8977">
        <ele>1248.8</ele>
      </trkpt>
      <trkpt lat="42.42405" lon="8.89762">
        <ele>1247</ele>
      </trkpt>
      <trkpt lat="42.42421" lon="8.89764">
        <ele>1238.5</ele>
      </trkpt>
      <trkpt lat="42.42428" lon="8.89805">
        <ele>1235.7</ele>
      </trkpt>
      <trkpt lat="42.42442" lon="8.89809">
        <ele>1234.8</ele>
      </trkpt>
      <trkpt lat="42.42456" lon="8.89804">
        <ele>1233.3</ele>
      </trkpt>
      <trkpt lat="42.42465" lon="8.89811">
        <ele>1232.6</ele>
      </trkpt>
      <trkpt lat="42.42487" lon="8.89814">
        <ele>1231.1</ele>
      </trkpt>
      <trkpt lat="42.4249" lon="8.89822">
        <ele>1230.9</ele>
      </trkpt>
      <trkpt lat="42.42488" lon="8.89831">
        <ele>1231</ele>
      </trkpt>
      <trkpt lat="42.42484" lon="8.89839">
        <ele>1241</ele>
      </trkpt>
      <trkpt lat="42.42493" lon="8.89866">
        <ele>1248.1</ele>
      </trkpt>
      <trkpt lat="42.4251" lon="8.89879">
        <ele>1241.6</ele>
      </trkpt>
      <trkpt lat="42.42521" lon="8.89902">
        <ele>1246.6</ele>
      </trkpt>
      <trkpt lat="42.42561" lon="8.89926">
        <ele>1259.9</ele>
      </trkpt>
      <trkpt lat="42.42586" lon="8.89961">
        <ele>1255.1</ele>
      </trkpt>
      <trkpt lat="42.42602" lon="8.89966">
        <ele>1255.4</ele>
      </trkpt>
      <trkpt lat="42.4263" lon="8.8999">
        <ele>1255.3</ele>
      </trkpt>
      <trkpt lat="42.42634" lon="8.9">
        <ele>1267.1</ele>
      </trkpt>
      <trkpt lat="42.42634" lon="8.9002">
        <ele>1268.3</ele>
      </trkpt>
      <trkpt lat="42.42616" lon="8.90035">
        <ele>1271.8</ele>
      </trkpt>
      <trkpt lat="42.42597" lon="8.90086">
        <ele>1284.7</ele>
      </trkpt>
    </trkseg>
  </trk>
  <trk>
    <name><![CDATA[GR20 Nord en 6 jours_7]]></name>
    <trkseg>
      <trkpt lat="42.42596" lon="8.90087">
        <ele>1284.7</ele>
      </trkpt>
      <trkpt lat="42.42575" lon="8.90131">
        <ele>1309.4</ele>
      </trkpt>
      <trkpt lat="42.42612" lon="8.90187">
        <ele>1300.3</ele>
      </trkpt>
      <trkpt lat="42.42616" lon="8.9026">
        <ele>1319.4</ele>
      </trkpt>
      <trkpt lat="42.42658" lon="8.90337">
        <ele>1329.6</ele>
      </trkpt>
      <trkpt lat="42.42668" lon="8.904">
        <ele>1345.6</ele>
      </trkpt>
      <trkpt lat="42.42666" lon="8.90473">
        <ele>1372.7</ele>
      </trkpt>
      <trkpt lat="42.42707" lon="8.90528">
        <ele>1386.4</ele>
      </trkpt>
      <trkpt lat="42.42727" lon="8.90537">
        <ele>1387.4</ele>
      </trkpt>
      <trkpt lat="42.42738" lon="8.90523">
        <ele>1384.8</ele>
      </trkpt>
      <trkpt lat="42.42752" lon="8.90521">
        <ele>1394.5</ele>
      </trkpt>
      <trkpt lat="42.42753" lon="8.9053">
        <ele>1397.8</ele>
      </trkpt>
      <trkpt lat="42.42764" lon="8.90534">
        <ele>1400.5</ele>
      </trkpt>
      <trkpt lat="42.42787" lon="8.90519">
        <ele>1404.3</ele>
      </trkpt>
      <trkpt lat="42.42774" lon="8.90563">
        <ele>1405.8</ele>
      </trkpt>
      <trkpt lat="42.42786" lon="8.90563">
        <ele>1408.8</ele>
      </trkpt>
      <trkpt lat="42.42782" lon="8.90573">
        <ele>1408.3</ele>
      </trkpt>
      <trkpt lat="42.42788" lon="8.90581">
        <ele>1410.4</ele>
      </trkpt>
      <trkpt lat="42.42786" lon="8.90598">
        <ele>1421.3</ele>
      </trkpt>
      <trkpt lat="42.42799" lon="8.90612">
        <ele>1425.9</ele>
      </trkpt>
      <trkpt lat="42.42793" lon="8.90621">
        <ele>1425.2</ele>
      </trkpt>
      <trkpt lat="42.42797" lon="8.90626">
        <ele>1426.6</ele>
      </trkpt>
      <trkpt lat="42.42797" lon="8.90644">
        <ele>1428.2</ele>
      </trkpt>
      <trkpt lat="42.42809" lon="8.90644">
        <ele>1431.6</ele>
      </trkpt>
      <trkpt lat="42.4281" lon="8.90651">
        <ele>1433.1</ele>
      </trkpt>
      <trkpt lat="42.428" lon="8.90662">
        <ele>1430.6</ele>
      </trkpt>
      <trkpt lat="42.428" lon="8.90737">
        <ele>1446.6</ele>
      </trkpt>
      <trkpt lat="42.42788" lon="8.90748">
        <ele>1444.8</ele>
      </trkpt>
      <trkpt lat="42.42786" lon="8.90776">
        <ele>1460.8</ele>
      </trkpt>
      <trkpt lat="42.42783" lon="8.90798">
        <ele>1463.7</ele>
      </trkpt>
      <trkpt lat="42.42789" lon="8.90808">
        <ele>1465.7</ele>
      </trkpt>
      <trkpt lat="42.42787" lon="8.90838">
        <ele>1483.3</ele>
      </trkpt>
      <trkpt lat="42.42801" lon="8.90881">
        <ele>1490.7</ele>
      </trkpt>
      <trkpt lat="42.42798" lon="8.90906">
        <ele>1493.8</ele>
      </trkpt>
      <trkpt lat="42.42809" lon="8.90936">
        <ele>1513.3</ele>
      </trkpt>
      <trkpt lat="42.42809" lon="8.90956">
        <ele>1516.6</ele>
      </trkpt>
      <trkpt lat="42.42822" lon="8.90986">
        <ele>1527</ele>
      </trkpt>
      <trkpt lat="42.42817" lon="8.90996">
        <ele>1527.6</ele>
      </trkpt>
      <trkpt lat="42.42835" lon="8.91">
        <ele>1541.2</ele>
      </trkpt>
      <trkpt lat="42.42836" lon="8.91018">
        <ele>1554.8</ele>
      </trkpt>
      <trkpt lat="42.42847" lon="8.91031">
        <ele>1562.8</ele>
      </trkpt>
      <trkpt lat="42.42841" lon="8.91069">
        <ele>1568.4</ele>
      </trkpt>
      <trkpt lat="42.42872" lon="8.91141">
        <ele>1604.8</ele>
      </trkpt>
      <trkpt lat="42.42866" lon="8.91173">
        <ele>1623.6</ele>
      </trkpt>
      <trkpt lat="42.42868" lon="8.91216">
        <ele>1632.8</ele>
      </trkpt>
      <trkpt lat="42.42886" lon="8.91215">
        <ele>1636.1</ele>
      </trkpt>
      <trkpt lat="42.42896" lon="8.9124">
        <ele>1644.3</ele>
      </trkpt>
      <trkpt lat="42.4296" lon="8.91258">
        <ele>1694.1</ele>
      </trkpt>
      <trkpt lat="42.42998" lon="8.91244">
        <ele>1691.3</ele>
      </trkpt>
      <trkpt lat="42.43025" lon="8.9126">
        <ele>1722.3</ele>
      </trkpt>
      <trkpt lat="42.43045" lon="8.91253">
        <ele>1731.7</ele>
      </trkpt>
      <trkpt lat="42.43057" lon="8.91262">
        <ele>1736.5</ele>
      </trkpt>
      <trkpt lat="42.43064" lon="8.91262">
        <ele>1739.2</ele>
      </trkpt>
      <trkpt lat="42.43071" lon="8.91274">
        <ele>1740</ele>
      </trkpt>
      <trkpt lat="42.43099" lon="8.91281">
        <ele>1773</ele>
      </trkpt>
      <trkpt lat="42.4312" lon="8.9127">
        <ele>1778.9</ele>
      </trkpt>
      <trkpt lat="42.4314" lon="8.91275">
        <ele>1786.9</ele>
      </trkpt>
      <trkpt lat="42.43153" lon="8.91267">
        <ele>1791.8</ele>
      </trkpt>
      <trkpt lat="42.43162" lon="8.91273">
        <ele>1792.8</ele>
      </trkpt>
      <trkpt lat="42.43175" lon="8.91265">
        <ele>1817.8</ele>
      </trkpt>
      <trkpt lat="42.43193" lon="8.91265">
        <ele>1824.9</ele>
      </trkpt>
      <trkpt lat="42.43199" lon="8.91274">
        <ele>1828.1</ele>
      </trkpt>
      <trkpt lat="42.4321" lon="8.91275">
        <ele>1831.8</ele>
      </trkpt>
      <trkpt lat="42.4321" lon="8.91292">
        <ele>1833.1</ele>
      </trkpt>
      <trkpt lat="42.43224" lon="8.91291">
        <ele>1836.8</ele>
      </trkpt>
      <trkpt lat="42.43252" lon="8.91275">
        <ele>1852.5</ele>
      </trkpt>
      <trkpt lat="42.43269" lon="8.91235">
        <ele>1853.4</ele>
      </trkpt>
      <trkpt lat="42.43289" lon="8.91271">
        <ele>1853.3</ele>
      </trkpt>
      <trkpt lat="42.43275" lon="8.9133">
        <ele>1859.7</ele>
      </trkpt>
      <trkpt lat="42.43277" lon="8.91362">
        <ele>1881.2</ele>
      </trkpt>
      <trkpt lat="42.43292" lon="8.91392">
        <ele>1887.7</ele>
      </trkpt>
      <trkpt lat="42.43331" lon="8.91491">
        <ele>1931.4</ele>
      </trkpt>
      <trkpt lat="42.43391" lon="8.91546">
        <ele>1934.6</ele>
      </trkpt>
      <trkpt lat="42.43435" lon="8.91555">
        <ele>1907.4</ele>
      </trkpt>
      <trkpt lat="42.4348" lon="8.91577">
        <ele>1901.7</ele>
      </trkpt>
      <trkpt lat="42.43501" lon="8.916">
        <ele>1905.2</ele>
      </trkpt>
      <trkpt lat="42.43532" lon="8.91616">
        <ele>1900.9</ele>
      </trkpt>
      <trkpt lat="42.43526" lon="8.91658">
        <ele>1915.3</ele>
      </trkpt>
      <trkpt lat="42.43575" lon="8.91655">
        <ele>1898</ele>
      </trkpt>
      <trkpt lat="42.43637" lon="8.91698">
        <ele>1881</ele>
      </trkpt>
      <trkpt lat="42.43653" lon="8.91673">
        <ele>1880.8</ele>
      </trkpt>
      <trkpt lat="42.43666" lon="8.91702">
        <ele>1878.5</ele>
      </trkpt>
      <trkpt lat="42.43683" lon="8.9168">
        <ele>1875.3</ele>
      </trkpt>
      <trkpt lat="42.43728" lon="8.9169">
        <ele>1873.8</ele>
      </trkpt>
      <trkpt lat="42.43769" lon="8.91683">
        <ele>1877.5</ele>
      </trkpt>
      <trkpt lat="42.43812" lon="8.91684">
        <ele>1878.3</ele>
      </trkpt>
      <trkpt lat="42.43895" lon="8.91633">
        <ele>1862.7</ele>
      </trkpt>
      <trkpt lat="42.43931" lon="8.91629">
        <ele>1875.9</ele>
      </trkpt>
      <trkpt lat="42.43938" lon="8.9165">
        <ele>1883.5</ele>
      </trkpt>
      <trkpt lat="42.43961" lon="8.91613">
        <ele>1874.8</ele>
      </trkpt>
      <trkpt lat="42.43986" lon="8.91634">
        <ele>1886.6</ele>
      </trkpt>
      <trkpt lat="42.44015" lon="8.91604">
        <ele>1894.3</ele>
      </trkpt>
      <trkpt lat="42.44024" lon="8.91621">
        <ele>1905.4</ele>
      </trkpt>
      <trkpt lat="42.44051" lon="8.91575">
        <ele>1874.2</ele>
      </trkpt>
      <trkpt lat="42.44115" lon="8.91556">
        <ele>1902.8</ele>
      </trkpt>
      <trkpt lat="42.44147" lon="8.91538">
        <ele>1903.9</ele>
      </trkpt>
      <trkpt lat="42.44177" lon="8.91531">
        <ele>1926.5</ele>
      </trkpt>
      <trkpt lat="42.4421" lon="8.91511">
        <ele>1930.7</ele>
      </trkpt>
      <trkpt lat="42.44277" lon="8.91529">
        <ele>1971.6</ele>
      </trkpt>
      <trkpt lat="42.44298" lon="8.91517">
        <ele>1976.2</ele>
      </trkpt>
      <trkpt lat="42.44338" lon="8.91451">
        <ele>2006.1</ele>
      </trkpt>
      <trkpt lat="42.44356" lon="8.91406">
        <ele>2013.7</ele>
      </trkpt>
      <trkpt lat="42.44359" lon="8.91381">
        <ele>2021</ele>
      </trkpt>
      <trkpt lat="42.4437" lon="8.91379">
        <ele>2026</ele>
      </trkpt>
      <trkpt lat="42.4437" lon="8.91364">
        <ele>2026.9</ele>
      </trkpt>
      <trkpt lat="42.44378" lon="8.91319">
        <ele>2036.7</ele>
      </trkpt>
      <trkpt lat="42.44375" lon="8.91306">
        <ele>2035.3</ele>
      </trkpt>
      <trkpt lat="42.44384" lon="8.91279">
        <ele>2038.5</ele>
      </trkpt>
      <trkpt lat="42.44376" lon="8.91243">
        <ele>2031.3</ele>
      </trkpt>
      <trkpt lat="42.44397" lon="8.91177">
        <ele>2033.3</ele>
      </trkpt>
      <trkpt lat="42.44388" lon="8.91094">
        <ele>2017.5</ele>
      </trkpt>
      <trkpt lat="42.44393" lon="8.91081">
        <ele>2010.8</ele>
      </trkpt>
      <trkpt lat="42.44398" lon="8.91043">
        <ele>2005.2</ele>
      </trkpt>
      <trkpt lat="42.44439" lon="8.90891">
        <ele>2004.1</ele>
      </trkpt>
      <trkpt lat="42.44436" lon="8.90856">
        <ele>1998.3</ele>
      </trkpt>
      <trkpt lat="42.44466" lon="8.90778">
        <ele>1985.8</ele>
      </trkpt>
      <trkpt lat="42.44488" lon="8.90778">
        <ele>1990.5</ele>
      </trkpt>
      <trkpt lat="42.44502" lon="8.90767">
        <ele>2005.4</ele>
      </trkpt>
      <trkpt lat="42.44528" lon="8.90775">
        <ele>2012.8</ele>
      </trkpt>
      <trkpt lat="42.44572" lon="8.90719">
        <ele>1984.1</ele>
      </trkpt>
      <trkpt lat="42.44559" lon="8.90699">
        <ele>1976.4</ele>
      </trkpt>
      <trkpt lat="42.44575" lon="8.9068">
        <ele>1971.6</ele>
      </trkpt>
      <trkpt lat="42.44566" lon="8.9067">
        <ele>1970.7</ele>
      </trkpt>
      <trkpt lat="42.44585" lon="8.90619">
        <ele>1938.4</ele>
      </trkpt>
      <trkpt lat="42.44577" lon="8.9052">
        <ele>1908.9</ele>
      </trkpt>
      <trkpt lat="42.44558" lon="8.90464">
        <ele>1900.7</ele>
      </trkpt>
      <trkpt lat="42.44568" lon="8.90438">
        <ele>1897.8</ele>
      </trkpt>
      <trkpt lat="42.44607" lon="8.90423">
        <ele>1887.9</ele>
      </trkpt>
      <trkpt lat="42.44631" lon="8.90427">
        <ele>1883.4</ele>
      </trkpt>
      <trkpt lat="42.44645" lon="8.90422">
        <ele>1879.6</ele>
      </trkpt>
      <trkpt lat="42.44668" lon="8.90386">
        <ele>1859.2</ele>
      </trkpt>
      <trkpt lat="42.44686" lon="8.90337">
        <ele>1863</ele>
      </trkpt>
      <trkpt lat="42.44709" lon="8.9033">
        <ele>1861.7</ele>
      </trkpt>
      <trkpt lat="42.44722" lon="8.90299">
        <ele>1861.3</ele>
      </trkpt>
      <trkpt lat="42.44761" lon="8.90294">
        <ele>1824.8</ele>
      </trkpt>
      <trkpt lat="42.44797" lon="8.90222">
        <ele>1835.4</ele>
      </trkpt>
      <trkpt lat="42.44829" lon="8.9019">
        <ele>1832.4</ele>
      </trkpt>
      <trkpt lat="42.44847" lon="8.90176">
        <ele>1812.5</ele>
      </trkpt>
      <trkpt lat="42.4486" lon="8.90198">
        <ele>1802.4</ele>
      </trkpt>
      <trkpt lat="42.44859" lon="8.90272">
        <ele>1780.5</ele>
      </trkpt>
      <trkpt lat="42.44846" lon="8.90318">
        <ele>1779.7</ele>
      </trkpt>
      <trkpt lat="42.44849" lon="8.90348">
        <ele>1775.8</ele>
      </trkpt>
      <trkpt lat="42.44845" lon="8.90382">
        <ele>1774.7</ele>
      </trkpt>
      <trkpt lat="42.44855" lon="8.90375">
        <ele>1772.6</ele>
      </trkpt>
      <trkpt lat="42.44863" lon="8.90357">
        <ele>1770.7</ele>
      </trkpt>
      <trkpt lat="42.44886" lon="8.90348">
        <ele>1763</ele>
      </trkpt>
      <trkpt lat="42.44909" lon="8.90317">
        <ele>1758</ele>
      </trkpt>
      <trkpt lat="42.44921" lon="8.90279">
        <ele>1745.2</ele>
      </trkpt>
      <trkpt lat="42.44947" lon="8.90252">
        <ele>1744.1</ele>
      </trkpt>
      <trkpt lat="42.44969" lon="8.90277">
        <ele>1736</ele>
      </trkpt>
      <trkpt lat="42.44967" lon="8.90301">
        <ele>1732.9</ele>
      </trkpt>
      <trkpt lat="42.4503" lon="8.90329">
        <ele>1699.3</ele>
      </trkpt>
      <trkpt lat="42.45044" lon="8.90321">
        <ele>1696</ele>
      </trkpt>
      <trkpt lat="42.45053" lon="8.90322">
        <ele>1692.8</ele>
      </trkpt>
      <trkpt lat="42.45073" lon="8.90352">
        <ele>1687.8</ele>
      </trkpt>
      <trkpt lat="42.4514" lon="8.90355">
        <ele>1659.6</ele>
      </trkpt>
      <trkpt lat="42.45159" lon="8.90338">
        <ele>1646.1</ele>
      </trkpt>
      <trkpt lat="42.45187" lon="8.90337">
        <ele>1635.6</ele>
      </trkpt>
      <trkpt lat="42.4521" lon="8.9035">
        <ele>1632.6</ele>
      </trkpt>
      <trkpt lat="42.45212" lon="8.90397">
        <ele>1639.6</ele>
      </trkpt>
      <trkpt lat="42.45233" lon="8.90413">
        <ele>1639.1</ele>
      </trkpt>
      <trkpt lat="42.45244" lon="8.90403">
        <ele>1638</ele>
      </trkpt>
      <trkpt lat="42.4529" lon="8.90399">
        <ele>1623.2</ele>
      </trkpt>
      <trkpt lat="42.45317" lon="8.90418">
        <ele>1645</ele>
      </trkpt>
      <trkpt lat="42.45344" lon="8.90415">
        <ele>1622.7</ele>
      </trkpt>
      <trkpt lat="42.45389" lon="8.90358">
        <ele>1597.5</ele>
      </trkpt>
      <trkpt lat="42.45437" lon="8.90337">
        <ele>1576.1</ele>
      </trkpt>
      <trkpt lat="42.45481" lon="8.90334">
        <ele>1564.8</ele>
      </trkpt>
      <trkpt lat="42.45523" lon="8.90341">
        <ele>1551.7</ele>
      </trkpt>
      <trkpt lat="42.4555" lon="8.90354">
        <ele>1550.2</ele>
      </trkpt>
      <trkpt lat="42.45563" lon="8.90389">
        <ele>1554.3</ele>
      </trkpt>
      <trkpt lat="42.45578" lon="8.90389">
        <ele>1553.7</ele>
      </trkpt>
      <trkpt lat="42.45597" lon="8.90304">
        <ele>1531.1</ele>
      </trkpt>
      <trkpt lat="42.45627" lon="8.90275">
        <ele>1529.3</ele>
      </trkpt>
      <trkpt lat="42.45663" lon="8.90283">
        <ele>1532.5</ele>
      </trkpt>
      <trkpt lat="42.4568" lon="8.90299">
        <ele>1553.8</ele>
      </trkpt>
      <trkpt lat="42.45718" lon="8.90315">
        <ele>1563.4</ele>
      </trkpt>
      <trkpt lat="42.45726" lon="8.90312">
        <ele>1564.9</ele>
      </trkpt>
      <trkpt lat="42.4574" lon="8.90301">
        <ele>1565.8</ele>
      </trkpt>
      <trkpt lat="42.45751" lon="8.90301">
        <ele>1590.3</ele>
      </trkpt>
      <trkpt lat="42.45769" lon="8.90312">
        <ele>1592.7</ele>
      </trkpt>
      <trkpt lat="42.45785" lon="8.90304">
        <ele>1596.7</ele>
      </trkpt>
      <trkpt lat="42.45789" lon="8.90289">
        <ele>1596.5</ele>
      </trkpt>
      <trkpt lat="42.45791" lon="8.90265">
        <ele>1595.4</ele>
      </trkpt>
      <trkpt lat="42.45795" lon="8.9026">
        <ele>1596.6</ele>
      </trkpt>
      <trkpt lat="42.45804" lon="8.90261">
        <ele>1599.8</ele>
      </trkpt>
      <trkpt lat="42.45813" lon="8.90265">
        <ele>1602.2</ele>
      </trkpt>
      <trkpt lat="42.45821" lon="8.90262">
        <ele>1604.8</ele>
      </trkpt>
      <trkpt lat="42.45829" lon="8.90253">
        <ele>1609.2</ele>
      </trkpt>
      <trkpt lat="42.45837" lon="8.90255">
        <ele>1614.9</ele>
      </trkpt>
      <trkpt lat="42.45845" lon="8.90259">
        <ele>1618.1</ele>
      </trkpt>
      <trkpt lat="42.45855" lon="8.90275">
        <ele>1622.4</ele>
      </trkpt>
      <trkpt lat="42.45871" lon="8.90282">
        <ele>1624.8</ele>
      </trkpt>
      <trkpt lat="42.45893" lon="8.90284">
        <ele>1627</ele>
      </trkpt>
      <trkpt lat="42.45914" lon="8.90311">
        <ele>1632.3</ele>
      </trkpt>
      <trkpt lat="42.45944" lon="8.90326">
        <ele>1627.4</ele>
      </trkpt>
      <trkpt lat="42.4597" lon="8.90366">
        <ele>1634.5</ele>
      </trkpt>
      <trkpt lat="42.45985" lon="8.90397">
        <ele>1635.2</ele>
      </trkpt>
      <trkpt lat="42.46011" lon="8.90436">
        <ele>1622.5</ele>
      </trkpt>
      <trkpt lat="42.46015" lon="8.90446">
        <ele>1620.9</ele>
      </trkpt>
      <trkpt lat="42.46015" lon="8.90466">
        <ele>1622.3</ele>
      </trkpt>
      <trkpt lat="42.46004" lon="8.90501">
        <ele>1641.1</ele>
      </trkpt>
      <trkpt lat="42.46004" lon="8.90531">
        <ele>1632.6</ele>
      </trkpt>
      <trkpt lat="42.46011" lon="8.90587">
        <ele>1646</ele>
      </trkpt>
      <trkpt lat="42.46017" lon="8.90613">
        <ele>1642.2</ele>
      </trkpt>
      <trkpt lat="42.46019" lon="8.90639">
        <ele>1645.2</ele>
      </trkpt>
      <trkpt lat="42.46038" lon="8.90665">
        <ele>1642.2</ele>
      </trkpt>
      <trkpt lat="42.46059" lon="8.90685">
        <ele>1652.6</ele>
      </trkpt>
      <trkpt lat="42.46069" lon="8.90691">
        <ele>1651.6</ele>
      </trkpt>
      <trkpt lat="42.46076" lon="8.90694">
        <ele>1650.9</ele>
      </trkpt>
      <trkpt lat="42.46124" lon="8.90683">
        <ele>1635.8</ele>
      </trkpt>
      <trkpt lat="42.46151" lon="8.90669">
        <ele>1628.5</ele>
      </trkpt>
      <trkpt lat="42.46175" lon="8.90671">
        <ele>1619.9</ele>
      </trkpt>
      <trkpt lat="42.46191" lon="8.90663">
        <ele>1601.5</ele>
      </trkpt>
      <trkpt lat="42.4622" lon="8.90658">
        <ele>1594.7</ele>
      </trkpt>
      <trkpt lat="42.4627" lon="8.90668">
        <ele>1593.2</ele>
      </trkpt>
      <trkpt lat="42.46299" lon="8.90704">
        <ele>1588.9</ele>
      </trkpt>
      <trkpt lat="42.46311" lon="8.90711">
        <ele>1587.3</ele>
      </trkpt>
      <trkpt lat="42.46325" lon="8.90711">
        <ele>1585.2</ele>
      </trkpt>
      <trkpt lat="42.46334" lon="8.90703">
        <ele>1565.2</ele>
      </trkpt>
      <trkpt lat="42.46342" lon="8.90687">
        <ele>1563.5</ele>
      </trkpt>
      <trkpt lat="42.46353" lon="8.90676">
        <ele>1562.2</ele>
      </trkpt>
      <trkpt lat="42.46361" lon="8.90676">
        <ele>1561</ele>
      </trkpt>
      <trkpt lat="42.46378" lon="8.90696">
        <ele>1559.6</ele>
      </trkpt>
      <trkpt lat="42.46396" lon="8.90697">
        <ele>1556.9</ele>
      </trkpt>
      <trkpt lat="42.46417" lon="8.907">
        <ele>1548.2</ele>
      </trkpt>
      <trkpt lat="42.46462" lon="8.90711">
        <ele>1550.1</ele>
      </trkpt>
      <trkpt lat="42.4647" lon="8.90711">
        <ele>1550.1</ele>
      </trkpt>
      <trkpt lat="42.46484" lon="8.90699">
        <ele>1548.3</ele>
      </trkpt>
      <trkpt lat="42.46515" lon="8.90675">
        <ele>1544.7</ele>
      </trkpt>
      <trkpt lat="42.46532" lon="8.90672">
        <ele>1545.9</ele>
      </trkpt>
      <trkpt lat="42.46546" lon="8.90697">
        <ele>1548.5</ele>
      </trkpt>
      <trkpt lat="42.466" lon="8.90739">
        <ele>1540.9</ele>
      </trkpt>
      <trkpt lat="42.46597" lon="8.90743">
        <ele>1544.8</ele>
      </trkpt>
      <trkpt lat="42.46602" lon="8.90748">
        <ele>1542</ele>
      </trkpt>
      <trkpt lat="42.46615" lon="8.90771">
        <ele>1545.2</ele>
      </trkpt>
      <trkpt lat="42.46618" lon="8.90793">
        <ele>1545.5</ele>
      </trkpt>
      <trkpt lat="42.46611" lon="8.90812">
        <ele>1550.7</ele>
      </trkpt>
      <trkpt lat="42.46619" lon="8.90808">
        <ele>1547</ele>
      </trkpt>
      <trkpt lat="42.46629" lon="8.90815">
        <ele>1543.2</ele>
      </trkpt>
      <trkpt lat="42.46632" lon="8.90822">
        <ele>1542</ele>
      </trkpt>
      <trkpt lat="42.46631" lon="8.90831">
        <ele>1542.9</ele>
      </trkpt>
      <trkpt lat="42.46629" lon="8.90861">
        <ele>1558</ele>
      </trkpt>
      <trkpt lat="42.46617" lon="8.90891">
        <ele>1565.5</ele>
      </trkpt>
      <trkpt lat="42.46617" lon="8.90925">
        <ele>1583.9</ele>
      </trkpt>
      <trkpt lat="42.46629" lon="8.90932">
        <ele>1581.3</ele>
      </trkpt>
      <trkpt lat="42.46639" lon="8.90947">
        <ele>1581.5</ele>
      </trkpt>
      <trkpt lat="42.46639" lon="8.90955">
        <ele>1583.6</ele>
      </trkpt>
      <trkpt lat="42.46661" lon="8.90965">
        <ele>1583.6</ele>
      </trkpt>
      <trkpt lat="42.46679" lon="8.90956">
        <ele>1576.7</ele>
      </trkpt>
      <trkpt lat="42.46691" lon="8.90922">
        <ele>1568.5</ele>
      </trkpt>
      <trkpt lat="42.46727" lon="8.90939">
        <ele>1576.2</ele>
      </trkpt>
      <trkpt lat="42.46825" lon="8.90703">
        <ele>1499.5</ele>
      </trkpt>
      <trkpt lat="42.46867" lon="8.90724">
        <ele>1519.2</ele>
      </trkpt>
      <trkpt lat="42.4692" lon="8.90703">
        <ele>1537.9</ele>
      </trkpt>
      <trkpt lat="42.46934" lon="8.90674">
        <ele>1530.1</ele>
      </trkpt>
      <trkpt lat="42.46937" lon="8.90506">
        <ele>1509.5</ele>
      </trkpt>
      <trkpt lat="42.46954" lon="8.90442">
        <ele>1505</ele>
      </trkpt>
      <trkpt lat="42.46976" lon="8.90399">
        <ele>1497.3</ele>
      </trkpt>
      <trkpt lat="42.46996" lon="8.90404">
        <ele>1508.6</ele>
      </trkpt>
      <trkpt lat="42.4704" lon="8.90298">
        <ele>1505.4</ele>
      </trkpt>
      <trkpt lat="42.47113" lon="8.9024">
        <ele>1514.5</ele>
      </trkpt>
      <trkpt lat="42.47154" lon="8.90183">
        <ele>1519.2</ele>
      </trkpt>
      <trkpt lat="42.4718" lon="8.90072">
        <ele>1539.7</ele>
      </trkpt>
      <trkpt lat="42.47177" lon="8.89981">
        <ele>1552.5</ele>
      </trkpt>
      <trkpt lat="42.47145" lon="8.89865">
        <ele>1548.1</ele>
      </trkpt>
      <trkpt lat="42.47147" lon="8.89784">
        <ele>1561.2</ele>
      </trkpt>
      <trkpt lat="42.47136" lon="8.89711">
        <ele>1558.9</ele>
      </trkpt>
      <trkpt lat="42.47186" lon="8.89526">
        <ele>1553.6</ele>
      </trkpt>
      <trkpt lat="42.47186" lon="8.89469">
        <ele>1545.2</ele>
      </trkpt>
      <trkpt lat="42.47197" lon="8.89394">
        <ele>1541.4</ele>
      </trkpt>
      <trkpt lat="42.47183" lon="8.8931">
        <ele>1540</ele>
      </trkpt>
      <trkpt lat="42.47189" lon="8.89208">
        <ele>1540.8</ele>
      </trkpt>
      <trkpt lat="42.47186" lon="8.89163">
        <ele>1535.5</ele>
      </trkpt>
      <trkpt lat="42.47167" lon="8.89107">
        <ele>1534.6</ele>
      </trkpt>
      <trkpt lat="42.47166" lon="8.89032">
        <ele>1520.8</ele>
      </trkpt>
      <trkpt lat="42.47232" lon="8.88955">
        <ele>1517.7</ele>
      </trkpt>
      <trkpt lat="42.47233" lon="8.88923">
        <ele>1513.1</ele>
      </trkpt>
      <trkpt lat="42.47247" lon="8.88892">
        <ele>1504</ele>
      </trkpt>
      <trkpt lat="42.47274" lon="8.88888">
        <ele>1488</ele>
      </trkpt>
      <trkpt lat="42.47292" lon="8.88837">
        <ele>1482.4</ele>
      </trkpt>
      <trkpt lat="42.47309" lon="8.88814">
        <ele>1477.8</ele>
      </trkpt>
      <trkpt lat="42.47337" lon="8.88851">
        <ele>1457.5</ele>
      </trkpt>
      <trkpt lat="42.47345" lon="8.88872">
        <ele>1451.9</ele>
      </trkpt>
      <trkpt lat="42.47379" lon="8.88821">
        <ele>1447.2</ele>
      </trkpt>
      <trkpt lat="42.47403" lon="8.88809">
        <ele>1440.4</ele>
      </trkpt>
      <trkpt lat="42.47405" lon="8.88767">
        <ele>1440.2</ele>
      </trkpt>
      <trkpt lat="42.47398" lon="8.88751">
        <ele>1440.4</ele>
      </trkpt>
      <trkpt lat="42.47412" lon="8.88709">
        <ele>1449.6</ele>
      </trkpt>
      <trkpt lat="42.47412" lon="8.8867">
        <ele>1443.5</ele>
      </trkpt>
      <trkpt lat="42.4742" lon="8.8857">
        <ele>1444.3</ele>
      </trkpt>
      <trkpt lat="42.47413" lon="8.88555">
        <ele>1469.2</ele>
      </trkpt>
      <trkpt lat="42.4742" lon="8.8846">
        <ele>1451.8</ele>
      </trkpt>
      <trkpt lat="42.47446" lon="8.88364">
        <ele>1460</ele>
      </trkpt>
      <trkpt lat="42.47444" lon="8.8832">
        <ele>1470.9</ele>
      </trkpt>
      <trkpt lat="42.4747" lon="8.88254">
        <ele>1457.4</ele>
      </trkpt>
      <trkpt lat="42.47471" lon="8.88225">
        <ele>1463.9</ele>
      </trkpt>
      <trkpt lat="42.47483" lon="8.88201">
        <ele>1461.4</ele>
      </trkpt>
      <trkpt lat="42.47492" lon="8.88153">
        <ele>1456.9</ele>
      </trkpt>
      <trkpt lat="42.47488" lon="8.88107">
        <ele>1464.5</ele>
      </trkpt>
      <trkpt lat="42.47507" lon="8.8807">
        <ele>1431.7</ele>
      </trkpt>
      <trkpt lat="42.47513" lon="8.88032">
        <ele>1429.6</ele>
      </trkpt>
      <trkpt lat="42.4751" lon="8.88002">
        <ele>1443.1</ele>
      </trkpt>
      <trkpt lat="42.47521" lon="8.87983">
        <ele>1448.2</ele>
      </trkpt>
      <trkpt lat="42.4758" lon="8.87998">
        <ele>1406.6</ele>
      </trkpt>
      <trkpt lat="42.47602" lon="8.87975">
        <ele>1387.8</ele>
      </trkpt>
      <trkpt lat="42.47605" lon="8.87945">
        <ele>1392.5</ele>
      </trkpt>
      <trkpt lat="42.47618" lon="8.87878">
        <ele>1410.6</ele>
      </trkpt>
      <trkpt lat="42.47635" lon="8.87848">
        <ele>1406.3</ele>
      </trkpt>
      <trkpt lat="42.47675" lon="8.87839">
        <ele>1369.2</ele>
      </trkpt>
      <trkpt lat="42.47696" lon="8.87877">
        <ele>1346.5</ele>
      </trkpt>
      <trkpt lat="42.47784" lon="8.8781">
        <ele>1334.1</ele>
      </trkpt>
      <trkpt lat="42.47788" lon="8.87835">
        <ele>1308.1</ele>
      </trkpt>
      <trkpt lat="42.47795" lon="8.8781">
        <ele>1331.2</ele>
      </trkpt>
      <trkpt lat="42.47877" lon="8.87748">
        <ele>1332.2</ele>
      </trkpt>
      <trkpt lat="42.47926" lon="8.87677">
        <ele>1325.1</ele>
      </trkpt>
      <trkpt lat="42.47942" lon="8.87691">
        <ele>1313.7</ele>
      </trkpt>
      <trkpt lat="42.47965" lon="8.87679">
        <ele>1308.2</ele>
      </trkpt>
      <trkpt lat="42.48" lon="8.87747">
        <ele>1275.2</ele>
      </trkpt>
      <trkpt lat="42.48121" lon="8.87633">
        <ele>1248.4</ele>
      </trkpt>
      <trkpt lat="42.48141" lon="8.87596">
        <ele>1248.4</ele>
      </trkpt>
      <trkpt lat="42.48164" lon="8.87583">
        <ele>1245.7</ele>
      </trkpt>
      <trkpt lat="42.48173" lon="8.87529">
        <ele>1238.1</ele>
      </trkpt>
      <trkpt lat="42.48103" lon="8.875">
        <ele>1221.9</ele>
      </trkpt>
      <trkpt lat="42.48012" lon="8.87397">
        <ele>1198.3</ele>
      </trkpt>
      <trkpt lat="42.48022" lon="8.87377">
        <ele>1190.3</ele>
      </trkpt>
      <trkpt lat="42.4802" lon="8.87355">
        <ele>1186.2</ele>
      </trkpt>
      <trkpt lat="42.48081" lon="8.87363">
        <ele>1177.1</ele>
      </trkpt>
      <trkpt lat="42.48127" lon="8.87352">
        <ele>1170</ele>
      </trkpt>
      <trkpt lat="42.48165" lon="8.87325">
        <ele>1152.3</ele>
      </trkpt>
      <trkpt lat="42.48162" lon="8.87316">
        <ele>1148.1</ele>
      </trkpt>
      <trkpt lat="42.48167" lon="8.87304">
        <ele>1151.4</ele>
      </trkpt>
      <trkpt lat="42.48162" lon="8.87301">
        <ele>1142.7</ele>
      </trkpt>
      <trkpt lat="42.48202" lon="8.87232">
        <ele>1119.7</ele>
      </trkpt>
      <trkpt lat="42.48217" lon="8.87187">
        <ele>1111.9</ele>
      </trkpt>
      <trkpt lat="42.48197" lon="8.87187">
        <ele>1109.5</ele>
      </trkpt>
      <trkpt lat="42.48197" lon="8.87168">
        <ele>1106.3</ele>
      </trkpt>
      <trkpt lat="42.48207" lon="8.87136">
        <ele>1078.3</ele>
      </trkpt>
      <trkpt lat="42.48158" lon="8.8714">
        <ele>1075.5</ele>
      </trkpt>
      <trkpt lat="42.48166" lon="8.87113">
        <ele>1066.5</ele>
      </trkpt>
      <trkpt lat="42.48143" lon="8.87118">
        <ele>1068.9</ele>
      </trkpt>
      <trkpt lat="42.48161" lon="8.87075">
        <ele>1046.7</ele>
      </trkpt>
      <trkpt lat="42.482" lon="8.87022">
        <ele>1030.1</ele>
      </trkpt>
      <trkpt lat="42.4817" lon="8.87032">
        <ele>1030.7</ele>
      </trkpt>
      <trkpt lat="42.48111" lon="8.87076">
        <ele>1043.6</ele>
      </trkpt>
      <trkpt lat="42.48082" lon="8.87019">
        <ele>1041.9</ele>
      </trkpt>
      <trkpt lat="42.48046" lon="8.86994">
        <ele>1032.7</ele>
      </trkpt>
      <trkpt lat="42.4806" lon="8.86955">
        <ele>1024.3</ele>
      </trkpt>
      <trkpt lat="42.48054" lon="8.86917">
        <ele>1018.4</ele>
      </trkpt>
      <trkpt lat="42.47985" lon="8.86847">
        <ele>1021.6</ele>
      </trkpt>
      <trkpt lat="42.47987" lon="8.86771">
        <ele>994.8</ele>
      </trkpt>
      <trkpt lat="42.47966" lon="8.86731">
        <ele>977.6</ele>
      </trkpt>
      <trkpt lat="42.47941" lon="8.86649">
        <ele>949.7</ele>
      </trkpt>
      <trkpt lat="42.47916" lon="8.86621">
        <ele>955.1</ele>
      </trkpt>
      <trkpt lat="42.47877" lon="8.86618">
        <ele>955.6</ele>
      </trkpt>
      <trkpt lat="42.47908" lon="8.86594">
        <ele>945</ele>
      </trkpt>
      <trkpt lat="42.47958" lon="8.86584">
        <ele>933.2</ele>
      </trkpt>
      <trkpt lat="42.47937" lon="8.86557">
        <ele>911.6</ele>
      </trkpt>
      <trkpt lat="42.47904" lon="8.86537">
        <ele>912.4</ele>
      </trkpt>
      <trkpt lat="42.47884" lon="8.86539">
        <ele>912.9</ele>
      </trkpt>
      <trkpt lat="42.47821" lon="8.86515">
        <ele>903.2</ele>
      </trkpt>
      <trkpt lat="42.47888" lon="8.86492">
        <ele>879.2</ele>
      </trkpt>
      <trkpt lat="42.47971" lon="8.86434">
        <ele>861.7</ele>
      </trkpt>
      <trkpt lat="42.47958" lon="8.86411">
        <ele>836.5</ele>
      </trkpt>
      <trkpt lat="42.47992" lon="8.8641">
        <ele>840.4</ele>
      </trkpt>
      <trkpt lat="42.48038" lon="8.86451">
        <ele>845.4</ele>
      </trkpt>
      <trkpt lat="42.48058" lon="8.86452">
        <ele>841.8</ele>
      </trkpt>
      <trkpt lat="42.48067" lon="8.86467">
        <ele>844</ele>
      </trkpt>
      <trkpt lat="42.48117" lon="8.86467">
        <ele>819.4</ele>
      </trkpt>
      <trkpt lat="42.4813" lon="8.86474">
        <ele>818.3</ele>
      </trkpt>
      <trkpt lat="42.4816" lon="8.86472">
        <ele>814.8</ele>
      </trkpt>
      <trkpt lat="42.48207" lon="8.86492">
        <ele>791</ele>
      </trkpt>
      <trkpt lat="42.48206" lon="8.86529">
        <ele>811.9</ele>
      </trkpt>
      <trkpt lat="42.48226" lon="8.86528">
        <ele>806.4</ele>
      </trkpt>
      <trkpt lat="42.48235" lon="8.86513">
        <ele>799.5</ele>
      </trkpt>
      <trkpt lat="42.48246" lon="8.86516">
        <ele>796.7</ele>
      </trkpt>
      <trkpt lat="42.48241" lon="8.86559">
        <ele>808.3</ele>
      </trkpt>
      <trkpt lat="42.48263" lon="8.86557">
        <ele>791.6</ele>
      </trkpt>
      <trkpt lat="42.48296" lon="8.86525">
        <ele>782.8</ele>
      </trkpt>
      <trkpt lat="42.48325" lon="8.86518">
        <ele>775.6</ele>
      </trkpt>
      <trkpt lat="42.48456" lon="8.86408">
        <ele>724.2</ele>
      </trkpt>
      <trkpt lat="42.48497" lon="8.86387">
        <ele>723.8</ele>
      </trkpt>
      <trkpt lat="42.48525" lon="8.86345">
        <ele>726.7</ele>
      </trkpt>
      <trkpt lat="42.48554" lon="8.86252">
        <ele>707.8</ele>
      </trkpt>
      <trkpt lat="42.48596" lon="8.86196">
        <ele>702.3</ele>
      </trkpt>
      <trkpt lat="42.48637" lon="8.86149">
        <ele>688.5</ele>
      </trkpt>
      <trkpt lat="42.48706" lon="8.86001">
        <ele>676.4</ele>
      </trkpt>
      <trkpt lat="42.48728" lon="8.85988">
        <ele>662.2</ele>
      </trkpt>
      <trkpt lat="42.48752" lon="8.85999">
        <ele>676.1</ele>
      </trkpt>
      <trkpt lat="42.48775" lon="8.85998">
        <ele>672.6</ele>
      </trkpt>
      <trkpt lat="42.48815" lon="8.85958">
        <ele>669.2</ele>
      </trkpt>
      <trkpt lat="42.48855" lon="8.85951">
        <ele>676.5</ele>
      </trkpt>
      <trkpt lat="42.48893" lon="8.85927">
        <ele>674.6</ele>
      </trkpt>
      <trkpt lat="42.48921" lon="8.8593">
        <ele>675.7</ele>
      </trkpt>
      <trkpt lat="42.48973" lon="8.85947">
        <ele>682</ele>
      </trkpt>
      <trkpt lat="42.48996" lon="8.8594">
        <ele>679.6</ele>
      </trkpt>
      <trkpt lat="42.49024" lon="8.85914">
        <ele>668.9</ele>
      </trkpt>
      <trkpt lat="42.4904" lon="8.85878">
        <ele>666</ele>
      </trkpt>
      <trkpt lat="42.49061" lon="8.85858">
        <ele>664.9</ele>
      </trkpt>
      <trkpt lat="42.49099" lon="8.85839">
        <ele>665.8</ele>
      </trkpt>
      <trkpt lat="42.49116" lon="8.85848">
        <ele>667.4</ele>
      </trkpt>
      <trkpt lat="42.49166" lon="8.8581">
        <ele>648.4</ele>
      </trkpt>
      <trkpt lat="42.49191" lon="8.85745">
        <ele>630.1</ele>
      </trkpt>
      <trkpt lat="42.49201" lon="8.85737">
        <ele>630.9</ele>
      </trkpt>
      <trkpt lat="42.49214" lon="8.85711">
        <ele>629.2</ele>
      </trkpt>
      <trkpt lat="42.49215" lon="8.85679">
        <ele>625.1</ele>
      </trkpt>
      <trkpt lat="42.49224" lon="8.85643">
        <ele>609.6</ele>
      </trkpt>
      <trkpt lat="42.4925" lon="8.85595">
        <ele>617.8</ele>
      </trkpt>
      <trkpt lat="42.49271" lon="8.85541">
        <ele>614.6</ele>
      </trkpt>
      <trkpt lat="42.49274" lon="8.85517">
        <ele>611.9</ele>
      </trkpt>
      <trkpt lat="42.49288" lon="8.85461">
        <ele>609.2</ele>
      </trkpt>
      <trkpt lat="42.49287" lon="8.85453">
        <ele>608.6</ele>
      </trkpt>
      <trkpt lat="42.49295" lon="8.85401">
        <ele>608.4</ele>
      </trkpt>
      <trkpt lat="42.49269" lon="8.85211">
        <ele>616.3</ele>
      </trkpt>
      <trkpt lat="42.4924" lon="8.85158">
        <ele>588.6</ele>
      </trkpt>
      <trkpt lat="42.49241" lon="8.85133">
        <ele>579.4</ele>
      </trkpt>
      <trkpt lat="42.4926" lon="8.85096">
        <ele>595.2</ele>
      </trkpt>
      <trkpt lat="42.49276" lon="8.85088">
        <ele>600.9</ele>
      </trkpt>
      <trkpt lat="42.49283" lon="8.85098">
        <ele>604.6</ele>
      </trkpt>
      <trkpt lat="42.49306" lon="8.85088">
        <ele>610.8</ele>
      </trkpt>
      <trkpt lat="42.49336" lon="8.85072">
        <ele>615.2</ele>
      </trkpt>
      <trkpt lat="42.49359" lon="8.8507">
        <ele>614.6</ele>
      </trkpt>
      <trkpt lat="42.49372" lon="8.85045">
        <ele>613.5</ele>
      </trkpt>
      <trkpt lat="42.49377" lon="8.85045">
        <ele>613.8</ele>
      </trkpt>
      <trkpt lat="42.49391" lon="8.85024">
        <ele>614.4</ele>
      </trkpt>
      <trkpt lat="42.49429" lon="8.85003">
        <ele>614.8</ele>
      </trkpt>
      <trkpt lat="42.49451" lon="8.84983">
        <ele>611</ele>
      </trkpt>
      <trkpt lat="42.49458" lon="8.84988">
        <ele>609.6</ele>
      </trkpt>
      <trkpt lat="42.49468" lon="8.84987">
        <ele>607.7</ele>
      </trkpt>
      <trkpt lat="42.49463" lon="8.85004">
        <ele>606.2</ele>
      </trkpt>
      <trkpt lat="42.49453" lon="8.85015">
        <ele>608.3</ele>
      </trkpt>
      <trkpt lat="42.49458" lon="8.85025">
        <ele>607.1</ele>
      </trkpt>
      <trkpt lat="42.4948" lon="8.85015">
        <ele>603</ele>
      </trkpt>
      <trkpt lat="42.49481" lon="8.85019">
        <ele>603</ele>
      </trkpt>
      <trkpt lat="42.49474" lon="8.85033">
        <ele>604.4</ele>
      </trkpt>
      <trkpt lat="42.4948" lon="8.8504">
        <ele>603.5</ele>
      </trkpt>
      <trkpt lat="42.49488" lon="8.85033">
        <ele>602.6</ele>
      </trkpt>
      <trkpt lat="42.49492" lon="8.85036">
        <ele>602.2</ele>
      </trkpt>
      <trkpt lat="42.49483" lon="8.85061">
        <ele>601.3</ele>
      </trkpt>
      <trkpt lat="42.4949" lon="8.85073">
        <ele>597.4</ele>
      </trkpt>
      <trkpt lat="42.4951" lon="8.85045">
        <ele>583.5</ele>
      </trkpt>
      <trkpt lat="42.49533" lon="8.85036">
        <ele>581</ele>
      </trkpt>
      <trkpt lat="42.49549" lon="8.85017">
        <ele>579.2</ele>
      </trkpt>
      <trkpt lat="42.49595" lon="8.84997">
        <ele>567.4</ele>
      </trkpt>
      <trkpt lat="42.49624" lon="8.84968">
        <ele>559.8</ele>
      </trkpt>
      <trkpt lat="42.49632" lon="8.85069">
        <ele>547.7</ele>
      </trkpt>
      <trkpt lat="42.49641" lon="8.85106">
        <ele>544</ele>
      </trkpt>
      <trkpt lat="42.49678" lon="8.85172">
        <ele>532.9</ele>
      </trkpt>
      <trkpt lat="42.49725" lon="8.85214">
        <ele>530.7</ele>
      </trkpt>
      <trkpt lat="42.49769" lon="8.85214">
        <ele>517.4</ele>
      </trkpt>
      <trkpt lat="42.49876" lon="8.85269">
        <ele>513.3</ele>
      </trkpt>
      <trkpt lat="42.4991" lon="8.85264">
        <ele>506.4</ele>
      </trkpt>
      <trkpt lat="42.49915" lon="8.85282">
        <ele>510.9</ele>
      </trkpt>
      <trkpt lat="42.49929" lon="8.8529">
        <ele>500.1</ele>
      </trkpt>
      <trkpt lat="42.49962" lon="8.85284">
        <ele>495.2</ele>
      </trkpt>
      <trkpt lat="42.49979" lon="8.85266">
        <ele>488.7</ele>
      </trkpt>
      <trkpt lat="42.50023" lon="8.8528">
        <ele>472.6</ele>
      </trkpt>
      <trkpt lat="42.50133" lon="8.85341">
        <ele>454.6</ele>
      </trkpt>
      <trkpt lat="42.50136" lon="8.85357">
        <ele>455.7</ele>
      </trkpt>
      <trkpt lat="42.50175" lon="8.85384">
        <ele>428.3</ele>
      </trkpt>
      <trkpt lat="42.50179" lon="8.85418">
        <ele>444.2</ele>
      </trkpt>
      <trkpt lat="42.5019" lon="8.85422">
        <ele>440.3</ele>
      </trkpt>
      <trkpt lat="42.50237" lon="8.85493">
        <ele>430</ele>
      </trkpt>
      <trkpt lat="42.50288" lon="8.85541">
        <ele>419.9</ele>
      </trkpt>
      <trkpt lat="42.50285" lon="8.85552">
        <ele>420.7</ele>
      </trkpt>
      <trkpt lat="42.50297" lon="8.85561">
        <ele>419.2</ele>
      </trkpt>
      <trkpt lat="42.50314" lon="8.85596">
        <ele>414.1</ele>
      </trkpt>
      <trkpt lat="42.50309" lon="8.85658">
        <ele>409.3</ele>
      </trkpt>
      <trkpt lat="42.50316" lon="8.85672">
        <ele>400</ele>
      </trkpt>
      <trkpt lat="42.50317" lon="8.85722">
        <ele>397.9</ele>
      </trkpt>
      <trkpt lat="42.50328" lon="8.85742">
        <ele>389</ele>
      </trkpt>
      <trkpt lat="42.50333" lon="8.85763">
        <ele>386.1</ele>
      </trkpt>
      <trkpt lat="42.50338" lon="8.85763">
        <ele>375.2</ele>
      </trkpt>
      <trkpt lat="42.50349" lon="8.85784">
        <ele>369.8</ele>
      </trkpt>
      <trkpt lat="42.50358" lon="8.85786">
        <ele>368.5</ele>
      </trkpt>
      <trkpt lat="42.50362" lon="8.85801">
        <ele>367.6</ele>
      </trkpt>
      <trkpt lat="42.50371" lon="8.85798">
        <ele>366.2</ele>
      </trkpt>
      <trkpt lat="42.50373" lon="8.8581">
        <ele>365.9</ele>
      </trkpt>
      <trkpt lat="42.50379" lon="8.858">
        <ele>365</ele>
      </trkpt>
      <trkpt lat="42.50384" lon="8.85798">
        <ele>364.3</ele>
      </trkpt>
      <trkpt lat="42.50385" lon="8.85811">
        <ele>363.9</ele>
      </trkpt>
      <trkpt lat="42.50389" lon="8.85806">
        <ele>363.4</ele>
      </trkpt>
      <trkpt lat="42.50398" lon="8.85786">
        <ele>362.5</ele>
      </trkpt>
      <trkpt lat="42.50415" lon="8.8578">
        <ele>360.4</ele>
      </trkpt>
      <trkpt lat="42.50418" lon="8.85758">
        <ele>350.1</ele>
      </trkpt>
      <trkpt lat="42.50491" lon="8.85723">
        <ele>343</ele>
      </trkpt>
      <trkpt lat="42.50567" lon="8.85638">
        <ele>322.2</ele>
      </trkpt>
      <trkpt lat="42.5059" lon="8.85576">
        <ele>306.4</ele>
      </trkpt>
      <trkpt lat="42.50606" lon="8.85564">
        <ele>303.4</ele>
      </trkpt>
      <trkpt lat="42.50616" lon="8.85536">
        <ele>301.8</ele>
      </trkpt>
      <trkpt lat="42.50636" lon="8.85513">
        <ele>298.9</ele>
      </trkpt>
      <trkpt lat="42.5065" lon="8.85522">
        <ele>297.4</ele>
      </trkpt>
      <trkpt lat="42.50665" lon="8.85523">
        <ele>296.2</ele>
      </trkpt>
      <trkpt lat="42.50666" lon="8.85526">
        <ele>296.6</ele>
      </trkpt>
      <trkpt lat="42.5068" lon="8.85516">
        <ele>289.2</ele>
      </trkpt>
      <trkpt lat="42.50704" lon="8.85505">
        <ele>287.9</ele>
      </trkpt>
      <trkpt lat="42.50714" lon="8.85482">
        <ele>283.3</ele>
      </trkpt>
      <trkpt lat="42.5072" lon="8.85485">
        <ele>283.1</ele>
      </trkpt>
      <trkpt lat="42.50724" lon="8.85498">
        <ele>283</ele>
      </trkpt>
      <trkpt lat="42.50756" lon="8.85544">
        <ele>281.2</ele>
      </trkpt>
      <trkpt lat="42.50794" lon="8.85508">
        <ele>278.4</ele>
      </trkpt>
      <trkpt lat="42.50821" lon="8.85536">
        <ele>277.8</ele>
      </trkpt>
    </trkseg>
  </trk>
</gpx>